[[{"header":{"parameterUnit":"m.s-1","parameterCategory":1,"la1":31.0,"la2":29.5877,"lo1":-88.7671,"lo2":-86.6584,"dy":0.0162,"dx":0.0185,"nx":115,"ny":88,"refTime":"2023-02-22T06:00:00:Z","depth":0,"parameterNumber":2,"parameterNumberName":"U-component_of_WINDS"},"data":[0.0,0.0,0.0,0.0,0.0,0.0,0.0,0.0,0.0,0.0,0.0,0.0,0.0,0.0,0.0,0.0,0.0,0.0,0.0,0.0,0.0,0.0,0.0,0.0,0.0,0.0,0.0,0.0,0.0,0.0,0.0,0.0,0.0,0.0,0.0,0.0,0.0,0.0,0.0,0.0,0.0,0.0,0.0,0.0,0.0,0.0,0.0,0.0,0.0,0.0,0.0,0.0,0.0,0.0,0.0,0.0,0.0,0.0,0.0,0.0,0.0,0.0,0.0,0.0,0.0,0.0,0.0,0.0,0.0,0.0,0.0,0.0,0.0,0.0,0.0,0.0,0.0,0.0,0.0,0.0,0.0,0.0,0.0,0.0,0.0,0.0,0.0,0.0,0.0,0.0,0.0,0.0,0.0,0.0,0.0,0.0,0.0,0.0,0.0,0.0,0.0,0.0,0.0,0.0,0.0,0.0,0.0,0.0,0.0,0.0,0.0,0.0,0.0,0.0,0.0,0.0,0.0,0.0,0.0,0.0,0.0,0.0,0.0,0.0,0.0,0.0,0.0,0.0,0.0,0.0,0.0,0.0,0.0,0.0,0.0,0.0,0.0,0.0,0.0,0.0,0.0,0.0,0.0,0.0,0.0,0.0,0.0,0.0,0.0,0.0,0.0,0.0,0.0,0.0,0.0,0.0,0.0,0.0,0.0,0.0,0.0,0.0,0.0,0.0,0.0,0.0,0.0,0.0,0.0,0.0,0.0,0.0,0.0,0.0,0.0,0.0,0.0,0.0,0.0,0.0,0.0,0.0,0.0,0.0,0.0,0.0,0.0,0.0,0.0,0.0,0.0,0.0,0.0,0.0,0.0,0.0,0.0,0.0,0.0,0.0,0.0,0.0,0.0,0.0,0.0,0.0,0.0,0.0,0.0,0.0,0.0,0.0,0.0,0.0,0.0,0.0,0.0,0.0,0.0,0.0,0.0,0.0,0.0,0.0,0.0,0.0,0.0,0.0,0.0,0.0,0.0,0.0,0.0,0.0,0.0,0.0,0.0,0.0,0.0,0.0,0.0,0.0,0.0,0.0,0.0,0.0,0.0,0.0,0.0,0.0,0.0,0.0,0.0,0.0,0.0,0.0,0.0,0.0,0.0,0.0,0.0,0.0,0.0,0.0,0.0,0.0,0.0,0.0,0.0,0.0,0.0,0.0,0.0,0.0,0.0,0.0,0.0,0.0,0.0,0.0,0.0,0.0,0.0,0.0,0.0,0.0,0.0,0.0,0.0,0.0,0.0,0.0,0.0,0.0,0.0,0.0,0.0,0.0,0.0,0.0,0.0,0.0,0.0,0.0,0.0,0.0,0.0,0.0,0.0,0.0,0.0,0.0,0.0,0.0,0.0,0.0,0.0,0.0,0.0,0.0,0.0,0.0,0.0,0.0,0.0,0.0,0.0,0.0,0.0,0.0,0.0,0.0,0.0,0.0,0.0,0.0,0.0,0.0,0.0,0.0,0.0,0.0,0.0,0.0,0.0,0.0,0.0,0.0,0.0,0.0,0.0,0.0,0.0,0.0,0.0,0.0,0.0,0.0,0.0,0.0,0.0,0.0,0.0,0.0,0.0,0.0,0.0,0.0,0.0,0.0,0.0,0.0,0.0,0.0,0.0,0.0,0.0,0.0,0.0,0.0,0.0,0.0,0.0,0.0,0.0,0.0,0.0,0.0,0.0,0.0,0.0,0.0,0.0,0.0,0.0,0.0,0.0,0.0,0.0,0.0,0.0,0.0,0.0,0.0,0.0,0.0,0.0,0.0,0.0,0.0,0.0,0.0,0.0,0.0,0.0,0.0,0.0,0.0,0.0,0.0,0.0,0.0,0.0,0.0,0.0,0.0,0.0,0.0,0.0,0.0,0.0,0.0,0.0,0.0,0.0,0.0,0.0,0.0,0.0,0.0,0.0,0.0,0.0,0.0,0.0,0.0,0.0,0.0,0.0,0.0,0.0,0.0,0.0,0.0,0.0,0.0,0.0,0.0,0.0,0.0,0.0,0.0,0.0,0.0,0.0,0.0,0.0,0.0,0.0,0.0,0.0,0.0,0.0,0.0,0.0,0.0,0.0,0.0,0.0,0.0,0.0,0.0,0.0,0.0,0.0,0.0,0.0,0.0,0.0,0.0,0.0,0.0,0.0,0.0,0.0,0.0,0.0,0.0,0.0,0.0,0.0,0.0,0.0,0.0,0.0,0.0,0.0,0.0,0.0,0.0,0.0,0.0,0.0,0.0,0.0,0.0,0.0,0.0,0.0,0.0,0.0,0.0,0.0,0.0,0.0,0.0,0.0,0.0,0.0,0.0,0.0,0.0,0.0,0.0,0.0,0.0,0.0,0.0,0.0,0.0,0.0,0.0,0.0,0.0,0.0,0.0,0.0,0.0,0.0,0.0,0.0,0.0,0.0,0.0,0.0,0.0,0.0,0.0,0.0,0.0,0.0,0.0,0.0,0.0,0.0,0.0,0.0,0.0,0.0,0.0,0.0,0.0,0.0,0.0,0.0,0.0,0.0,0.0,0.0,0.0,0.0,0.0,0.0,0.0,0.0,0.0,0.0,0.0,0.0,0.0,0.0,0.0,0.0,0.0,0.0,0.0,0.0,0.0,0.0,0.0,0.0,0.0,0.0,0.0,0.0,0.0,0.0,0.0,0.0,0.0,0.0,0.0,0.0,0.0,0.0,0.0,0.0,0.0,0.0,0.0,0.0,0.0,0.0,0.0,0.0,0.0,0.0,0.0,0.0,0.0,0.0,0.0,0.0,0.0,0.0,0.0,0.0,0.0,0.0,0.0,0.0,0.0,0.0,0.0,0.0,0.0,0.0,0.0,0.0,0.0,0.0,0.0,0.0,0.0,0.0,0.0,0.0,0.0,0.0,0.0,0.0,0.0,0.0,0.0,0.0,0.0,0.0,0.0,0.0,0.0,0.0,0.0,0.0,0.0,0.0,0.0,0.0,0.0,0.0,0.0,0.0,0.0,0.0,0.0,0.0,0.0,0.0,0.0,0.0,0.0,0.0,0.0,0.0,0.0,0.0,0.0,0.0,0.0,0.0,0.0,0.0,0.0,0.0,0.0,0.0,0.0,0.0,0.0,0.0,0.0,0.0,0.0,0.0,0.0,0.0,0.0,0.0,0.0,0.0,0.0,0.0,0.0,0.0,0.0,0.0,0.0,0.0,0.0,0.0,0.0,0.0,0.0,0.0,0.0,0.0,0.0,0.0,0.0,0.0,0.0,0.0,0.0,0.0,0.0,0.0,0.0,0.0,0.0,0.0,0.0,0.0,0.0,0.0,0.0,0.0,0.0,0.0,0.0,0.0,0.0,0.0,0.0,0.0,0.0,0.0,0.0,0.0,0.0,0.0,0.0,0.0,0.0,0.0,0.0,0.0,0.0,0.0,0.0,0.0,0.0,0.0,0.0,0.0,0.0,0.0,0.0,0.0,0.0,0.0,0.0,0.0,0.0,0.0,0.0,0.0,0.0,0.0,0.0,0.0,0.0,0.0,0.0,0.0,0.0,0.0,0.0,0.0,0.0,0.0,0.0,0.0,0.0,0.0,0.0,0.0,0.0,0.0,0.0,0.0,0.0,0.0,0.0,0.0,0.0,0.0,0.0,0.0,0.0,0.0,0.0,0.0,0.0,0.0,0.0,0.0,0.0,0.0,0.0,0.0,0.0,0.0,0.0,0.0,0.0,0.0,0.0,0.0,0.0,0.0,0.0,0.0,0.0,0.0,0.0,0.0,0.0,0.0,0.0,0.0,0.0,0.0,0.0,0.0,0.0,0.0,0.0,0.0,0.0,0.0,0.0,0.0,0.0,0.0,0.0,0.0,0.0,0.0,0.0,0.0,0.0,0.0,0.0,0.0,0.0,0.0,0.0,0.0,0.0,0.0,0.0,0.0,0.0,0.0,0.0,0.0,0.0,0.0,0.0,0.0,0.0,0.0,0.0,0.0,0.0,0.0,0.0,0.0,0.0,0.0,0.0,0.0,0.0,0.0,0.0,0.0,0.0,0.0,0.0,0.0,0.0,0.0,0.0,0.0,0.0,0.0,0.0,0.0,0.0,0.0,0.0,0.0,0.0,0.0,0.0,0.0,0.0,0.0,0.0,0.0,0.0,0.0,0.0,0.0,0.0,0.0,0.0,0.0,0.0,0.0,0.0,0.0,0.0,0.0,0.0,0.0,0.0,0.0,0.0,0.0,0.0,0.0,0.0,0.0,0.0,0.0,0.0,-4.6288,0.0,0.0,0.0,0.0,0.0,0.0,0.0,0.0,0.0,0.0,0.0,0.0,0.0,0.0,0.0,0.0,0.0,0.0,0.0,0.0,0.0,0.0,0.0,0.0,0.0,0.0,0.0,0.0,0.0,0.0,0.0,0.0,0.0,0.0,0.0,0.0,0.0,0.0,0.0,0.0,0.0,0.0,0.0,0.0,0.0,0.0,0.0,0.0,0.0,0.0,0.0,0.0,0.0,0.0,0.0,0.0,0.0,0.0,0.0,0.0,0.0,0.0,0.0,0.0,0.0,0.0,0.0,0.0,0.0,0.0,0.0,0.0,0.0,0.0,0.0,0.0,0.0,0.0,0.0,0.0,0.0,0.0,0.0,0.0,0.0,0.0,0.0,0.0,0.0,0.0,0.0,0.0,0.0,0.0,0.0,0.0,0.0,0.0,0.0,0.0,0.0,0.0,0.0,0.0,0.0,0.0,0.0,0.0,0.0,0.0,-4.6288,-4.6289,-4.6289,-4.6288,-4.6287,0.0,0.0,0.0,0.0,0.0,0.0,0.0,0.0,0.0,0.0,0.0,0.0,0.0,0.0,0.0,0.0,0.0,0.0,0.0,0.0,0.0,0.0,0.0,0.0,0.0,0.0,0.0,0.0,0.0,0.0,0.0,0.0,0.0,0.0,0.0,0.0,0.0,0.0,0.0,0.0,0.0,0.0,0.0,0.0,0.0,0.0,0.0,0.0,0.0,0.0,0.0,0.0,0.0,0.0,0.0,0.0,0.0,0.0,0.0,0.0,0.0,0.0,0.0,0.0,0.0,0.0,0.0,0.0,0.0,0.0,0.0,0.0,0.0,0.0,0.0,0.0,0.0,0.0,0.0,0.0,0.0,0.0,0.0,0.0,0.0,0.0,0.0,0.0,0.0,0.0,0.0,0.0,0.0,0.0,0.0,0.0,0.0,0.0,0.0,0.0,0.0,0.0,0.0,0.0,0.0,0.0,0.0,0.0,0.0,0.0,0.0,0.0,-4.6306,-4.6306,-4.6305,0.0,0.0,0.0,0.0,0.0,0.0,0.0,0.0,0.0,0.0,0.0,0.0,0.0,0.0,0.0,0.0,0.0,0.0,0.0,0.0,0.0,0.0,0.0,0.0,0.0,0.0,0.0,0.0,0.0,0.0,0.0,0.0,0.0,0.0,0.0,0.0,0.0,0.0,0.0,0.0,0.0,0.0,0.0,0.0,0.0,0.0,0.0,0.0,0.0,0.0,0.0,0.0,0.0,0.0,0.0,0.0,0.0,0.0,0.0,0.0,0.0,0.0,0.0,0.0,0.0,0.0,0.0,0.0,0.0,0.0,0.0,0.0,0.0,0.0,0.0,0.0,0.0,0.0,0.0,0.0,0.0,0.0,0.0,0.0,0.0,0.0,0.0,0.0,0.0,0.0,0.0,0.0,0.0,0.0,0.0,0.0,0.0,0.0,0.0,0.0,0.0,0.0,0.0,0.0,0.0,0.0,0.0,0.0,0.0,0.0,-4.6297,-4.6302,-4.6302,0.0,-4.6295,0.0,0.0,0.0,0.0,0.0,0.0,0.0,0.0,0.0,0.0,0.0,0.0,0.0,0.0,0.0,0.0,0.0,0.0,0.0,0.0,0.0,0.0,0.0,0.0,0.0,0.0,0.0,0.0,0.0,0.0,0.0,0.0,0.0,0.0,0.0,0.0,0.0,0.0,0.0,0.0,0.0,0.0,0.0,0.0,0.0,0.0,0.0,0.0,0.0,0.0,0.0,0.0,0.0,0.0,0.0,0.0,0.0,0.0,0.0,0.0,0.0,0.0,0.0,0.0,0.0,0.0,0.0,0.0,0.0,0.0,0.0,0.0,0.0,0.0,0.0,0.0,0.0,0.0,0.0,0.0,0.0,0.0,0.0,0.0,0.0,0.0,0.0,0.0,0.0,0.0,0.0,0.0,0.0,0.0,0.0,0.0,0.0,0.0,0.0,0.0,0.0,0.0,0.0,0.0,0.0,0.0,0.0,0.0,0.0,0.0,-4.6294,-4.6296,-4.6297,-4.6294,0.0,0.0,0.0,0.0,0.0,0.0,0.0,0.0,0.0,0.0,0.0,0.0,0.0,0.0,0.0,0.0,0.0,0.0,0.0,0.0,0.0,0.0,0.0,0.0,0.0,0.0,0.0,0.0,0.0,0.0,0.0,0.0,0.0,0.0,0.0,0.0,0.0,0.0,0.0,0.0,0.0,0.0,0.0,0.0,0.0,0.0,0.0,0.0,0.0,0.0,0.0,0.0,0.0,0.0,0.0,0.0,0.0,0.0,0.0,0.0,0.0,0.0,0.0,0.0,0.0,0.0,0.0,0.0,0.0,0.0,0.0,0.0,0.0,0.0,0.0,0.0,0.0,0.0,0.0,0.0,0.0,0.0,0.0,0.0,0.0,0.0,0.0,0.0,0.0,0.0,0.0,0.0,0.0,0.0,0.0,0.0,0.0,0.0,0.0,0.0,0.0,0.0,0.0,0.0,0.0,0.0,0.0,0.0,0.0,0.0,-4.6306,-4.629,-4.629,-4.629,-4.6287,-4.6302,0.0,0.0,0.0,0.0,0.0,0.0,0.0,0.0,0.0,0.0,0.0,0.0,0.0,0.0,0.0,0.0,0.0,0.0,0.0,0.0,0.0,0.0,0.0,0.0,0.0,0.0,0.0,0.0,0.0,0.0,0.0,0.0,0.0,0.0,0.0,0.0,0.0,0.0,0.0,0.0,0.0,0.0,0.0,0.0,0.0,0.0,0.0,0.0,0.0,0.0,0.0,0.0,0.0,0.0,0.0,0.0,0.0,0.0,0.0,0.0,0.0,0.0,0.0,0.0,0.0,0.0,0.0,0.0,0.0,0.0,0.0,0.0,0.0,0.0,0.0,0.0,0.0,0.0,0.0,0.0,0.0,0.0,0.0,0.0,0.0,0.0,0.0,0.0,0.0,0.0,0.0,0.0,0.0,0.0,0.0,0.0,0.0,0.0,0.0,0.0,0.0,0.0,0.0,0.0,0.0,0.0,0.0,0.0,-4.6302,-4.6302,-4.6302,-4.6302,-4.6302,-4.6302,0.0,0.0,0.0,0.0,0.0,0.0,0.0,0.0,0.0,0.0,0.0,0.0,0.0,0.0,0.0,0.0,0.0,0.0,0.0,0.0,0.0,0.0,0.0,0.0,0.0,0.0,0.0,0.0,0.0,0.0,0.0,0.0,0.0,0.0,0.0,0.0,0.0,0.0,0.0,0.0,0.0,0.0,0.0,0.0,0.0,0.0,0.0,0.0,0.0,0.0,0.0,0.0,0.0,0.0,0.0,0.0,0.0,0.0,0.0,0.0,0.0,0.0,0.0,0.0,0.0,0.0,0.0,0.0,0.0,0.0,0.0,0.0,0.0,0.0,0.0,0.0,0.0,0.0,0.0,0.0,0.0,0.0,0.0,0.0,0.0,0.0,0.0,0.0,0.0,0.0,0.0,0.0,0.0,0.0,0.0,0.0,0.0,0.0,0.0,0.0,0.0,0.0,0.0,0.0,0.0,0.0,0.0,0.0,0.0,-4.6302,-4.6302,-4.6302,-4.6302,-4.6302,-4.6302,0.0,0.0,0.0,0.0,0.0,0.0,0.0,0.0,0.0,0.0,0.0,0.0,0.0,0.0,0.0,0.0,0.0,0.0,0.0,0.0,0.0,0.0,0.0,0.0,0.0,0.0,0.0,0.0,0.0,0.0,0.0,0.0,0.0,0.0,0.0,0.0,0.0,0.0,0.0,0.0,0.0,0.0,0.0,0.0,0.0,0.0,0.0,0.0,0.0,0.0,0.0,0.0,0.0,0.0,0.0,0.0,0.0,0.0,0.0,0.0,0.0,0.0,0.0,0.0,0.0,0.0,0.0,0.0,0.0,0.0,0.0,0.0,0.0,0.0,0.0,0.0,0.0,0.0,0.0,0.0,0.0,0.0,0.0,0.0,0.0,0.0,0.0,0.0,0.0,0.0,0.0,0.0,0.0,0.0,0.0,0.0,0.0,0.0,0.0,0.0,0.0,0.0,0.0,0.0,0.0,0.0,0.0,0.0,0.0,-4.6302,0.0,-4.6302,-4.6302,-4.6302,-4.6302,0.0,0.0,0.0,0.0,0.0,0.0,0.0,0.0,0.0,0.0,0.0,0.0,0.0,0.0,0.0,0.0,0.0,0.0,0.0,0.0,0.0,0.0,0.0,0.0,0.0,0.0,0.0,0.0,0.0,0.0,0.0,0.0,0.0,0.0,0.0,0.0,0.0,0.0,0.0,0.0,0.0,0.0,0.0,0.0,0.0,0.0,0.0,0.0,0.0,0.0,0.0,0.0,0.0,0.0,0.0,0.0,0.0,0.0,0.0,0.0,0.0,0.0,0.0,0.0,0.0,0.0,0.0,0.0,0.0,0.0,0.0,0.0,0.0,0.0,0.0,0.0,0.0,0.0,0.0,0.0,0.0,0.0,0.0,0.0,0.0,0.0,0.0,0.0,0.0,0.0,0.0,0.0,0.0,0.0,0.0,0.0,0.0,0.0,0.0,0.0,0.0,0.0,0.0,0.0,0.0,0.0,0.0,0.0,-4.6302,-4.6302,-4.6302,-4.6302,-4.6302,-4.6302,-4.6302,0.0,0.0,0.0,0.0,0.0,0.0,0.0,0.0,0.0,0.0,0.0,0.0,0.0,0.0,0.0,0.0,0.0,0.0,0.0,0.0,0.0,0.0,0.0,0.0,0.0,0.0,0.0,0.0,0.0,0.0,0.0,0.0,0.0,0.0,0.0,0.0,0.0,0.0,0.0,0.0,0.0,0.0,0.0,0.0,0.0,0.0,0.0,0.0,0.0,0.0,0.0,0.0,0.0,0.0,0.0,0.0,0.0,0.0,0.0,0.0,0.0,0.0,0.0,0.0,0.0,0.0,0.0,0.0,0.0,0.0,0.0,0.0,0.0,0.0,0.0,0.0,0.0,0.0,0.0,0.0,0.0,0.0,0.0,0.0,0.0,0.0,0.0,0.0,0.0,0.0,0.0,0.0,0.0,0.0,0.0,0.0,0.0,0.0,0.0,0.0,0.0,0.0,0.0,0.0,0.0,0.0,0.0,0.0,0.0,-4.6302,-4.6302,-4.6302,-4.6302,-4.6302,-4.6027,0.0,0.0,0.0,0.0,0.0,0.0,0.0,0.0,0.0,0.0,0.0,0.0,0.0,0.0,0.0,0.0,0.0,0.0,0.0,0.0,0.0,0.0,0.0,0.0,0.0,0.0,0.0,0.0,0.0,0.0,0.0,0.0,0.0,0.0,0.0,0.0,0.0,0.0,0.0,0.0,0.0,0.0,0.0,0.0,0.0,0.0,0.0,0.0,0.0,0.0,0.0,0.0,0.0,0.0,0.0,0.0,0.0,0.0,0.0,0.0,0.0,0.0,0.0,0.0,0.0,0.0,0.0,0.0,0.0,0.0,0.0,0.0,0.0,0.0,0.0,0.0,0.0,0.0,0.0,0.0,0.0,0.0,0.0,0.0,0.0,0.0,0.0,0.0,0.0,0.0,0.0,0.0,0.0,0.0,0.0,0.0,0.0,0.0,0.0,0.0,0.0,0.0,0.0,0.0,0.0,0.0,0.0,0.0,0.0,-4.6775,-4.6466,-4.6288,-4.6306,-4.6305,-4.5893,-4.5051,0.0,0.0,0.0,0.0,0.0,0.0,0.0,0.0,0.0,0.0,0.0,0.0,0.0,0.0,0.0,0.0,0.0,0.0,0.0,0.0,0.0,0.0,0.0,0.0,0.0,0.0,0.0,0.0,0.0,0.0,0.0,0.0,0.0,0.0,0.0,0.0,0.0,0.0,0.0,0.0,0.0,0.0,0.0,0.0,0.0,0.0,0.0,0.0,0.0,0.0,0.0,0.0,0.0,0.0,0.0,0.0,0.0,0.0,0.0,0.0,0.0,0.0,0.0,0.0,0.0,0.0,0.0,0.0,0.0,0.0,0.0,0.0,0.0,0.0,0.0,0.0,0.0,0.0,0.0,0.0,0.0,0.0,0.0,0.0,0.0,0.0,0.0,0.0,0.0,0.0,0.0,0.0,0.0,0.0,0.0,0.0,0.0,0.0,0.0,0.0,0.0,0.0,0.0,0.0,0.0,0.0,0.0,0.0,-4.7544,-4.6768,-4.6358,-4.6293,-4.6293,-4.5841,0.0,0.0,0.0,0.0,0.0,0.0,0.0,0.0,0.0,0.0,0.0,0.0,0.0,0.0,0.0,0.0,0.0,0.0,0.0,0.0,0.0,0.0,0.0,0.0,0.0,0.0,0.0,0.0,0.0,0.0,0.0,0.0,0.0,0.0,0.0,0.0,0.0,0.0,0.0,0.0,0.0,0.0,0.0,0.0,0.0,0.0,0.0,0.0,0.0,0.0,0.0,0.0,0.0,0.0,0.0,0.0,0.0,0.0,0.0,0.0,0.0,0.0,0.0,0.0,0.0,0.0,0.0,0.0,0.0,0.0,0.0,0.0,0.0,0.0,0.0,0.0,0.0,0.0,0.0,0.0,0.0,0.0,0.0,0.0,0.0,0.0,0.0,0.0,0.0,0.0,0.0,0.0,0.0,0.0,0.0,0.0,0.0,0.0,0.0,0.0,0.0,0.0,0.0,0.0,0.0,0.0,0.0,0.0,0.0,-4.6691,-4.7048,-4.695,-4.6333,-4.6293,-4.5275,0.0,0.0,0.0,0.0,0.0,0.0,0.0,0.0,0.0,0.0,0.0,0.0,0.0,0.0,0.0,0.0,0.0,0.0,0.0,0.0,0.0,0.0,0.0,0.0,0.0,0.0,0.0,0.0,0.0,0.0,0.0,0.0,0.0,0.0,0.0,0.0,0.0,0.0,0.0,0.0,0.0,0.0,0.0,0.0,0.0,0.0,0.0,0.0,0.0,0.0,0.0,0.0,0.0,0.0,0.0,0.0,0.0,0.0,0.0,0.0,0.0,0.0,0.0,0.0,0.0,0.0,0.0,0.0,0.0,0.0,0.0,0.0,0.0,0.0,0.0,0.0,0.0,0.0,0.0,0.0,0.0,0.0,0.0,0.0,0.0,0.0,0.0,0.0,0.0,0.0,0.0,0.0,0.0,0.0,0.0,0.0,0.0,0.0,0.0,0.0,0.0,0.0,0.0,0.0,0.0,0.0,0.0,0.0,-4.7357,-4.6871,-4.7695,-4.7382,-4.579,-4.5751,-4.4711,0.0,0.0,0.0,0.0,0.0,0.0,0.0,0.0,0.0,0.0,0.0,0.0,0.0,0.0,0.0,0.0,0.0,0.0,0.0,0.0,0.0,0.0,0.0,0.0,0.0,0.0,0.0,0.0,0.0,0.0,0.0,0.0,0.0,0.0,0.0,0.0,0.0,0.0,0.0,0.0,0.0,0.0,0.0,0.0,0.0,0.0,0.0,0.0,0.0,0.0,0.0,0.0,0.0,0.0,0.0,0.0,0.0,0.0,0.0,0.0,0.0,0.0,0.0,0.0,0.0,0.0,0.0,0.0,0.0,0.0,0.0,0.0,0.0,0.0,0.0,0.0,0.0,0.0,0.0,0.0,0.0,0.0,0.0,0.0,0.0,0.0,0.0,0.0,0.0,0.0,0.0,0.0,0.0,0.0,0.0,0.0,0.0,0.0,0.0,0.0,0.0,0.0,0.0,0.0,0.0,0.0,0.0,0.0,-4.7417,-4.7322,-4.8183,-4.7441,-4.5014,-4.4954,-4.4129,0.0,0.0,0.0,0.0,0.0,0.0,0.0,0.0,0.0,0.0,0.0,0.0,0.0,0.0,0.0,0.0,0.0,0.0,0.0,0.0,0.0,0.0,0.0,0.0,0.0,0.0,0.0,0.0,0.0,0.0,0.0,0.0,0.0,0.0,0.0,0.0,0.0,0.0,0.0,0.0,0.0,0.0,0.0,0.0,0.0,0.0,0.0,0.0,0.0,0.0,0.0,0.0,0.0,0.0,0.0,0.0,0.0,0.0,0.0,0.0,0.0,0.0,0.0,0.0,0.0,0.0,0.0,0.0,0.0,0.0,0.0,0.0,0.0,0.0,0.0,0.0,0.0,0.0,0.0,0.0,0.0,0.0,0.0,0.0,0.0,0.0,0.0,0.0,0.0,0.0,0.0,0.0,0.0,0.0,0.0,0.0,0.0,0.0,0.0,0.0,0.0,0.0,0.0,0.0,0.0,0.0,0.0,0.0,-4.6226,-4.5604,-4.6406,-4.5937,-4.4038,-4.4623,-4.3857,0.0,0.0,0.0,0.0,0.0,0.0,0.0,0.0,0.0,0.0,0.0,0.0,0.0,0.0,0.0,0.0,0.0,0.0,0.0,0.0,0.0,0.0,0.0,0.0,0.0,0.0,0.0,0.0,0.0,0.0,0.0,0.0,0.0,0.0,0.0,0.0,0.0,0.0,0.0,0.0,0.0,0.0,0.0,0.0,0.0,0.0,0.0,0.0,-4.032,0.0,0.0,0.0,0.0,0.0,0.0,0.0,0.0,0.0,0.0,0.0,0.0,0.0,0.0,0.0,0.0,0.0,0.0,0.0,0.0,0.0,0.0,0.0,0.0,0.0,0.0,0.0,0.0,0.0,0.0,0.0,0.0,0.0,0.0,0.0,0.0,0.0,0.0,0.0,0.0,0.0,0.0,0.0,0.0,0.0,0.0,0.0,0.0,0.0,0.0,0.0,0.0,0.0,0.0,0.0,0.0,0.0,0.0,0.0,-4.5465,-4.5019,-4.5449,-4.4862,-4.3217,-4.3528,-4.2937,0.0,0.0,0.0,0.0,0.0,0.0,0.0,0.0,0.0,0.0,0.0,0.0,0.0,0.0,0.0,0.0,0.0,0.0,0.0,0.0,0.0,0.0,0.0,0.0,0.0,0.0,0.0,0.0,0.0,0.0,0.0,0.0,0.0,0.0,0.0,0.0,0.0,0.0,0.0,0.0,0.0,0.0,0.0,0.0,0.0,0.0,0.0,0.0,0.0,0.0,0.0,0.0,0.0,0.0,0.0,0.0,0.0,0.0,0.0,0.0,0.0,0.0,0.0,0.0,0.0,0.0,0.0,0.0,0.0,0.0,0.0,0.0,0.0,0.0,0.0,0.0,0.0,0.0,0.0,0.0,0.0,0.0,0.0,0.0,0.0,0.0,0.0,0.0,0.0,0.0,0.0,0.0,0.0,0.0,0.0,0.0,0.0,0.0,0.0,0.0,0.0,0.0,0.0,0.0,0.0,0.0,0.0,-4.4349,-4.4802,-4.4805,-4.4804,-4.4021,-4.2455,-4.2274,-4.1858,-4.1129,0.0,0.0,0.0,0.0,0.0,0.0,0.0,0.0,0.0,0.0,0.0,0.0,0.0,0.0,0.0,0.0,0.0,0.0,0.0,0.0,0.0,0.0,0.0,0.0,0.0,0.0,0.0,0.0,0.0,0.0,0.0,0.0,0.0,0.0,0.0,0.0,0.0,0.0,-4.032,-4.032,0.0,0.0,0.0,0.0,0.0,0.0,0.0,0.0,-4.032,0.0,0.0,0.0,0.0,0.0,0.0,0.0,0.0,0.0,0.0,0.0,0.0,0.0,0.0,0.0,0.0,0.0,0.0,0.0,0.0,0.0,0.0,0.0,0.0,0.0,0.0,0.0,0.0,0.0,0.0,0.0,0.0,0.0,0.0,0.0,0.0,0.0,0.0,0.0,0.0,0.0,0.0,0.0,0.0,0.0,0.0,0.0,0.0,0.0,0.0,0.0,0.0,0.0,0.0,0.0,0.0,-4.2611,-4.3473,-4.3925,-4.3906,-4.3905,-4.3415,-4.2416,-4.1688,-4.1253,-4.1109,0.0,0.0,0.0,0.0,0.0,0.0,0.0,0.0,0.0,0.0,0.0,0.0,0.0,0.0,0.0,0.0,0.0,0.0,0.0,0.0,0.0,0.0,0.0,0.0,0.0,0.0,0.0,0.0,0.0,0.0,0.0,0.0,0.0,0.0,0.0,0.0,0.0,0.0,0.0,-4.032,-4.032,0.0,0.0,0.0,0.0,0.0,0.0,0.0,0.0,-4.032,0.0,0.0,0.0,0.0,0.0,0.0,0.0,0.0,0.0,0.0,0.0,0.0,0.0,0.0,0.0,0.0,0.0,0.0,0.0,0.0,0.0,0.0,0.0,0.0,0.0,0.0,0.0,0.0,0.0,0.0,0.0,0.0,0.0,0.0,0.0,0.0,0.0,0.0,0.0,0.0,0.0,0.0,0.0,0.0,0.0,0.0,0.0,0.0,0.0,0.0,0.0,0.0,0.0,0.0,0.0,-4.2397,-4.3259,-4.3495,-4.3066,-4.3474,-4.3061,-4.1767,-4.1313,-4.1112,0.0,0.0,0.0,0.0,0.0,0.0,0.0,0.0,0.0,0.0,0.0,0.0,0.0,0.0,0.0,0.0,0.0,0.0,0.0,0.0,0.0,0.0,0.0,0.0,0.0,0.0,0.0,0.0,0.0,0.0,0.0,0.0,0.0,0.0,0.0,0.0,0.0,0.0,0.0,0.0,-4.0673,-4.0769,-4.0358,0.0,0.0,0.0,0.0,0.0,0.0,-4.032,-4.032,0.0,0.0,0.0,0.0,0.0,0.0,0.0,0.0,0.0,0.0,0.0,0.0,0.0,0.0,0.0,0.0,0.0,0.0,0.0,0.0,0.0,0.0,0.0,0.0,0.0,0.0,0.0,0.0,0.0,0.0,0.0,0.0,0.0,0.0,0.0,0.0,0.0,0.0,0.0,0.0,0.0,0.0,0.0,0.0,0.0,0.0,0.0,0.0,0.0,0.0,0.0,0.0,0.0,0.0,0.0,-4.2651,-4.3181,-4.3202,-4.2713,-4.316,-4.2688,-4.1159,-4.1114,-4.1109,0.0,0.0,0.0,0.0,0.0,0.0,0.0,0.0,0.0,0.0,0.0,0.0,0.0,0.0,0.0,0.0,0.0,0.0,0.0,0.0,0.0,0.0,0.0,0.0,0.0,0.0,0.0,0.0,0.0,0.0,0.0,0.0,0.0,0.0,0.0,0.0,0.0,0.0,0.0,0.0,0.0,-4.1189,-4.0425,-4.0998,0.0,0.0,0.0,0.0,-4.054,-4.0683,0.0,0.0,0.0,0.0,0.0,0.0,0.0,0.0,0.0,0.0,0.0,0.0,0.0,0.0,0.0,0.0,0.0,0.0,0.0,0.0,0.0,0.0,0.0,0.0,0.0,0.0,0.0,0.0,0.0,0.0,0.0,0.0,0.0,0.0,0.0,0.0,0.0,0.0,0.0,0.0,0.0,0.0,0.0,0.0,0.0,0.0,0.0,0.0,0.0,0.0,0.0,0.0,0.0,0.0,0.0,0.0,-4.3455,-4.289,-4.2871,-4.3496,-4.2888,-4.2084,-4.1126,-4.1116,-4.1109,0.0,0.0,0.0,0.0,0.0,0.0,0.0,0.0,0.0,0.0,0.0,0.0,0.0,0.0,0.0,0.0,0.0,0.0,0.0,0.0,0.0,0.0,0.0,0.0,0.0,0.0,0.0,0.0,0.0,0.0,0.0,0.0,0.0,0.0,0.0,0.0,0.0,0.0,0.0,0.0,0.0,-4.1208,-4.0396,-4.0979,-4.1208,0.0,0.0,-4.1342,-4.1361,-4.2011,0.0,0.0,0.0,0.0,0.0,0.0,0.0,0.0,0.0,0.0,0.0,0.0,0.0,0.0,0.0,0.0,0.0,0.0,0.0,0.0,0.0,0.0,0.0,0.0,0.0,0.0,0.0,0.0,0.0,0.0,0.0,0.0,0.0,0.0,0.0,0.0,0.0,0.0,0.0,0.0,0.0,0.0,0.0,0.0,0.0,0.0,0.0,0.0,0.0,0.0,0.0,0.0,0.0,0.0,0.0,-4.1481,-4.2185,-4.2343,-4.2324,-4.2226,-4.2342,-4.1986,-4.1142,-4.1117,-4.1112,0.0,0.0,0.0,0.0,0.0,0.0,0.0,0.0,0.0,0.0,0.0,0.0,0.0,0.0,0.0,0.0,0.0,0.0,0.0,0.0,0.0,0.0,0.0,0.0,0.0,0.0,0.0,0.0,0.0,0.0,0.0,0.0,0.0,0.0,0.0,0.0,0.0,0.0,0.0,0.0,0.0,0.0,-4.1094,-4.2087,0.0,0.0,0.0,-4.224,-4.2221,0.0,0.0,0.0,0.0,0.0,0.0,0.0,0.0,0.0,0.0,0.0,0.0,0.0,0.0,0.0,0.0,0.0,0.0,0.0,0.0,0.0,0.0,0.0,0.0,0.0,0.0,0.0,0.0,0.0,0.0,0.0,0.0,0.0,0.0,0.0,0.0,0.0,0.0,0.0,0.0,0.0,0.0,0.0,0.0,0.0,0.0,0.0,0.0,0.0,0.0,0.0,0.0,0.0,0.0,0.0,0.0,0.0,-4.1425,-4.1855,-4.1875,-4.1444,-4.1854,-4.1773,-4.114,-4.1101,0.0,0.0,0.0,0.0,0.0,0.0,0.0,0.0,0.0,0.0,0.0,0.0,0.0,0.0,0.0,0.0,0.0,0.0,0.0,0.0,0.0,0.0,0.0,0.0,0.0,0.0,0.0,-4.032,0.0,0.0,0.0,0.0,0.0,0.0,0.0,0.0,0.0,0.0,0.0,0.0,0.0,0.0,-4.2469,-4.1609,-4.2928,-4.372,0.0,0.0,-4.31,-4.31,-4.3291,-4.3061,0.0,0.0,0.0,0.0,0.0,0.0,0.0,0.0,0.0,0.0,0.0,0.0,0.0,0.0,0.0,0.0,0.0,0.0,0.0,0.0,0.0,0.0,0.0,0.0,0.0,0.0,0.0,0.0,0.0,0.0,0.0,0.0,0.0,0.0,0.0,0.0,0.0,0.0,0.0,0.0,0.0,0.0,0.0,0.0,0.0,0.0,0.0,0.0,0.0,0.0,0.0,0.0,0.0,0.0,0.0,-4.2266,-4.1621,-4.1621,-4.2246,-4.1581,-4.1169,-4.1107,-4.1107,-4.1102,0.0,0.0,0.0,0.0,0.0,0.0,0.0,0.0,0.0,0.0,0.0,0.0,0.0,0.0,0.0,0.0,0.0,0.0,0.0,0.0,0.0,0.0,0.0,0.0,0.0,0.0,0.0,0.0,0.0,0.0,0.0,0.0,0.0,0.0,0.0,0.0,0.0,0.0,0.0,0.0,0.0,-4.2488,-4.1619,-4.2947,-4.372,0.0,0.0,-4.393,-4.3911,-4.4609,-4.4571,-4.2966,0.0,0.0,0.0,0.0,0.0,0.0,0.0,0.0,0.0,0.0,0.0,0.0,0.0,0.0,0.0,0.0,0.0,0.0,0.0,0.0,0.0,0.0,0.0,0.0,0.0,0.0,0.0,0.0,0.0,0.0,0.0,0.0,0.0,0.0,0.0,0.0,0.0,0.0,0.0,0.0,0.0,0.0,0.0,0.0,0.0,0.0,0.0,0.0,0.0,0.0,0.0,0.0,0.0,-4.1308,-4.1641,-4.1367,-4.1348,-4.1641,-4.1328,-4.1132,-4.111,-4.111,-4.1107,0.0,0.0,0.0,0.0,0.0,0.0,0.0,0.0,0.0,0.0,0.0,0.0,0.0,0.0,0.0,0.0,0.0,0.0,0.0,0.0,0.0,0.0,0.0,0.0,0.0,0.0,0.0,0.0,-4.032,-4.032,-4.032,0.0,0.0,0.0,0.0,0.0,0.0,0.0,0.0,0.0,0.0,-4.266,-4.2354,-4.373,0.0,0.0,-4.459,-4.48,-4.48,-4.5086,-4.4723,-4.308,-4.2723,0.0,0.0,0.0,0.0,0.0,0.0,0.0,0.0,0.0,0.0,0.0,0.0,0.0,0.0,0.0,0.0,0.0,0.0,0.0,0.0,0.0,0.0,0.0,0.0,0.0,0.0,0.0,0.0,0.0,0.0,0.0,0.0,0.0,0.0,0.0,0.0,0.0,0.0,0.0,0.0,0.0,0.0,0.0,0.0,0.0,0.0,0.0,0.0,0.0,0.0,0.0,0.0,-4.1191,-4.1191,-4.1191,-4.1191,-4.1191,-4.1191,-4.1172,-4.1111,-4.1112,-4.113,0.0,0.0,0.0,0.0,0.0,0.0,0.0,0.0,0.0,0.0,0.0,0.0,0.0,0.0,0.0,0.0,0.0,0.0,0.0,0.0,0.0,0.0,0.0,0.0,0.0,0.0,0.0,0.0,-4.032,-4.032,-4.032,0.0,0.0,0.0,0.0,0.0,0.0,0.0,0.0,0.0,0.0,-4.2507,-4.2775,-4.4017,-4.501,-4.5269,-4.5277,-4.5277,-4.5277,-4.5277,-4.4723,-4.3061,0.0,0.0,0.0,0.0,0.0,0.0,0.0,0.0,0.0,0.0,0.0,0.0,0.0,0.0,0.0,0.0,0.0,0.0,0.0,0.0,0.0,0.0,0.0,0.0,0.0,0.0,0.0,0.0,0.0,0.0,-4.2539,0.0,0.0,0.0,0.0,0.0,0.0,0.0,0.0,0.0,0.0,0.0,0.0,0.0,0.0,0.0,0.0,0.0,0.0,0.0,0.0,0.0,0.0,-4.1211,-4.1211,-4.1211,-4.1191,-4.1191,-4.1191,-4.1172,-4.1112,-4.1172,-4.1171,-4.1108,0.0,0.0,0.0,0.0,0.0,0.0,0.0,0.0,0.0,0.0,0.0,0.0,0.0,0.0,0.0,0.0,0.0,0.0,0.0,0.0,0.0,0.0,0.0,0.0,0.0,0.0,-4.031,-4.032,-4.032,0.0,0.0,0.0,0.0,0.0,0.0,0.0,0.0,0.0,0.0,-4.0998,-4.1858,-4.2698,-4.351,-4.4418,-4.5201,-4.5297,-4.5297,-4.5316,-4.5297,-4.4753,0.0,0.0,0.0,0.0,0.0,0.0,0.0,0.0,0.0,0.0,0.0,0.0,0.0,0.0,0.0,0.0,0.0,0.0,0.0,0.0,0.0,0.0,0.0,0.0,0.0,0.0,0.0,-4.4038,-4.4587,0.0,0.0,0.0,0.0,0.0,0.0,0.0,0.0,0.0,0.0,0.0,-4.8027,-4.8047,0.0,0.0,0.0,0.0,0.0,0.0,0.0,0.0,0.0,0.0,0.0,0.0,-4.2012,-4.1973,-4.1465,-4.1191,-4.1191,-4.1191,-4.1191,-4.1172,-4.1191,-4.1172,-4.111,0.0,0.0,0.0,0.0,0.0,0.0,0.0,0.0,0.0,0.0,0.0,0.0,0.0,0.0,0.0,0.0,0.0,0.0,0.0,0.0,0.0,0.0,0.0,0.0,0.0,-4.0353,0.0,0.0,0.0,0.0,0.0,0.0,0.0,0.0,0.0,0.0,0.0,-4.0492,-4.1036,-4.182,-4.2679,-4.3472,-4.4322,-4.5163,0.0,0.0,0.0,0.0,0.0,0.0,0.0,0.0,0.0,0.0,0.0,0.0,0.0,0.0,-4.0597,-3.9688,-3.9887,-4.0171,-4.0049,0.0,0.0,0.0,0.0,0.0,0.0,0.0,0.0,0.0,0.0,0.0,0.0,0.0,0.0,-4.4683,0.0,-4.5251,0.0,0.0,0.0,0.0,0.0,0.0,0.0,0.0,-4.7519,-4.8379,-4.8906,-4.9199,-4.9355,0.0,-4.9043,-4.7734,0.0,0.0,0.0,0.0,0.0,0.0,0.0,0.0,-4.2266,-4.1973,-4.1465,-4.1191,-4.1191,-4.1191,-4.1191,-4.1191,-4.1191,-4.1172,-4.1111,-4.1106,-4.1101,0.0,0.0,0.0,0.0,0.0,0.0,0.0,0.0,0.0,0.0,0.0,0.0,0.0,0.0,0.0,0.0,0.0,0.0,0.0,0.0,0.0,0.0,0.0,-4.0342,0.0,0.0,0.0,0.0,0.0,0.0,0.0,0.0,0.0,-4.0339,-4.0559,-4.0922,-4.1437,-4.2259,-4.31,-4.3892,0.0,0.0,0.0,0.0,0.0,0.0,0.0,-4.4989,-4.4048,-4.3879,-4.3569,-4.2647,-4.2635,-4.2661,-4.2586,0.0,0.0,-4.052,-4.0583,-4.0835,-4.0725,-4.0942,-4.1089,-4.1009,-4.0773,-4.0564,0.0,0.0,0.0,0.0,0.0,0.0,0.0,0.0,-4.3785,-4.337,0.0,-4.3531,0.0,0.0,0.0,0.0,0.0,-4.6328,0.0,0.0,-4.9707,-5.0469,-4.9121,-4.9844,-5.0234,-5.0195,-4.9394,-4.8984,-4.8808,-4.6367,0.0,0.0,0.0,0.0,0.0,0.0,-4.2012,-4.1308,-4.123,-4.1191,-4.1191,-4.1191,-4.1191,-4.1191,-4.1191,-4.1172,-4.1112,-4.1109,-4.1105,-4.1099,-4.1112,0.0,0.0,0.0,0.0,0.0,0.0,0.0,0.0,0.0,0.0,0.0,0.0,0.0,0.0,0.0,0.0,0.0,0.0,0.0,0.0,-4.0388,0.0,0.0,0.0,0.0,0.0,0.0,0.0,0.0,0.0,0.0,-4.053,-4.1074,-4.1552,-4.1609,0.0,0.0,0.0,0.0,-4.4369,-4.5239,-4.5316,-4.5286,-4.5271,-4.5284,-4.4989,-4.4094,0.0,0.0,-4.2557,-4.3032,-4.3504,-4.3444,-4.4001,-4.397,-4.2048,-4.1586,-4.1456,-4.1362,-4.1445,-4.1191,-4.1023,-4.1283,-4.1087,-4.6717,0.0,0.0,0.0,0.0,-4.3456,-4.4248,-4.5387,-4.5404,-4.5284,-4.5106,-4.5351,0.0,0.0,0.0,0.0,0.0,0.0,-4.7207,-4.8164,-4.916,-4.998,-5.0703,-5.0937,-5.1055,-5.1055,-5.0801,-5.0683,-5.0586,-4.873,-4.7148,-4.5918,0.0,0.0,0.0,0.0,-4.2285,-4.2031,-4.1484,-4.1191,-4.1191,-4.1191,-4.1191,-4.1191,-4.1191,-4.1191,-4.1172,-4.1131,-4.111,-4.1109,-4.1101,0.0,0.0,0.0,0.0,0.0,0.0,0.0,0.0,0.0,0.0,0.0,0.0,0.0,0.0,0.0,0.0,0.0,0.0,0.0,-4.0491,-4.0405,-4.0342,0.0,0.0,0.0,0.0,0.0,0.0,0.0,0.0,0.0,-4.2049,-4.2278,-4.2641,0.0,0.0,-4.3978,-4.48,-4.4934,-4.522,-4.6042,-4.566,0.0,0.0,-4.5584,-4.506,-4.4745,-4.4583,-4.4367,-4.4007,-4.4176,-4.4301,-4.4199,-4.4195,-4.4046,-4.3599,-4.3975,-4.4337,-4.4416,-4.4709,-4.4876,-4.4626,-4.4453,-4.4236,-4.8121,-4.5444,-4.6183,-4.6329,-4.6089,-4.604,-4.6633,-4.7579,-4.7225,-4.6755,-4.6236,-4.6569,-4.5787,-4.4257,-4.4941,0.0,0.0,0.0,-4.8574,-4.9883,-4.9883,-5.043,-5.1348,-5.1074,-5.0937,-5.0898,-5.0566,-5.0234,-4.9863,-4.8164,-4.6641,-4.5312,0.0,0.0,-4.4199,-4.334,-4.2754,-4.2383,-4.1601,-4.1191,-4.1191,-4.1191,-4.1191,-4.1191,-4.1191,-4.1191,-4.1191,-4.1132,-4.1111,-4.111,-4.1103,-4.1117,0.0,0.0,0.0,0.0,0.0,0.0,0.0,0.0,0.0,0.0,0.0,-4.0471,-4.0898,0.0,0.0,0.0,-4.0602,-4.0554,-4.0491,-4.0441,0.0,0.0,0.0,0.0,0.0,0.0,0.0,-4.1466,-4.2068,-4.2679,-4.3214,-4.3558,-4.3845,-4.3987,-4.4303,-4.4704,-4.5231,0.0,-4.5479,-4.5965,-4.557,-4.5374,-4.5829,-4.5396,-4.4979,-4.4895,-4.4808,-4.4706,-4.4597,-4.4837,-4.5062,-4.5003,-4.504,-4.5093,-4.5093,-4.555,-4.574,-4.5332,-4.5795,-4.6148,-4.5847,-4.5698,-4.5526,-4.8794,-4.8937,-5.0605,-5.0734,-4.9891,-4.9815,-4.9769,-4.9734,-4.8912,-4.7778,-4.6481,-4.7249,-4.6721,-4.5311,-4.6875,0.0,-4.8848,-4.9766,-5.0527,-5.1211,-5.1269,-5.1269,-5.1152,-5.0449,-5.0058,-4.998,-4.9238,-4.8398,-4.748,-4.5996,-4.4766,-4.3965,-4.5508,-4.5762,-4.4707,-4.3887,-4.3105,-4.2305,-4.1582,-4.1191,-4.1191,-4.1191,-4.1191,-4.1191,-4.1191,-4.1191,-4.1191,-4.121,-4.1208,-4.1206,-4.126,-4.1272,-4.1208,0.0,0.0,0.0,0.0,0.0,0.0,0.0,0.0,0.0,0.0,0.0,0.0,0.0,0.0,0.0,-4.0561,0.0,-4.0502,-4.0432,0.0,0.0,0.0,-4.0406,-4.0377,-4.1113,-4.1628,-4.1686,0.0,0.0,-4.4083,-4.48,-4.501,-4.4197,-4.4819,-4.5277,-4.5277,-4.5362,-4.5382,-4.5466,-4.5303,-4.5163,-4.525,-4.5045,-4.4852,-4.4706,-4.4667,-4.4632,-4.4561,-4.504,-4.5528,-4.551,-4.6027,-4.632,-4.636,-4.6071,-4.5748,-4.4729,-4.5334,-4.5882,-4.5633,-4.5626,-4.5715,-5.1667,-5.069,-5.1798,-5.0982,-4.8955,-4.8918,-4.8911,-4.8872,-4.8697,-4.844,-4.8193,-4.841,-4.7937,-4.7011,-4.7422,-4.7715,-4.7988,-4.9512,-4.9941,-4.9551,-5.0176,-5.0137,-4.9492,-4.9297,-4.8848,-4.8281,-4.8672,-4.8125,-4.668,-4.6855,-4.6543,-4.5742,-4.6094,-4.4902,-4.2187,-4.1894,-4.1699,-4.1484,-4.1308,-4.1191,-4.1191,-4.1191,-4.1191,-4.1191,-4.1191,-4.1191,-4.1211,-4.1777,-4.209,-4.2089,-4.273,-4.2784,-4.212,-4.2716,0.0,0.0,0.0,0.0,0.0,0.0,0.0,0.0,0.0,-4.0993,-4.0925,0.0,-4.0858,0.0,-4.0571,-4.0465,-4.0432,-4.0415,0.0,0.0,-4.0855,-4.1208,-4.1227,-4.1972,-4.2717,-4.3338,-4.3758,-4.4236,-4.4895,-4.5173,-4.5231,-4.501,-4.5163,-4.5277,-4.5297,-4.5745,-4.6077,-4.602,-4.5889,-4.5842,-4.5741,-4.5218,-4.4712,-4.4565,-4.4556,-4.4542,-4.4496,-4.4651,-4.4796,-4.4782,-4.4703,-4.4717,-4.4758,-4.4999,-4.5084,-4.4729,-4.5828,-4.6911,-4.6613,-4.6955,-4.735,-5.1954,-5.1261,-5.1835,-5.1199,-4.9829,-4.9384,-4.9214,-4.9184,-4.8785,-4.8474,-4.8253,-4.8253,-4.8024,-4.7656,-4.8418,-4.875,-4.8867,-5.0137,-5.0469,-5.0039,-5.0508,-5.0488,-5.0,-4.9629,-4.9023,-4.8183,-4.8281,-4.7422,-4.582,-4.6191,-4.6016,-4.5156,-4.5137,-4.4004,-4.1855,-4.2109,-4.2109,-4.1738,-4.1387,-4.1191,-4.1191,-4.1191,-4.1191,-4.1191,-4.1543,-4.1738,-4.1738,-4.2539,-4.2969,-4.3006,-4.3432,-4.3468,-4.3015,-4.3417,-4.3489,0.0,0.0,0.0,0.0,0.0,0.0,0.0,0.0,0.0,0.0,0.0,-4.079,-4.0666,-4.0565,-4.0625,-4.0933,-4.0964,-4.1053,-4.139,-4.18,-4.2087,-4.2068,-4.2832,-4.3501,-4.3949,-4.4341,-4.4762,-4.522,-4.5277,-4.5277,-4.5277,-4.5277,-4.5277,-4.5305,-4.557,-4.5757,-4.5745,-4.5602,-4.5445,-4.5398,-4.4955,-4.4578,-4.451,-4.4482,-4.4482,-4.4482,-4.4482,-4.4482,-4.4487,-4.4292,-4.4091,-4.4109,-4.4241,-4.4345,-4.4408,-4.5289,-4.6286,-4.6664,-4.7075,-4.7415,-5.1332,-5.1366,-5.151,-5.1503,-5.1328,-5.0452,-5.0065,-4.9967,-4.9025,-4.83,-4.7754,-4.7656,-4.7617,-4.7676,-4.9082,-4.9766,-4.9902,-5.0703,-5.1094,-5.1074,-5.1191,-5.1191,-5.1055,-5.0371,-4.957,-4.873,-4.8066,-4.6797,-4.5039,-4.5117,-4.4726,-4.3906,-4.3867,-4.3476,-4.2812,-4.3496,-4.3398,-4.2402,-4.1699,-4.1308,-4.1191,-4.1308,-4.1308,-4.125,-4.1992,-4.2383,-4.2422,-4.334,-4.3866,-4.3861,-4.3977,-4.3914,-4.3726,-4.3803,-4.3762,0.0,-4.3627,0.0,0.0,0.0,0.0,0.0,0.0,0.0,0.0,-4.1071,-4.1048,-4.093,-4.0857,-4.1099,-4.1785,-4.1808,-4.2049,-4.2717,-4.2889,-4.2947,-4.2985,-4.3673,-4.4159,-4.4178,-4.4838,-4.5277,-4.5277,-4.5277,-4.5277,-4.5277,-4.5277,-4.5277,-4.5286,-4.5333,-4.5377,-4.5224,-4.4985,-4.4947,-4.4669,-4.4533,-4.4496,-4.4496,-4.4482,-4.4482,-4.4482,-4.4482,-4.4482,-4.4468,-4.4273,-4.4106,-4.4091,-4.3857,-4.3682,-4.3686,-4.4223,-4.4984,-4.5927,-4.6315,-4.6654,-5.2714,-5.213,-5.2349,-5.2047,-5.1385,-5.1188,-5.0738,-5.0096,-4.9215,-4.8768,-4.8594,-4.791,-4.7617,-4.7578,-4.7207,-4.7422,-4.8144,-4.8984,-4.9375,-4.9414,-5.0098,-5.0039,-4.9375,-4.9219,-4.8691,-4.791,-4.8398,-4.7383,-4.5019,-4.5703,-4.5605,-4.4766,-4.4746,-4.4668,-4.4531,0.0,0.0,0.0,-4.2246,-4.1855,-4.125,-4.1836,-4.1855,-4.125,-4.1992,0.0,-4.2441,-4.3906,-4.4765,-4.4763,-4.5424,0.0,0.0,0.0,0.0,0.0,0.0,0.0,0.0,0.0,0.0,0.0,-4.2979,-4.2651,-4.1956,-4.2351,-4.2668,-4.2611,-4.2569,-4.2558,-4.2668,-4.2613,-4.2642,-4.2804,-4.3386,-4.3777,-4.3796,-4.4532,-4.5048,-4.5059,-4.5201,-4.5277,-4.5277,-4.5277,-4.5297,-4.5297,-4.5297,-4.5277,-4.5277,-4.5684,-4.5988,-4.5899,-4.5555,-4.5233,-4.4608,-4.4482,-4.4482,-4.4482,-4.4482,-4.4482,-4.4482,-4.4482,-4.4482,-4.4501,-4.4292,-4.4106,-4.4091,-4.371,-4.3425,-4.3372,-4.3342,-4.3578,-4.4655,-4.5404,-4.602,-5.3349,0.0,-5.3223,-5.3082,0.0,-5.2226,-5.1816,-5.1367,-5.0508,-4.9902,-4.9492,-4.8633,-4.8242,-4.8242,-4.8242,-4.8457,-4.8926,-4.9746,-5.0137,-5.0156,-5.0586,-5.0566,-5.0137,-5.0137,-4.9473,-4.8281,-4.8691,-4.7773,-4.5742,-4.6074,-4.6074,-4.5625,-4.5644,-4.543,-4.5,-4.457,-4.3926,-4.3047,-4.3027,-4.2851,-4.248,-4.2832,-4.2656,-4.1855,0.0,0.0,0.0,0.0,0.0,0.0,0.0,0.0,0.0,0.0,0.0,-4.3761,-4.4504,-4.4797,-4.4387,-4.4343,-4.4102,-4.356,-4.3791,-4.3568,-4.2673,-4.2903,-4.3099,-4.3099,-4.3041,-4.3143,-4.3548,-4.3513,-4.3627,-4.4048,-4.4419,-4.4647,-4.4685,-4.5029,-4.5277,-4.5277,-4.5277,-4.5277,-4.5277,-4.566,-4.5698,-4.5392,-4.564,-4.5717,-4.5382,-4.5543,-4.5641,-4.5439,-4.5315,-4.5049,-4.4622,-4.4482,-4.4482,-4.4482,-4.4482,-4.4482,-4.4482,-4.4482,-4.4482,-4.4501,-4.4397,-4.4258,-4.4106,-4.3873,-4.3644,-4.351,-4.339,-4.3377,-4.3888,-4.4436,-4.5123,-5.4012,-5.4076,-5.4326,-5.4447,-5.4394,-5.3691,-5.3398,-5.3301,0.0,0.0,0.0,-4.9512,-4.9141,-4.918,-4.9707,-5.0039,-5.0254,-5.0898,-5.1269,-5.1387,-5.1387,-5.1387,-5.1387,-5.1387,-5.0664,-4.9375,-4.9336,-4.8535,-4.7012,-4.6836,-4.668,-4.6543,-4.6387,-4.5937,-4.5215,-4.4531,-4.416,-4.4141,-4.4004,-4.3848,-4.3711,-4.3848,-4.3457,-4.2422,-4.3242,-4.3281,-4.2441,-4.3242,-4.371,-4.3705,-4.3704,-4.3621,-4.3513,-4.4153,-4.4463,-4.4346,-4.4972,-4.507,-4.4387,-4.4445,-4.4246,-4.3529,-4.3972,-4.3986,-4.3335,-4.3456,-4.3547,-4.3547,-4.3475,-4.3756,-4.4438,-4.4403,-4.4613,-4.5321,-4.5338,-4.5277,-4.5277,-4.5277,-4.5277,-4.5297,-4.543,-4.5449,-4.5354,-4.5965,-4.6194,-4.5602,-4.5946,-4.6309,-4.5649,-4.5333,-4.5121,-4.4921,-4.4845,-4.4678,-4.4565,-4.4515,-4.4515,-4.4482,-4.4482,-4.4482,-4.4482,-4.4482,-4.4482,-4.4482,-4.4482,-4.4364,-4.417,-4.4014,-4.3936,-4.366,-4.3579,-4.3494,-4.3322,-4.3577,-4.4133,-5.5637,-5.5759,-5.5981,-5.6135,-5.6225,-5.6113,-5.6035,-5.5781,-5.2754,-5.1328,-5.1191,-5.0371,-5.0019,-4.998,-4.9375,-4.9492,-5.0195,-5.0312,-5.0742,0.0,-5.1387,-5.1387,-5.1387,-5.1387,-5.1269,-5.1055,-5.1055,-5.0566,-4.9648,-4.8867,-4.8164,-4.7402,-4.666,-4.625,-4.6113,-4.5996,-4.5937,-4.5918,-4.5215,-4.4453,-4.373,-4.4433,-4.4043,-4.2539,-4.3262,-4.3281,-4.2441,-4.3223,-4.3711,-4.3709,-4.3706,-4.3369,-4.264,-4.2711,-4.2435,-4.1734,-4.1773,-4.1773,-4.1714,-4.2337,-4.2963,-4.3364,-4.3336,-4.3514,-4.4102,-4.4825,-4.5248,-4.522,-4.5031,-4.5196,-4.5322,-4.5199,-4.5178,-4.5331,-4.5338,-4.5277,-4.5335,-4.5335,-4.5373,-4.543,-4.5927,-4.6061,-4.5621,-4.6118,-4.6328,-4.566,-4.5946,-4.6405,-4.6126,-4.5619,-4.516,-4.5033,-4.4865,-4.4725,-4.4659,-4.4565,-4.451,-4.4482,-4.4482,-4.4482,-4.4482,-4.4482,-4.4482,-4.4482,-4.4482,-4.4378,-4.4155,-4.3905,-4.3728,-4.3477,-4.3285,-4.3087,-4.305,-4.3139,-4.3391,-5.607,-5.6191,-5.6407,-5.6543,-5.6617,-5.6621,-5.6621,-5.6465,-5.4941,-5.3945,-5.3457,-5.2617,-5.2012,-5.1543,-5.1152,-5.0918,-5.084,-5.084,-5.1035,-5.1387,-5.1387,-5.1387,-5.1387,-5.1387,-5.1152,-5.0781,-5.0762,-5.0312,-4.9512,-4.9082,-4.8711,-4.8281,-4.7891,-4.7695,-4.7715,-4.7715,-4.748,-4.7012,-4.6152,-4.5527,-4.5117,-4.5508,-4.5098,-4.3848,-4.4219,-4.4004,-4.3144,-4.3027,-4.3007,-4.2984,-4.2553,-4.2099,-4.174,-4.2144,-4.222,-4.1849,-4.2241,-4.2515,-4.2515,-4.2777,-4.3054,-4.3255,-4.3168,-4.3258,-4.3605,-4.4008,-4.4239,-4.4239,-4.4203,-4.4194,-4.4205,-4.4527,-4.4758,-4.4739,-4.5061,-4.5479,-4.587,-4.5946,-4.6137,-4.6596,-4.6978,-4.7073,-4.6691,-4.7398,-4.736,-4.6271,-4.6003,-4.587,-4.587,-4.5521,-4.52,-4.5095,-4.4998,-4.4865,-4.4738,-4.4659,-4.4578,-4.451,-4.4482,-4.4482,-4.4482,-4.4482,-4.4482,-4.4482,-4.4482,-4.4397,-4.4155,-4.3999,-4.3791,-4.3579,-4.3442,-4.3338,-4.332,-4.3232,-4.3341,-5.6077,-5.6197,-5.641,-5.6528,-5.66,-5.6621,-5.6621,-5.6621,-5.6582,-5.623,-5.5527,-5.4668,-5.3906,-5.3301,-5.3086,-5.2617,-5.2031,-5.1777,-5.168,-5.168,-5.1484,-5.1387,-5.1387,-5.1387,-5.1074,-5.0527,-5.0469,-5.0137,-4.9512,-4.9297,-4.9082,-4.8926,-4.8887,-4.8887,-4.8887,-4.8691,-4.8281,-4.7598,-4.6758,-4.6289,-4.6289,-4.6289,-4.5898,-4.5098,-4.5,-4.459,-4.373,-4.3047,-4.2695,-4.2671,-4.2045,-4.1767,-4.1971,-4.2241,-4.2494,-4.2708,-4.2942,-4.3115,-4.3084,-4.2922,-4.2759,-4.2647,-4.2572,-4.2585,-4.2777,-4.2816,-4.2893,-4.3047,-4.3162,-4.3143,-4.3252,-4.3806,-4.4183,-4.4231,-4.4842,-4.5488,-4.6099,-4.6233,-4.6462,-4.7131,-4.754,-4.7731,-4.7704,-4.8258,-4.8086,-4.671,-4.5812,-4.5383,-4.5507,-4.5449,-4.5265,-4.517,-4.5125,-4.5033,-4.4808,-4.4738,-4.4659,-4.4551,-4.4528,-4.4515,-4.4482,-4.4482,-4.4482,-4.4482,-4.4482,-4.4397,-4.417,-4.4091,-4.3968,-4.3744,-4.3646,-4.3662,-4.3646,-4.3528,-4.3432,-5.5917,-5.6117,-5.6222,-5.6377,-5.6601,-5.6621,-5.6621,-5.6621,-5.6621,-5.6582,-5.6348,-5.5566,-5.5137,-5.4961,-5.4219,-5.3808,-5.3613,-5.293,-5.2558,-5.2461,-5.1758,-5.1387,-5.1406,-5.1387,-5.1367,-5.1269,-5.125,-5.1152,-5.0996,-5.0391,-4.9687,-4.8984,-4.8887,-4.8945,-4.8848,-4.8183,-4.7715,-4.7598,-4.6738,-4.6289,-4.6289,-4.6289,-4.5879,-4.5039,-4.5019,-4.459,-4.3867,-4.3633,-4.3593,-4.3572,-4.3491,-4.3799,-4.4358,-4.3258,-4.2767,-4.3469,-4.2222,-4.1308,-4.1318,-4.112,-4.1198,-4.0938,-4.1094,-4.1324,-4.197,-4.1981,-4.2297,-4.2893,-4.3085,-4.3069,-4.3073,-4.373,-4.4173,-4.4173,-4.4841,-4.5316,-4.5488,-4.5411,-4.546,-4.5488,-4.7016,-4.7532,-4.7062,-4.754,-4.7589,-4.6787,-4.5965,-4.564,-4.608,-4.5679,-4.5297,-4.5265,-4.5181,-4.5084,-4.5014,-4.4833,-4.4751,-4.4685,-4.4578,-4.4542,-4.4528,-4.4496,-4.4482,-4.4482,-4.4482,-4.4411,-4.4248,-4.4091,-4.4048,-4.3908,-4.3793,-4.3728,-4.3695,-4.3679,-4.3586,-5.6682,-5.6834,-5.6461,-5.6419,-5.6601,-5.6621,-5.6621,-5.6621,-5.6621,-5.6621,-5.6582,-5.6211,-5.5801,-5.5273,-5.4922,-5.4492,-5.3984,-5.3633,-5.3183,-5.2715,-5.2305,-5.1914,-5.1426,-5.1387,-5.1387,-5.1387,-5.1387,-5.1387,-5.1348,-5.1055,-5.0723,-5.041,-5.0371,-5.0371,-5.0351,-5.0019,-4.9609,-4.916,-4.8769,-4.8359,-4.7832,-4.7324,-4.666,-4.5976,-4.6758,-4.6621,-4.541,-4.5234,-4.5253,-4.5172,-4.4252,-4.4345,-4.5682,-4.4603,-4.4094,-4.4367,-4.3333,-4.2809,-4.3205,-4.3194,-4.3325,-4.366,-4.3657,-4.3578,-4.3294,-4.3278,-4.3278,-4.3085,-4.3104,-4.3077,-4.3137,-4.3739,-4.4183,-4.4269,-4.4851,-4.5468,-4.5984,-4.5984,-4.6156,-4.671,-4.7349,-4.7674,-4.7387,-4.7578,-4.7635,-4.7226,-4.6519,-4.6137,-4.6405,-4.5831,-4.5354,-4.5297,-4.5235,-4.52,-4.5114,-4.5014,-4.4926,-4.4808,-4.4712,-4.4619,-4.4605,-4.4556,-4.4482,-4.4496,-4.4482,-4.4468,-4.4383,-4.4354,-4.431,-4.4158,-4.4158,-4.4143,-4.3986,-4.3936,-4.3742,-5.7453,-5.7313,-5.6718,-5.6504,-5.6601,-5.6621,-5.6621,-5.6621,-5.6621,-5.6621,-5.6621,-5.6621,-5.625,-5.5703,-5.5664,-5.5312,-5.4746,-5.4473,-5.4023,-5.3398,-5.2949,-5.2383,-5.1777,-5.1484,-5.1387,-5.1387,-5.1387,-5.1387,-5.1387,-5.1387,-5.1387,-5.1387,-5.1387,-5.1387,-5.1367,-5.1211,-5.0801,-5.0215,-4.998,-4.9531,-4.8906,-4.8516,-4.7891,-4.7226,-4.8223,-4.8301,-4.709,-4.7012,-4.7011,-4.6986,-4.5793,-4.5787,-4.718,-4.6085,-4.5148,-4.4719,-4.4524,-4.4508,-4.4806,-4.4803,-4.4984,-4.5357,-4.5259,-4.488,-4.4443,-4.4316,-4.4182,-4.3951,-4.3778,-4.3712,-4.3139,-4.373,-4.4164,-4.4183,-4.4822,-4.5545,-4.6042,-4.6175,-4.6328,-4.6997,-4.7131,-4.7425,-4.7444,-4.7387,-4.7283,-4.694,-4.65,-4.6309,-4.6385,-4.6042,-4.5736,-4.5927,-4.6003,-4.5742,-4.5303,-4.5114,-4.5057,-4.4986,-4.4852,-4.4745,-4.4732,-4.4646,-4.4551,-4.4592,-4.4537,-4.4482,-4.4454,-4.4487,-4.4487,-4.4501,-4.4454,-4.4397,-4.4248,-4.4214,-4.4121,-5.7921,-5.7372,-5.6821,-5.6636,-5.6621,-5.6621,-5.6621,-5.6621,-5.6621,-5.6621,-5.6621,-5.6621,-5.6582,-5.6484,-5.6465,-5.6504,-5.6328,-5.5586,-5.5176,-5.4883,-5.3516,-5.2715,-5.2578,-5.1816,-5.1406,-5.1406,-5.1387,-5.1387,-5.1387,-5.1387,-5.1387,-5.1387,-5.1387,-5.1387,-5.1308,-5.0742,-5.0273,-5.0234,-4.959,-4.9062,-4.9082,-4.9707,-4.9609,-4.8887,-4.8906,-4.8926,-4.8711,-4.875,-4.8769,-4.8762,-4.8527,-4.8931,-4.96,-4.7627,-4.5656,-4.4387,-4.5363,-4.5816,-4.515,-4.5063,-4.5012,-4.4711,-4.4408,-4.3772,-4.4515,-4.4566,-4.4759,-4.5364,-4.5287,-4.4694,-4.3452,-4.3904,-4.425,-4.42,-4.481,-4.5277,-4.5373,-4.5468,-4.5354,-4.5621,-4.6175,-4.6519,-4.6557,-4.6547,-4.6347,-4.5908,-4.5498,-4.5698,-4.6309,-4.6405,-4.6557,-4.7054,-4.7215,-4.7081,-4.5687,-4.5603,-4.543,-4.5308,-4.534,-4.5015,-4.4871,-4.4802,-4.4807,-4.4729,-4.4761,-4.4706,-4.4566,-4.4482,-4.4468,-4.4454,-4.444,-4.4378,-4.4364,-4.4454,-4.4378,-5.9234,-5.8184,-5.766,-5.744,-5.7363,-5.6855,-5.6621,-5.6621,-5.6621,-5.6621,-5.6621,-5.6621,-5.6621,-5.6621,-5.6621,-5.6621,-5.6562,-5.625,-5.584,-5.5293,-5.4648,-5.3789,-5.2715,-5.2363,-5.1894,-5.1445,-5.1387,-5.1387,-5.1387,-5.1387,-5.1387,-5.1387,-5.1387,-5.1387,-5.1348,-5.1113,-5.0976,-5.0937,-5.0625,-5.0488,-5.0469,-5.082,-5.0801,-5.0527,-5.0488,-5.0,-4.8926,-4.9414,-4.9726,-4.968,-4.9192,-4.9517,-5.0615,-4.954,-4.8484,-4.7881,-4.7861,-4.7973,-4.8096,-4.7665,-4.7535,-4.7792,-4.7092,-4.6241,-4.6039,-4.5951,-4.5893,-4.5691,-4.5594,-4.5175,-4.4852,-4.4834,-4.495,-4.4948,-4.5107,-4.5277,-4.5277,-4.5277,-4.5277,-4.5335,-4.5602,-4.5717,-4.5889,-4.6175,-4.6366,-4.6156,-4.6061,-4.6156,-4.6271,-4.6099,-4.5965,-4.6118,-4.6214,-4.6194,-4.629,-4.6582,-4.6748,-4.6382,-4.6203,-4.6133,-4.5998,-4.6114,-4.6152,-4.5551,-4.5383,-4.5218,-4.512,-4.4531,-4.4508,-4.4538,-4.4505,-4.435,-4.4454,-4.4454,-4.4468,-6.0384,-5.9457,-5.8621,-5.8299,-5.8203,-5.7383,-5.7012,-5.6973,-5.6719,-5.6621,-5.6621,-5.6621,-5.6621,-5.6621,-5.6621,-5.6621,-5.6621,-5.6601,-5.6269,-5.5742,-5.543,-5.4687,-5.3652,-5.3262,-5.2656,-5.1875,-5.1504,-5.1387,-5.1387,-5.1387,-5.1387,-5.1387,-5.1387,-5.1387,-5.1387,-5.1387,-5.1387,-5.1387,-5.1387,-5.1387,-5.1387,-5.1387,-5.1387,-5.1387,-5.1387,-5.0898,-4.9766,-5.0273,-5.0566,-5.0442,-4.9992,-5.0104,-5.083,-5.0709,-5.0241,-4.9733,-4.9677,-4.9735,-4.9967,-4.956,-4.936,-4.9687,-4.8696,-4.7695,-4.6966,-4.6644,-4.6182,-4.5748,-4.5594,-4.5568,-4.5485,-4.54,-4.54,-4.5408,-4.5338,-4.5297,-4.5277,-4.5277,-4.5277,-4.5277,-4.5316,-4.5316,-4.5335,-4.5774,-4.6003,-4.6099,-4.6118,-4.6175,-4.6328,-4.608,-4.5851,-4.6061,-4.6328,-4.6615,-4.6787,-4.7223,-4.7059,-4.6705,-4.6579,-4.6706,-4.6717,-4.6946,-4.7024,-4.643,-4.6086,-4.5903,-4.5458,-4.4797,-4.4614,-4.4662,-4.4408,-4.4185,-4.4292,-4.4397,-4.4411,-6.1239,-6.095,-5.9702,-5.9196,-5.9082,-5.8281,-5.791,-5.7695,-5.707,-5.6855,-5.6816,-5.6738,-5.6875,-5.6699,-5.6875,-5.6719,-5.6621,-5.6797,-5.6719,-5.6426,-5.582,-5.539,-5.5019,-5.4433,-5.3613,-5.2715,-5.1894,-5.1504,-5.1523,-5.1523,-5.1504,-5.1406,-5.1484,-5.1562,-5.1445,-5.1601,-5.1562,-5.1621,-5.1621,-5.1504,-5.1406,-5.1426,-5.1387,-5.1387,-5.1387,-5.1348,-5.1269,-5.1308,-5.1288,-5.1302,-5.1281,-5.0963,-5.0498,-5.0906,-5.0653,-4.9638,-5.0457,-5.0848,-5.026,-5.0065,-4.9887,-4.9644,-4.828,-4.7333,-4.6896,-4.6259,-4.5825,-4.5787,-4.5643,-4.5578,-4.5515,-4.5544,-4.5496,-4.5408,-4.5404,-4.543,-4.5316,-4.5277,-4.5277,-4.5277,-4.5277,-4.5277,-4.5277,-4.5392,-4.5468,-4.5468,-4.5468,-4.566,-4.6156,-4.6156,-4.6748,-4.7226,-4.6978,-4.6691,-4.7234,-4.7693,-4.7196,-4.6757,-4.6738,-4.6735,-4.6522,-4.6626,-4.7177,-4.6821,-4.6636,-4.6436,-4.5831,-4.5202,-4.4867,-4.4804,-4.4432,-4.4085,-4.414,-4.4248,-4.4321,-6.2639,-6.2021,-6.1244,-6.0543,-5.9961,-5.914,-5.8476,-5.7988,-5.8203,-5.8047,-5.7676,-5.8125,-5.8086,-5.7734,-5.8066,-5.7734,-5.6758,-5.7734,-5.7754,-5.6836,-5.6933,-5.6426,-5.5566,-5.5644,-5.5019,-5.3769,-5.334,-5.2871,-5.2383,-5.2305,-5.2031,-5.1601,-5.2012,-5.2285,-5.2324,-5.2871,-5.3183,-5.3105,-5.2598,-5.2305,-5.2226,-5.1699,-5.1406,-5.1387,-5.1387,-5.1387,-5.1387,-5.1387,-5.1387,-5.1399,-5.1398,-5.1275,-5.1105,-5.1258,-5.1141,-5.075,-5.1043,-5.1316,-5.0984,-5.0414,-5.0043,-4.9654,-4.8721,-4.7753,-4.7032,-4.6663,-4.6451,-4.6394,-4.599,-4.576,-4.6215,-4.6321,-4.6061,-4.5415,-4.5804,-4.5889,-4.5449,-4.5335,-4.5277,-4.5277,-4.5277,-4.5277,-4.5277,-4.5277,-4.5277,-4.5277,-4.5277,-4.5468,-4.5621,-4.5755,-4.5698,-4.6042,-4.6118,-4.6462,-4.6748,-4.692,-4.6672,-4.6577,-4.6691,-4.6519,-4.6337,-4.6563,-4.7079,-4.73,-4.7119,-4.6774,-4.6151,-4.5552,-4.5086,-4.4726,-4.4311,-4.4114,-4.4058,-4.4109,-4.4229,-6.3891,-6.3364,-6.2486,-6.1845,-6.123,-6.0176,-5.9336,-5.8887,-5.9062,-5.8887,-5.8574,-5.8945,-5.8906,-5.8555,-5.8965,-5.8594,-5.7754,-5.875,-5.8613,-5.7754,-5.8086,-5.7715,-5.6777,-5.6914,-5.6387,-5.5117,-5.4629,-5.4023,-5.3223,-5.3183,-5.291,-5.2578,-5.293,-5.3183,-5.3223,-5.3691,-5.3984,-5.3906,-5.3457,-5.3027,-5.2656,-5.2168,-5.1719,-5.1465,-5.1387,-5.1387,-5.1387,-5.1387,-5.1386,-5.1399,-5.1395,-5.1387,-5.1396,-5.1394,-5.1394,-5.1394,-5.1394,-5.1394,-5.1336,-5.0885,-5.0488,-5.0174,-4.946,-4.8684,-4.7895,-4.7432,-4.6904,-4.6797,-4.6432,-4.6299,-4.6704,-4.7079,-4.6855,-4.6381,-4.6702,-4.6596,-4.5946,-4.5736,-4.5545,-4.543,-4.5277,-4.5277,-4.5277,-4.5277,-4.5277,-4.5277,-4.5277,-4.5277,-4.5277,-4.5316,-4.5316,-4.5316,-4.5488,-4.5793,-4.6003,-4.6061,-4.6061,-4.629,-4.6577,-4.629,-4.6023,-4.6642,-4.7209,-4.7324,-4.7243,-4.6986,-4.6427,-4.5372,-4.4704,-4.4424,-4.4286,-4.3919,-4.3793,-4.4094,-4.4214,-6.4959,-6.4908,-6.3505,-6.2859,-6.2656,-6.1172,-6.0371,-6.0215,-5.9746,-5.9414,-5.9297,-5.9492,-5.9414,-5.9316,-5.9492,-5.9375,-5.9219,-5.9453,-5.9453,-5.9258,-5.9336,-5.9219,-5.8926,-5.8281,-5.7441,-5.6562,-5.5859,-5.5,-5.4101,-5.4082,-5.4023,-5.3828,-5.3926,-5.4062,-5.4121,-5.4121,-5.4355,-5.4394,-5.418,-5.3691,-5.3027,-5.2676,-5.2324,-5.1562,-5.1445,-5.1387,-5.1387,-5.1387,-5.1386,-5.1398,-5.1387,-5.1396,-5.1394,-5.1394,-5.1394,-5.1394,-5.1394,-5.1394,-5.1394,-5.1297,-5.1177,-5.0894,-5.0281,-4.9711,-4.9127,-4.8066,-4.7365,-4.7336,-4.7077,-4.7001,-4.7204,-4.7654,-4.7987,-4.8031,-4.7783,-4.7341,-4.6699,-4.6538,-4.6061,-4.5468,-4.5277,-4.5335,-4.543,-4.5468,-4.5449,-4.5488,-4.5545,-4.5698,-4.5335,-4.5354,-4.5354,-4.5316,-4.5297,-4.5392,-4.5679,-4.5679,-4.5679,-4.5812,-4.6118,-4.5965,-4.5851,-4.6481,-4.7005,-4.7151,-4.7226,-4.6984,-4.649,-4.5411,-4.4875,-4.4833,-4.443,-4.3781,-4.371,-4.406,-4.4277,-6.5502,-6.5005,-6.4086,-6.3421,-6.289,-6.1797,-6.0976,-6.0527,-6.0879,-6.0586,-6.0312,-6.0762,-6.0605,-6.0176,-6.0723,-6.041,-5.9765,-6.0469,-6.0644,-6.0273,-6.0781,-6.0605,-6.0019,-5.9258,-5.8418,-5.7656,-5.7265,-5.6426,-5.5058,-5.498,-5.4648,-5.4043,-5.4707,-5.4961,-5.5,-5.5527,-5.5898,-5.5801,-5.5215,-5.4863,-5.4414,-5.332,-5.2617,-5.2363,-5.1758,-5.1445,-5.1406,-5.1385,-5.1401,-5.1398,-5.1384,-5.1394,-5.1394,-5.1394,-5.1394,-5.1394,-5.1394,-5.1394,-5.1394,-5.1394,-5.1302,-5.1159,-5.082,-5.0358,-4.9598,-4.9073,-4.8759,-4.8625,-4.8231,-4.801,-4.85,-4.8786,-4.9097,-4.9411,-4.8651,-4.7807,-4.7387,-4.6863,-4.6194,-4.5468,-4.5316,-4.566,-4.5965,-4.6175,-4.6175,-4.629,-4.6462,-4.6557,-4.5851,-4.566,-4.5736,-4.5392,-4.5277,-4.5277,-4.5335,-4.5335,-4.5354,-4.5392,-4.5526,-4.5564,-4.566,-4.6099,-4.647,-4.6721,-4.6782,-4.6643,-4.6204,-4.5454,-4.5319,-4.5034,-4.4575,-4.3952,-4.4014,-4.4244,-4.4364,-6.5858,-6.5421,-6.436,-6.3748,-6.3327,-6.2206,-6.1406,-6.1113,-6.1445,-6.1445,-6.1133,-6.1445,-6.1426,-6.1035,-6.1465,-6.1191,-6.0469,-6.125,-6.1387,-6.1113,-6.1426,-6.1367,-6.0898,-6.0371,-5.9785,-5.8965,-5.8594,-5.7676,-5.6543,-5.6055,-5.5547,-5.5312,-5.5605,-5.584,-5.5879,-5.6289,-5.6621,-5.6504,-5.6055,-5.5703,-5.5215,-5.4336,-5.3379,-5.2871,-5.2168,-5.1836,-5.1484,-5.1384,-5.1398,-5.1396,-5.1385,-5.1394,-5.1394,-5.1394,-5.1394,-5.1394,-5.1394,-5.1394,-5.1394,-5.1394,-5.1333,-5.1207,-5.1093,-5.0739,-5.0167,-4.9744,-4.9413,-4.9279,-4.8875,-4.8942,-4.925,-4.9574,-4.9901,-5.0073,-4.9435,-4.8563,-4.7952,-4.7723,-4.6825,-4.6003,-4.5908,-4.629,-4.6577,-4.6787,-4.6986,-4.7024,-4.6959,-4.6634,-4.6099,-4.6118,-4.5946,-4.5507,-4.5277,-4.5277,-4.5277,-4.5277,-4.5277,-4.5297,-4.5297,-4.5297,-4.5449,-4.5755,-4.587,-4.6113,-4.6259,-4.6221,-4.5747,-4.5351,-4.5059,-4.474,-4.443,-4.4345,-4.4374,-4.4331,-4.4435,-6.5981,-6.5837,-6.4391,-6.3842,-6.3653,-6.2355,-6.166,-6.168,-6.168,-6.1699,-6.164,-6.168,-6.166,-6.1699,-6.166,-6.166,-6.1621,-6.1621,-6.166,-6.1601,-6.1699,-6.1621,-6.1562,-6.1445,-6.0918,-6.0137,-5.9551,-5.8652,-5.7617,-5.6894,-5.6601,-5.6367,-5.6465,-5.6562,-5.6465,-5.6562,-5.6601,-5.6621,-5.6523,-5.6152,-5.5644,-5.5156,-5.4414,-5.3437,-5.2734,-5.2148,-5.1601,-5.1384,-5.1398,-5.1398,-5.1385,-5.1396,-5.1394,-5.1394,-5.1394,-5.1394,-5.1394,-5.1394,-5.1394,-5.1392,-5.136,-5.1245,-5.1099,-5.0991,-5.0715,-5.0132,-4.972,-4.9692,-4.9548,-4.9586,-4.9673,-5.0141,-5.0355,-5.0374,-5.0241,-4.953,-4.8544,-4.8621,-4.8143,-4.6042,-4.6997,-4.7226,-4.7169,-4.7311,-4.7845,-4.7073,-4.7131,-4.7035,-4.6424,-4.6042,-4.5793,-4.5392,-4.5277,-4.5277,-4.5277,-4.5277,-4.5277,-4.5297,-4.5297,-4.5277,-4.5277,-4.543,-4.5373,-4.5464,-4.5749,-4.5681,-4.5314,-4.4978,-4.4815,-4.4751,-4.4642,-4.4616,-4.4576,-4.4481,-4.4513,-6.56,-6.4995,-6.4039,-6.3417,-6.2942,-6.2059,-6.1652,-6.1699,-6.1699,-6.1699,-6.1699,-6.1699,-6.1699,-6.1699,-6.1699,-6.1699,-6.1699,-6.1699,-6.1699,-6.1699,-6.1699,-6.1699,-6.1699,-6.1699,-6.123,-6.0449,-5.9609,-5.8769,-5.791,-5.7187,-5.6621,-5.6621,-5.6621,-5.6621,-5.6621,-5.6621,-5.6621,-5.6621,-5.6621,-5.6523,-5.6191,-5.5664,-5.5156,-5.4492,-5.3379,-5.2285,-5.1601,-5.1384,-5.1398,-5.1396,-5.1385,-5.1394,-5.1394,-5.1394,-5.1394,-5.1394,-5.1394,-5.1394,-5.1394,-5.1394,-5.139,-5.1333,-5.1211,-5.1113,-5.0997,-5.0731,-5.0482,-5.0432,-5.0414,-5.0308,-5.0287,-5.0449,-5.0521,-5.0446,-5.0352,-4.9985,-4.9129,-4.8995,-4.8487,-4.7685,-4.7532,-4.7731,-4.7578,-4.822,-4.8181,-4.7322,-4.715,-4.7352,-4.6787,-4.6042,-4.566,-4.5316,-4.5277,-4.5277,-4.5277,-4.5277,-4.5277,-4.5277,-4.5277,-4.5277,-4.5277,-4.5277,-4.5277,-4.5277,-4.5343,-4.5184,-4.5087,-4.514,-4.5091,-4.4984,-4.4893,-4.4876,-4.4802,-4.4687,-4.4568,-6.5454,-6.4632,-6.3903,-6.3208,-6.2549,-6.1794,-6.1532,-6.1648,-6.1652,-6.1657,-6.1699,-6.1699,-6.1699,-6.1699,-6.1699,-6.1699,-6.1699,-6.1699,-6.1699,-6.1699,-6.1699,-6.1699,-6.1699,-6.1699,-6.1406,-6.0879,-6.0176,-5.9336,-5.8496,-5.7637,-5.7031,-5.6621,-5.6621,-5.6621,-5.6621,-5.6621,-5.6621,-5.6621,-5.6621,-5.6621,-5.6484,-5.6191,-5.5625,-5.5058,-5.3672,-5.2422,-5.207,-5.1579,-5.1438,-5.1395,-5.1385,-5.1394,-5.1394,-5.1394,-5.1394,-5.1394,-5.1394,-5.1394,-5.1394,-5.1394,-5.1394,-5.1392,-5.1284,-5.1141,-5.1014,-5.0925,-5.0841,-5.073,-5.0664,-5.0673,-5.0663,-5.0603,-5.0562,-5.05,-5.0435,-5.0191,-4.9813,-4.9675,-4.9137,-4.838,-4.8495,-4.864,-4.8831,-4.8984,-4.8831,-4.8105,-4.6863,-4.6959,-4.6672,-4.5984,-4.564,-4.5383,-4.5316,-4.5277,-4.5277,-4.5277,-4.5277,-4.5277,-4.5277,-4.5277,-4.5277,-4.5277,-4.5277,-4.5277,-4.5277,-4.5277,-4.5235,-4.5297,-4.5297,-4.5184,-4.5106,-4.5103,-4.5026,-4.49,-4.4764,-6.5235,-6.4345,-6.3648,-6.2924,-6.2175,-6.1564,-6.1387,-6.1549,-6.1583,-6.1626,-6.168,-6.1699,-6.1699,-6.1699,-6.1699,-6.1699,-6.1699,-6.1699,-6.1699,-6.1699,-6.1699,-6.1699,-6.1699,-6.1699,-6.166,-6.1601,-6.0723,-5.9902,-5.9101,-5.832,-5.7344,-5.6758,-5.6621,-5.6621,-5.6621,-5.6621,-5.6621,-5.6621,-5.6621,-5.6621,-5.6621,-5.6504,-5.6094,-5.5137,-5.418,-5.3047,-5.2598,-5.2029,-5.1574,-5.1417,-5.1385,-5.1396,-5.1394,-5.1394,-5.1394,-5.1394,-5.1394,-5.1394,-5.1394,-5.1394,-5.1394,-5.1392,-5.13,-5.1187,-5.1072,-5.0953,-5.0887,-5.0794,-5.0731,-5.0683,-5.0683,-5.0653,-5.0613,-5.0563,-5.0478,-5.0435,-5.0412,-5.0329,-4.9561,-4.8877,-4.9156,-4.9461,-4.9289,-4.9251,-4.9129,-4.8766,-4.7474,-4.6519,-4.6252,-4.5946,-4.5575,-4.5383,-4.5316,-4.5277,-4.5277,-4.5277,-4.5277,-4.5277,-4.5277,-4.5277,-4.5277,-4.5277,-4.5277,-4.5277,-4.5277,-4.5277,-4.5277,-4.5297,-4.5297,-4.5277,-4.5256,-4.5203,-4.5159,-4.5106,-4.4955,-6.4332,-6.3455,-6.2675,-6.1949,-6.1367,-6.1232,-6.1285,-6.1439,-6.154,-6.1588,-6.1639,-6.168,-6.1699,-6.1699,-6.1699,-6.1699,-6.1699,-6.1699,-6.1699,-6.1699,-6.1699,-6.1699,-6.1699,-6.1699,-6.1699,-6.1484,-6.0879,-6.0098,-5.9258,-5.832,-5.7617,-5.6836,-5.6621,-5.6621,-5.6621,-5.6621,-5.6621,-5.6621,-5.6621,-5.6621,-5.6621,-5.6562,-5.6269,-5.5469,-5.4844,-5.4082,-5.3027,-5.2575,-5.214,-5.1495,-5.1405,-5.1396,-5.1394,-5.1394,-5.1394,-5.1394,-5.1394,-5.1394,-5.1394,-5.1394,-5.1394,-5.1392,-5.1364,-5.1313,-5.1178,-5.1061,-5.0972,-5.0866,-5.0758,-5.0683,-5.0683,-5.0673,-5.0653,-5.0613,-5.0563,-5.0521,-5.0489,-5.0377,-5.0264,-4.9725,-4.9981,-5.0111,-4.9767,-4.9358,-4.9014,-4.8575,-4.7581,-4.6634,-4.6156,-4.5823,-4.5422,-4.5326,-4.5297,-4.5277,-4.5277,-4.5277,-4.5277,-4.5277,-4.5277,-4.5277,-4.5277,-4.5277,-4.5277,-4.5277,-4.5277,-4.5277,-4.5277,-4.5277,-4.5277,-4.5277,-4.5297,-4.5297,-4.5235,-4.5181,-4.5057,-6.3435,-6.2647,-6.2259,-6.1679,-6.109,-6.105,-6.1178,-6.1298,-6.1402,-6.1506,-6.1579,-6.1626,-6.1677,-6.1699,-6.1699,-6.1699,-6.1699,-6.1699,-6.1699,-6.1699,-6.1699,-6.1699,-6.1699,-6.1699,-6.1699,-6.1601,-6.1211,-6.0605,-5.9805,-5.9004,-5.8086,-5.7344,-5.6875,-5.6621,-5.6621,-5.6621,-5.6621,-5.6621,-5.6621,-5.6621,-5.6621,-5.6621,-5.6308,-5.6035,-5.5527,-5.4863,-5.418,-5.2967,-5.2554,-5.2101,-5.1663,-5.1459,-5.1396,-5.1394,-5.1394,-5.1394,-5.1394,-5.1394,-5.1394,-5.1394,-5.1394,-5.1394,-5.1394,-5.133,-5.1241,-5.1132,-5.1053,-5.0905,-5.0775,-5.0683,-5.0683,-5.0683,-5.0673,-5.0673,-5.0623,-5.0593,-5.0562,-5.0489,-5.0446,-5.0412,-5.0352,-5.0214,-4.997,-4.9511,-4.8949,-4.828,-4.7565,-4.6846,-4.6148,-4.571,-4.5348,-4.5328,-4.5309,-4.5328,-4.5328,-4.5317,-4.5288,-4.5277,-4.5277,-4.5277,-4.5277,-4.5277,-4.5277,-4.5277,-4.5277,-4.5277,-4.5277,-4.5277,-4.5277,-4.5277,-4.5297,-4.5297,-4.5286,-4.5243,-4.5114,-6.2685,-6.2101,-6.1908,-6.147,-6.0949,-6.0985,-6.1061,-6.1162,-6.1269,-6.139,-6.1524,-6.1579,-6.1624,-6.166,-6.1699,-6.1699,-6.1699,-6.1699,-6.1699,-6.1699,-6.1699,-6.1699,-6.1699,-6.1699,-6.1699,-6.1699,-6.1621,-6.125,-6.0312,-5.9492,-5.8711,-5.7812,-5.7012,-5.6621,-5.6621,-5.6621,-5.6621,-5.6621,-5.6621,-5.6621,-5.6621,-5.6621,-5.6621,-5.6601,-5.5918,-5.5488,-5.498,-5.408,-5.3141,-5.2629,-5.2094,-5.1618,-5.1435,-5.1394,-5.1394,-5.1394,-5.1394,-5.1394,-5.1394,-5.1394,-5.1394,-5.1394,-5.1394,-5.1333,-5.1255,-5.1183,-5.1067,-5.0913,-5.0794,-5.0693,-5.0683,-5.0683,-5.0683,-5.0702,-5.0663,-5.0632,-5.0603,-5.0563,-5.0521,-5.0489,-5.0457,-5.0358,-5.0152,-4.9586,-4.9034,-4.8441,-4.7714,-4.691,-4.624,-4.5695,-4.538,-4.535,-4.5359,-4.5369,-4.5359,-4.5348,-4.5309,-4.5288,-4.5277,-4.5277,-4.5277,-4.5277,-4.5277,-4.5277,-4.5277,-4.5277,-4.5277,-4.5277,-4.5277,-4.5277,-4.5277,-4.5297,-4.5297,-4.5275,-4.5181,-6.2178,-6.2024,-6.1293,-6.0931,-6.0911,-6.0965,-6.1,-6.1051,-6.1202,-6.1297,-6.1367,-6.151,-6.1601,-6.1642,-6.1698,-6.1699,-6.1699,-6.1699,-6.1699,-6.1699,-6.1699,-6.1699,-6.1699,-6.1699,-6.1699,-6.1699,-6.1699,-6.1191,-6.0527,-5.9726,-5.8828,-5.7988,-5.7246,-5.6621,-5.6621,-5.6621,-5.6621,-5.6621,-5.6621,-5.6621,-5.6621,-5.6621,-5.6621,-5.6562,-5.6406,-5.6055,-5.5508,-5.4842,-5.4252,-5.298,-5.2676,-5.214,-5.157,-5.1394,-5.1394,-5.1394,-5.1394,-5.1394,-5.1394,-5.1394,-5.1394,-5.1394,-5.1394,-5.139,-5.1325,-5.1159,-5.1027,-5.0925,-5.0803,-5.0721,-5.0693,-5.0683,-5.0683,-5.0683,-5.0673,-5.0663,-5.0663,-5.0633,-5.0584,-5.0593,-5.0562,-5.0521,-5.0423,-4.9742,-4.9079,-4.8485,-4.7834,-4.698,-4.6272,-4.5707,-4.5438,-4.5409,-4.538,-4.539,-4.5389,-4.5379,-4.5338,-4.5298,-4.5307,-4.5297,-4.5277,-4.5277,-4.5277,-4.5277,-4.5277,-4.5277,-4.5277,-4.5277,-4.5277,-4.5277,-4.5277,-4.5277,-4.5277,-4.5256,-4.5235,-6.1358,-6.132,-6.0966,-6.0823,-6.0877,-6.0955,-6.1008,-6.1031,-6.1134,-6.124,-6.129,-6.1379,-6.1491,-6.1586,-6.1677,-6.1699,-6.1699,-6.1699,-6.1699,-6.1699,-6.1699,-6.1699,-6.1699,-6.1699,-6.1699,-6.1699,-6.1699,-6.1621,-6.0918,-6.0273,-5.9433,-5.8633,-5.7754,-5.7051,-5.6738,-5.6621,-5.6621,-5.6621,-5.6621,-5.6621,-5.6621,-5.6621,-5.6621,-5.6621,-5.6621,-5.6348,-5.6035,-5.5468,-5.5055,-5.3997,-5.3423,-5.2557,-5.2101,-5.1726,-5.1394,-5.1394,-5.1394,-5.1394,-5.1394,-5.1394,-5.1394,-5.1394,-5.1394,-5.1392,-5.134,-5.1218,-5.1053,-5.0972,-5.0879,-5.0803,-5.0721,-5.0693,-5.0683,-5.0683,-5.0683,-5.0683,-5.0683,-5.0673,-5.0653,-5.0653,-5.0673,-5.0623,-5.0401,-4.9651,-4.892,-4.8258,-4.751,-4.6628,-4.6043,-4.5592,-4.5438,-4.5467,-4.5438,-4.541,-4.5409,-4.539,-4.5359,-4.5328,-4.5307,-4.5307,-4.5297,-4.5277,-4.5277,-4.5277,-4.5277,-4.5277,-4.5277,-4.5277,-4.5277,-4.5277,-4.5277,-4.5277,-4.5277,-4.5297,-4.5235,-6.08,-6.08,-6.08,-6.08,-6.0812,-6.0933,-6.0976,-6.1008,-6.106,-6.1152,-6.1244,-6.1324,-6.1451,-6.1581,-6.168,-6.1699,-6.1699,-6.1699,-6.1699,-6.1699,-6.1699,-6.1699,-6.1699,-6.1699,-6.1699,-6.1699,-6.1699,-6.166,-6.1465,-6.0996,-6.0312,-5.9473,-5.8281,-5.7617,-5.7051,-5.6738,-5.6621,-5.6621,-5.6621,-5.6621,-5.6621,-5.6621,-5.6621,-5.6621,-5.6621,-5.6601,-5.6504,-5.6074,-5.5643,-5.4936,-5.4189,-5.3458,-5.3018,-5.2312,-5.1882,-5.1765,-5.1648,-5.1394,-5.1394,-5.1394,-5.1394,-5.1394,-5.1394,-5.1394,-5.1388,-5.1284,-5.1163,-5.1053,-5.0937,-5.0858,-5.0776,-5.074,-5.0683,-5.0683,-5.0683,-5.0683,-5.0683,-5.0673,-5.0673,-5.0673,-5.0673,-5.0673,-5.0307,-4.95,-4.8759,-4.8048,-4.7223,-4.6292,-4.586,-4.5477,-4.5476,-4.5513,-4.5504,-4.5467,-4.5438,-4.5419,-4.5389,-4.5338,-4.5337,-4.5326,-4.5307,-4.5297,-4.5277,-4.5277,-4.5277,-4.5277,-4.5277,-4.5277,-4.5277,-4.5277,-4.5277,-4.5277,-4.5277,-4.5277,-4.5246,-6.08,-6.08,-6.08,-6.08,-6.0793,-6.0888,-6.0944,-6.0997,-6.1001,-6.1051,-6.115,-6.1311,-6.1467,-6.1583,-6.166,-6.1699,-6.1699,-6.1699,-6.1699,-6.1699,-6.1699,-6.1699,-6.1699,-6.1699,-6.1699,-6.1699,-6.1699,-6.1699,-6.1699,-6.1562,-6.0976,-6.0234,-5.9004,-5.8183,-5.75,-5.6953,-5.664,-5.6621,-5.6621,-5.6621,-5.6621,-5.6621,-5.6621,-5.6621,-5.6621,-5.6601,-5.6582,-5.6425,-5.611,-5.5461,-5.4969,-5.4512,-5.3858,-5.2917,-5.245,-5.2273,-5.1707,-5.1453,-5.1394,-5.1394,-5.1394,-5.1394,-5.1394,-5.1394,-5.1392,-5.1288,-5.1203,-5.1155,-5.1029,-5.092,-5.0858,-5.0803,-5.073,-5.0683,-5.0683,-5.0683,-5.0683,-5.0683,-5.0683,-5.0683,-5.0683,-5.0683,-5.0164,-4.9356,-4.8731,-4.803,-4.679,-4.5858,-4.5809,-4.5531,-4.5559,-4.5577,-4.5577,-4.555,-4.5495,-4.5467,-4.539,-4.5359,-4.5338,-4.5337,-4.5326,-4.5307,-4.5297,-4.5277,-4.5277,-4.5277,-4.5277,-4.5277,-4.5277,-4.5277,-4.5277,-4.5277,-4.5277,-4.5277,-4.5235,-6.08,-6.08,-6.08,-6.08,-6.0793,-6.0888,-6.0944,-6.0997,-6.1001,-6.1051,-6.1098,-6.1304,-6.1431,-6.1511,-6.164,-6.1699,-6.1699,-6.1699,-6.1699,-6.1699,-6.1699,-6.1699,-6.1699,-6.1699,-6.1699,-6.1699,-6.1699,-6.1699,-6.1699,-6.1699,-6.1582,-6.084,-5.9883,-5.8828,-5.8027,-5.7109,-5.6699,-5.6621,-5.6621,-5.6621,-5.6621,-5.6621,-5.6621,-5.6621,-5.6621,-5.6621,-5.6601,-5.6601,-5.6383,-5.6046,-5.5592,-5.5153,-5.4598,-5.3465,-5.2841,-5.2626,-5.1863,-5.1472,-5.1394,-5.1394,-5.1394,-5.1394,-5.1394,-5.1394,-5.1394,-5.1335,-5.1281,-5.1199,-5.1138,-5.1035,-5.0902,-5.085,-5.081,-5.0721,-5.0683,-5.0683,-5.0683,-5.0683,-5.0683,-5.0683,-5.0683,-5.0683,-4.9971,-4.9183,-4.8615,-4.7981,-4.6644,-4.5594,-4.5594,-4.5594,-4.5594,-4.5586,-4.5577,-4.555,-4.5485,-4.5438,-4.5409,-4.5389,-4.5348,-4.5328,-4.5307,-4.5307,-4.5277,-4.5277,-4.5277,-4.5277,-4.5277,-4.5277,-4.5277,-4.5277,-4.5277,-4.5277,-4.5277,-4.5277,-4.5246,-6.08,-6.08,-6.08,-6.08,-6.0812,-6.0866,-6.0914,-6.0987,-6.1,-6.1022,-6.1098,-6.1285,-6.1387,-6.1426,-6.1582,-6.166,-6.168,-6.168,-6.1699,-6.1699,-6.1699,-6.1699,-6.1699,-6.1699,-6.1699,-6.1699,-6.1699,-6.1699,-6.1699,-6.1699,-6.164,-6.1445,-6.1015,-5.9844,-5.8418,-5.7187,-5.6621,-5.6621,-5.6621,-5.6621,-5.6621,-5.6621,-5.6621,-5.6621,-5.6621,-5.6621,-5.6621,-5.662,-5.6597,-5.6378,-5.604,-5.5602,-5.4894,-5.4051,-5.3112,-5.2507,-5.198,-5.1433,-5.1394,-5.1394,-5.1394,-5.1394,-5.1394,-5.1394,-5.1394,-5.1394,-5.1333,-5.1291,-5.1218,-5.1128,-5.0972,-5.0923,-5.0863,-5.0793,-5.0712,-5.0683,-5.0683,-5.0683,-5.0683,-5.0683,-5.0683,-5.0664,-5.0029,-4.9183,-4.7932,-4.7355,-4.6374,-4.5594,-4.5594,-4.5594,-4.5594,-4.5586,-4.5577,-4.5513,-4.5438,-4.5448,-4.5438,-4.5389,-4.5359,-4.5328,-4.5317,-4.5307,-4.5277,-4.5277,-4.5277,-4.5277,-4.5277,-4.5277,-4.5277,-4.5277,-4.5277,-4.5277,-4.5277,-4.5277,-4.5277,-6.08,-6.08,-6.08,-6.08,-6.08,-6.0781,-6.0869,-6.0987,-6.1008,-6.1031,-6.1117,-6.124,-6.1311,-6.1349,-6.1501,-6.1583,-6.1616,-6.1655,-6.168,-6.1699,-6.1699,-6.1699,-6.1699,-6.1699,-6.1699,-6.1699,-6.1699,-6.1699,-6.1699,-6.1699,-6.1699,-6.1562,-6.1152,-6.043,-5.9082,-5.7422,-5.664,-5.6621,-5.6621,-5.6621,-5.6621,-5.6621,-5.6621,-5.6601,-5.6426,-5.6348,-5.6582,-5.6387,-5.6402,-5.6495,-5.6313,-5.5837,-5.5203,-5.4381,-5.3483,-5.2704,-5.196,-5.1511,-5.1394,-5.1394,-5.1394,-5.1394,-5.1394,-5.1394,-5.1394,-5.1392,-5.1392,-5.1333,-5.1291,-5.1214,-5.1108,-5.1035,-5.0944,-5.0863,-5.0773,-5.073,-5.074,-5.0683,-5.0683,-5.0683,-5.0683,-5.0587,-5.0029,-4.9183,-4.7548,-4.6567,-4.5883,-4.5594,-4.5594,-4.5594,-4.5594,-4.5586,-4.5568,-4.5522,-4.5466,-4.5457,-4.5448,-4.54,-4.5359,-4.5328,-4.5307,-4.5307,-4.5277,-4.5277,-4.5277,-4.5277,-4.5277,-4.5277,-4.5277,-4.5277,-4.5277,-4.5277,-4.5277,-4.5277,-4.5277,-6.08,-6.08,-6.08,-6.08,-6.08,-6.08,-6.0869,-6.0997,-6.105,-6.108,-6.1136,-6.1256,-6.131,-6.1356,-6.1402,-6.146,-6.1494,-6.1586,-6.1624,-6.1627,-6.1658,-6.1699,-6.1699,-6.1699,-6.1699,-6.1699,-6.1699,-6.1699,-6.1699,-6.1699,-6.1699,-6.1582,-6.0723,-5.9785,-5.8867,-5.7598,-5.6621,-5.6621,-5.6621,-5.6621,-5.6621,-5.6621,-5.6601,-5.6582,-5.6133,-5.6133,-5.6504,-5.6211,-5.6168,-5.6437,-5.6294,-5.572,-5.5244,-5.4498,-5.3659,-5.2938,-5.2273,-5.196,-5.1609,-5.1394,-5.1394,-5.1394,-5.1394,-5.1394,-5.1394,-5.1394,-5.1394,-5.1394,-5.1338,-5.1288,-5.1191,-5.1161,-5.1092,-5.0959,-5.0882,-5.0855,-5.0825,-5.073,-5.0683,-5.0683,-5.0683,-5.0337,-4.9856,-4.9317,-4.7913,-4.6797,-4.6201,-4.5729,-4.5614,-4.5594,-4.5594,-4.5577,-4.5559,-4.5522,-4.5504,-4.5485,-4.5467,-4.5409,-4.5359,-4.5317,-4.5297,-4.5277,-4.5277,-4.5277,-4.5277,-4.5277,-4.5277,-4.5277,-4.5277,-4.5277,-4.5277,-4.5277,-4.5277,-4.5277,-4.5277,-6.08,-6.08,-6.08,-6.08,-6.08,-6.08,-6.0869,-6.0978,-6.1051,-6.108,-6.1126,-6.1192,-6.124,-6.1247,-6.1311,-6.1356,-6.1373,-6.146,-6.1579,-6.1583,-6.1648,-6.168,-6.1699,-6.1699,-6.1699,-6.1699,-6.1699,-6.1699,-6.1699,-6.1699,-6.1699,-6.1289,-6.0058,-5.9473,-5.8691,-5.7656,-5.6621,-5.6621,-5.6621,-5.6621,-5.6621,-5.6621,-5.6621,-5.6465,-5.623,-5.6074,-5.6289,-5.621,-5.5991,-5.624,-5.6077,-5.5562,-5.5203,-5.4732,-5.3971,-5.3424,-5.2763,-5.2292,-5.1629,-5.1394,-5.1394,-5.1394,-5.1394,-5.1394,-5.1394,-5.1394,-5.1394,-5.1394,-5.1394,-5.136,-5.1288,-5.1255,-5.1178,-5.1042,-5.0997,-5.0945,-5.0901,-5.0819,-5.0766,-5.0748,-5.0645,-5.0231,-4.9865,-4.9144,-4.8336,-4.7451,-4.6624,-4.6124,-4.5652,-4.5614,-4.5594,-4.5586,-4.5568,-4.555,-4.5504,-4.5476,-4.5448,-4.5418,-4.5359,-4.5317,-4.5277,-4.5277,-4.5277,-4.5277,-4.5277,-4.5277,-4.5277,-4.5277,-4.5277,-4.5277,-4.5277,-4.5277,-4.5277,-4.5277,-4.5277,-6.08,-6.08,-6.08,-6.08,-6.08,-6.08,-6.0869,-6.0997,-6.1001,-6.1032,-6.1099,-6.1108,-6.1136,-6.1134,-6.1237,-6.1276,-6.1311,-6.1362,-6.1463,-6.1543,-6.1586,-6.1627,-6.1678,-6.1699,-6.1699,-6.1699,-6.1699,-6.1699,-6.1699,-6.1699,-6.1699,-6.1328,-6.0019,-5.9414,-5.8652,-5.7637,-5.6758,-5.6621,-5.6621,-5.6621,-5.6621,-5.6621,-5.6621,-5.6484,-5.6328,-5.6308,-5.6406,-5.6345,-5.638,-5.6472,-5.6444,-5.5948,-5.5552,-5.5281,-5.4693,-5.3951,-5.3034,-5.2312,-5.159,-5.1414,-5.1394,-5.1394,-5.1394,-5.1394,-5.1394,-5.1394,-5.1394,-5.1394,-5.1394,-5.1394,-5.1369,-5.13,-5.1238,-5.1146,-5.1074,-5.105,-5.1016,-5.0959,-5.0898,-5.0841,-5.0749,-5.05,-5.0346,-4.9721,-4.8797,-4.7894,-4.7009,-4.6259,-4.5845,-4.5614,-4.5594,-4.5594,-4.5577,-4.5568,-4.5541,-4.5505,-4.5438,-4.5409,-4.5389,-4.5359,-4.5328,-4.5277,-4.5277,-4.5277,-4.5277,-4.5277,-4.5277,-4.5277,-4.5277,-4.5277,-4.5277,-4.5277,-4.5277,-4.5277,-4.5277,-6.08,-6.08,-6.08,-6.08,-6.08,-6.08,-6.0888,-6.0987,-6.1001,-6.1032,-6.1099,-6.1099,-6.1099,-6.1108,-6.1143,-6.115,-6.1197,-6.1262,-6.1324,-6.1422,-6.1517,-6.1581,-6.1645,-6.168,-6.1699,-6.1699,-6.1699,-6.1699,-6.1699,-6.1699,-6.1699,-6.1445,-5.998,-5.9375,-5.8574,-5.748,-5.6933,-5.6621,-5.6621,-5.6621,-5.6621,-5.6621,-5.6621,-5.6543,-5.6133,-5.6191,-5.6445,-5.6074,-5.6128,-5.6494,-5.598,-5.5464,-5.5398,-5.4732,-5.3971,-5.3212,-5.2724,-5.2331,-5.159,-5.1414,-5.1511,-5.1609,-5.157,-5.1394,-5.1394,-5.1511,-5.1531,-5.157,-5.159,-5.1629,-5.155,-5.1455,-5.1358,-5.1262,-5.1203,-5.1174,-5.1123,-5.1056,-5.0992,-5.0898,-5.0808,-5.0736,-5.0613,-5.0115,-4.92,-4.8278,-4.7432,-4.6672,-4.6009,-4.5768,-4.5594,-4.5594,-4.5594,-4.5577,-4.5568,-4.5541,-4.5467,-4.54,-4.54,-4.5379,-4.5328,-4.5277,-4.5277,-4.5277,-4.5277,-4.5277,-4.5277,-4.5277,-4.5277,-4.5277,-4.5277,-4.5277,-4.5277,-4.5277,-4.5277,-6.08,-6.08,-6.08,-6.08,-6.08,-6.08,-6.0888,-6.0987,-6.1009,-6.1051,-6.1089,-6.1099,-6.1099,-6.1099,-6.1108,-6.1108,-6.1107,-6.1175,-6.1252,-6.1356,-6.1417,-6.1467,-6.154,-6.1619,-6.166,-6.1675,-6.1699,-6.1699,-6.1699,-6.166,-6.164,-6.1035,-5.9746,-5.9121,-5.8359,-5.7363,-5.6738,-5.6621,-5.6621,-5.6621,-5.6621,-5.6621,-5.6621,-5.6504,-5.5957,-5.6211,-5.6465,-5.5937,-5.6166,-5.6533,-5.5941,-5.5833,-5.5806,-5.5298,-5.4361,-5.3776,-5.3719,-5.3095,-5.237,-5.2409,-5.239,-5.2409,-5.237,-5.2487,-5.2331,-5.2351,-5.2175,-5.2038,-5.198,-5.1921,-5.1785,-5.1648,-5.1509,-5.139,-5.1333,-5.1291,-5.1234,-5.1165,-5.1056,-5.0952,-5.0894,-5.0848,-5.0599,-5.0173,-4.9695,-4.8941,-4.8124,-4.7272,-4.6495,-4.5874,-4.5691,-4.5594,-4.5594,-4.5586,-4.5577,-4.5559,-4.5495,-4.5429,-4.541,-4.538,-4.5309,-4.5277,-4.5277,-4.5277,-4.5277,-4.5277,-4.5277,-4.5277,-4.5277,-4.5335,-4.5392,-4.5392,-4.5373,-4.5277,-4.5277,-6.08,-6.08,-6.08,-6.08,-6.08,-6.08,-6.0869,-6.0987,-6.1017,-6.103,-6.108,-6.1099,-6.1099,-6.1099,-6.1099,-6.1099,-6.1099,-6.1136,-6.1195,-6.1289,-6.1331,-6.1379,-6.1437,-6.1504,-6.1554,-6.1594,-6.164,-6.168,-6.166,-6.1484,-6.1015,-6.0371,-5.9433,-5.8711,-5.8008,-5.7129,-5.6621,-5.6621,-5.6621,-5.6621,-5.6621,-5.6621,-5.6621,-5.6621,-5.6543,-5.6601,-5.6601,-5.6579,-5.6612,-5.6588,-5.6561,-5.6511,-5.6235,-5.6333,-5.5396,-5.4752,-5.4556,-5.4012,-5.3348,-5.3268,-5.358,-5.3737,-5.3951,-5.3678,-5.3327,-5.3073,-5.2858,-5.2683,-5.2644,-5.2409,-5.2253,-5.1726,-5.1433,-5.1394,-5.1364,-5.1355,-5.1322,-5.1241,-5.1128,-5.1033,-5.0972,-5.0933,-5.0893,-5.0494,-5.0136,-4.9536,-4.8941,-4.8075,-4.7322,-4.6521,-4.602,-4.5828,-4.5682,-4.5682,-4.5594,-4.5568,-4.5532,-4.5476,-4.5438,-4.539,-4.5328,-4.5307,-4.5277,-4.5277,-4.5277,-4.5277,-4.5277,-4.5297,-4.5411,-4.564,-4.566,-4.5564,-4.5545,-4.5698,-4.5411,-6.08,-6.08,-6.08,-6.08,-6.08,-6.08,-6.0888,-6.1006,-6.1006,-6.1001,-6.1099,-6.1099,-6.1099,-6.1099,-6.1099,-6.1099,-6.1099,-6.1099,-6.1126,-6.1184,-6.1256,-6.1289,-6.1337,-6.1398,-6.1439,-6.1474,-6.1534,-6.1593,-6.1445,-6.1055,-6.0605,-6.0176,-5.9101,-5.8105,-5.7754,-5.6933,-5.6621,-5.6621,-5.6621,-5.6621,-5.6621,-5.6621,-5.6621,-5.6621,-5.6621,-5.6621,-5.6621,-5.6618,-5.6613,-5.661,-5.6616,-5.6257,-5.565,-5.6274,-5.565,-5.4576,-5.4888,-5.4635,-5.4225,-5.4049,-5.4264,-5.4166,-5.4127,-5.4029,-5.3893,-5.3776,-5.3639,-5.3502,-5.3229,-5.2956,-5.2567,-5.1941,-5.1394,-5.1394,-5.1394,-5.1394,-5.1394,-5.1297,-5.1199,-5.1137,-5.1063,-5.1042,-5.1025,-5.0821,-5.0493,-5.0112,-4.9768,-4.9155,-4.8508,-4.7734,-4.681,-4.6467,-4.5962,-4.5843,-4.5772,-4.5794,-4.5853,-4.5619,-4.5506,-4.5428,-4.5337,-4.5307,-4.5277,-4.5277,-4.5277,-4.5277,-4.5297,-4.5335,-4.5488,-4.5851,-4.6271,-4.6328,-4.671,-4.692,-4.6233,-6.08,-6.08,-6.08,-6.08,-6.08,-6.08,-6.0877,-6.0867,-6.0582,-6.046,-6.0616,-6.0896,-6.1079,-6.1079,-6.1099,-6.1021,-6.1021,-6.1099,-6.1108,-6.1134,-6.1042,-6.1184,-6.1247,-6.1259,-6.1342,-6.1378,-6.1491,-6.1484,-6.1048,-6.0683,-6.0234,-5.9394,-5.8223,-5.7676,-5.7402,-5.6836,-5.6621,-5.6621,-5.6621,-5.6621,-5.6621,-5.6621,-5.6621,-5.6621,-5.6621,-5.6621,-5.6621,-5.6618,-5.6613,-5.6609,-5.6616,-5.6491,-5.6177,-5.6411,-5.5884,-5.5298,-5.5259,-5.5513,-5.4966,-5.483,-5.5005,-5.5005,-5.5101,-5.5318,-5.5376,-5.5259,-5.4908,-5.4674,-5.3834,-5.3463,-5.2995,-5.2429,-5.1687,-5.1394,-5.1394,-5.1394,-5.1394,-5.136,-5.1319,-5.1288,-5.1248,-5.1222,-5.1203,-5.1137,-5.0826,-5.0656,-5.0311,-4.9892,-4.9313,-4.8978,-4.8031,-4.7417,-4.7087,-4.6616,-4.6519,-4.6467,-4.6386,-4.6082,-4.582,-4.5534,-4.5472,-4.5356,-4.5277,-4.5488,-4.5507,-4.5277,-4.5297,-4.5621,-4.5851,-4.6214,-4.6729,-4.7177,-4.7635,-4.7979,-4.7398,-6.08,-6.08,-6.08,-6.0704,-6.0646,-6.0627,-6.0546,-6.041,-5.9828,-5.9581,-5.9718,-6.0364,-6.075,-6.0789,-6.0789,-6.0789,-6.0673,-6.0344,-6.0538,-6.0576,-6.0566,-6.0603,-6.0771,-6.0973,-6.0951,-6.1012,-6.1134,-6.0678,-6.015,-5.9765,-5.9082,-5.8086,-5.7637,-5.7344,-5.6816,-5.6621,-5.6621,-5.6621,-5.6621,-5.6621,-5.6621,-5.6621,-5.6621,-5.6621,-5.6621,-5.6621,-5.6621,-5.6618,-5.6613,-5.6607,-5.6618,-5.6552,-5.6489,-5.6528,-5.6216,-5.5806,-5.5981,-5.5981,-5.5747,-5.5962,-5.6235,-5.6467,-5.6604,-5.6584,-5.6489,-5.6313,-5.5962,-5.5493,-5.4635,-5.3912,-5.3463,-5.278,-5.2038,-5.1394,-5.1394,-5.1394,-5.1392,-5.1392,-5.1392,-5.139,-5.1388,-5.1367,-5.133,-5.1278,-5.119,-5.1023,-5.077,-5.0352,-4.9973,-4.9827,-4.9313,-4.8985,-4.8816,-4.8283,-4.7556,-4.7306,-4.7214,-4.7036,-4.6775,-4.6119,-4.5751,-4.6125,-4.6219,-4.5965,-4.5908,-4.5965,-4.6099,-4.6424,-4.6596,-4.6863,-4.7436,-4.8086,-4.8525,-4.8754,-4.8476,-6.08,-6.08,-6.0781,-6.0377,-5.98,-5.9762,-5.9392,-5.886,-5.8729,-5.8693,-5.8781,-5.8895,-5.9077,-5.9077,-5.9068,-5.9203,-5.9474,-5.9358,-5.9145,-5.9048,-5.9397,-5.9687,-5.9956,-6.0154,-6.0208,-6.0273,-6.0233,-5.9849,-5.9258,-5.8636,-5.8203,-5.7812,-5.707,-5.6816,-5.6719,-5.6601,-5.6621,-5.6621,-5.6621,-5.6621,-5.6621,-5.6621,-5.6621,-5.6621,-5.6621,-5.6621,-5.6621,-5.6621,-5.6613,-5.6609,-5.6618,-5.6608,-5.6604,-5.6604,-5.6411,-5.6313,-5.6508,-5.643,-5.6372,-5.645,-5.6604,-5.6604,-5.6604,-5.6604,-5.6567,-5.6567,-5.6313,-5.6235,-5.5435,-5.4596,-5.399,-5.3053,-5.2273,-5.1648,-5.1394,-5.1394,-5.1394,-5.1394,-5.1392,-5.1392,-5.1392,-5.1392,-5.1369,-5.1335,-5.1335,-5.1233,-5.1233,-5.0862,-5.0797,-5.0647,-5.0449,-5.0335,-5.0215,-4.9516,-4.8613,-4.8345,-4.8196,-4.8025,-4.7758,-4.7176,-4.7031,-4.7443,-4.7403,-4.691,-4.6999,-4.7188,-4.7311,-4.7188,-4.7723,-4.8048,-4.8468,-4.8984,-4.9385,-4.9538,-4.927]},{"header":{"parameterUnit":"m.s-1","parameterCategory":1,"la1":31.0,"la2":29.5877,"lo1":-88.7671,"lo2":-86.6584,"dy":0.0162,"dx":0.0185,"nx":115,"ny":88,"refTime":"2023-02-22T06:00:00:Z","depth":0,"parameterNumber":3,"parameterNumberName":"V-component_of_WINDS"},"data":[0.0,0.0,0.0,0.0,0.0,0.0,0.0,0.0,0.0,0.0,0.0,0.0,0.0,0.0,0.0,0.0,0.0,0.0,0.0,0.0,0.0,0.0,0.0,0.0,0.0,0.0,0.0,0.0,0.0,0.0,0.0,0.0,0.0,0.0,0.0,0.0,0.0,0.0,0.0,0.0,0.0,0.0,0.0,0.0,0.0,0.0,0.0,0.0,0.0,0.0,0.0,0.0,0.0,0.0,0.0,0.0,0.0,0.0,0.0,0.0,0.0,0.0,0.0,0.0,0.0,0.0,0.0,0.0,0.0,0.0,0.0,0.0,0.0,0.0,0.0,0.0,0.0,0.0,0.0,0.0,0.0,0.0,0.0,0.0,0.0,0.0,0.0,0.0,0.0,0.0,0.0,0.0,0.0,0.0,0.0,0.0,0.0,0.0,0.0,0.0,0.0,0.0,0.0,0.0,0.0,0.0,0.0,0.0,0.0,0.0,0.0,0.0,0.0,0.0,0.0,0.0,0.0,0.0,0.0,0.0,0.0,0.0,0.0,0.0,0.0,0.0,0.0,0.0,0.0,0.0,0.0,0.0,0.0,0.0,0.0,0.0,0.0,0.0,0.0,0.0,0.0,0.0,0.0,0.0,0.0,0.0,0.0,0.0,0.0,0.0,0.0,0.0,0.0,0.0,0.0,0.0,0.0,0.0,0.0,0.0,0.0,0.0,0.0,0.0,0.0,0.0,0.0,0.0,0.0,0.0,0.0,0.0,0.0,0.0,0.0,0.0,0.0,0.0,0.0,0.0,0.0,0.0,0.0,0.0,0.0,0.0,0.0,0.0,0.0,0.0,0.0,0.0,0.0,0.0,0.0,0.0,0.0,0.0,0.0,0.0,0.0,0.0,0.0,0.0,0.0,0.0,0.0,0.0,0.0,0.0,0.0,0.0,0.0,0.0,0.0,0.0,0.0,0.0,0.0,0.0,0.0,0.0,0.0,0.0,0.0,0.0,0.0,0.0,0.0,0.0,0.0,0.0,0.0,0.0,0.0,0.0,0.0,0.0,0.0,0.0,0.0,0.0,0.0,0.0,0.0,0.0,0.0,0.0,0.0,0.0,0.0,0.0,0.0,0.0,0.0,0.0,0.0,0.0,0.0,0.0,0.0,0.0,0.0,0.0,0.0,0.0,0.0,0.0,0.0,0.0,0.0,0.0,0.0,0.0,0.0,0.0,0.0,0.0,0.0,0.0,0.0,0.0,0.0,0.0,0.0,0.0,0.0,0.0,0.0,0.0,0.0,0.0,0.0,0.0,0.0,0.0,0.0,0.0,0.0,0.0,0.0,0.0,0.0,0.0,0.0,0.0,0.0,0.0,0.0,0.0,0.0,0.0,0.0,0.0,0.0,0.0,0.0,0.0,0.0,0.0,0.0,0.0,0.0,0.0,0.0,0.0,0.0,0.0,0.0,0.0,0.0,0.0,0.0,0.0,0.0,0.0,0.0,0.0,0.0,0.0,0.0,0.0,0.0,0.0,0.0,0.0,0.0,0.0,0.0,0.0,0.0,0.0,0.0,0.0,0.0,0.0,0.0,0.0,0.0,0.0,0.0,0.0,0.0,0.0,0.0,0.0,0.0,0.0,0.0,0.0,0.0,0.0,0.0,0.0,0.0,0.0,0.0,0.0,0.0,0.0,0.0,0.0,0.0,0.0,0.0,0.0,0.0,0.0,0.0,0.0,0.0,0.0,0.0,0.0,0.0,0.0,0.0,0.0,0.0,0.0,0.0,0.0,0.0,0.0,0.0,0.0,0.0,0.0,0.0,0.0,0.0,0.0,0.0,0.0,0.0,0.0,0.0,0.0,0.0,0.0,0.0,0.0,0.0,0.0,0.0,0.0,0.0,0.0,0.0,0.0,0.0,0.0,0.0,0.0,0.0,0.0,0.0,0.0,0.0,0.0,0.0,0.0,0.0,0.0,0.0,0.0,0.0,0.0,0.0,0.0,0.0,0.0,0.0,0.0,0.0,0.0,0.0,0.0,0.0,0.0,0.0,0.0,0.0,0.0,0.0,0.0,0.0,0.0,0.0,0.0,0.0,0.0,0.0,0.0,0.0,0.0,0.0,0.0,0.0,0.0,0.0,0.0,0.0,0.0,0.0,0.0,0.0,0.0,0.0,0.0,0.0,0.0,0.0,0.0,0.0,0.0,0.0,0.0,0.0,0.0,0.0,0.0,0.0,0.0,0.0,0.0,0.0,0.0,0.0,0.0,0.0,0.0,0.0,0.0,0.0,0.0,0.0,0.0,0.0,0.0,0.0,0.0,0.0,0.0,0.0,0.0,0.0,0.0,0.0,0.0,0.0,0.0,0.0,0.0,0.0,0.0,0.0,0.0,0.0,0.0,0.0,0.0,0.0,0.0,0.0,0.0,0.0,0.0,0.0,0.0,0.0,0.0,0.0,0.0,0.0,0.0,0.0,0.0,0.0,0.0,0.0,0.0,0.0,0.0,0.0,0.0,0.0,0.0,0.0,0.0,0.0,0.0,0.0,0.0,0.0,0.0,0.0,0.0,0.0,0.0,0.0,0.0,0.0,0.0,0.0,0.0,0.0,0.0,0.0,0.0,0.0,0.0,0.0,0.0,0.0,0.0,0.0,0.0,0.0,0.0,0.0,0.0,0.0,0.0,0.0,0.0,0.0,0.0,0.0,0.0,0.0,0.0,0.0,0.0,0.0,0.0,0.0,0.0,0.0,0.0,0.0,0.0,0.0,0.0,0.0,0.0,0.0,0.0,0.0,0.0,0.0,0.0,0.0,0.0,0.0,0.0,0.0,0.0,0.0,0.0,0.0,0.0,0.0,0.0,0.0,0.0,0.0,0.0,0.0,0.0,0.0,0.0,0.0,0.0,0.0,0.0,0.0,0.0,0.0,0.0,0.0,0.0,0.0,0.0,0.0,0.0,0.0,0.0,0.0,0.0,0.0,0.0,0.0,0.0,0.0,0.0,0.0,0.0,0.0,0.0,0.0,0.0,0.0,0.0,0.0,0.0,0.0,0.0,0.0,0.0,0.0,0.0,0.0,0.0,0.0,0.0,0.0,0.0,0.0,0.0,0.0,0.0,0.0,0.0,0.0,0.0,0.0,0.0,0.0,0.0,0.0,0.0,0.0,0.0,0.0,0.0,0.0,0.0,0.0,0.0,0.0,0.0,0.0,0.0,0.0,0.0,0.0,0.0,0.0,0.0,0.0,0.0,0.0,0.0,0.0,0.0,0.0,0.0,0.0,0.0,0.0,0.0,0.0,0.0,0.0,0.0,0.0,0.0,0.0,0.0,0.0,0.0,0.0,0.0,0.0,0.0,0.0,0.0,0.0,0.0,0.0,0.0,0.0,0.0,0.0,0.0,0.0,0.0,0.0,0.0,0.0,0.0,0.0,0.0,0.0,0.0,0.0,0.0,0.0,0.0,0.0,0.0,0.0,0.0,0.0,0.0,0.0,0.0,0.0,0.0,0.0,0.0,0.0,0.0,0.0,0.0,0.0,0.0,0.0,0.0,0.0,0.0,0.0,0.0,0.0,0.0,0.0,0.0,0.0,0.0,0.0,0.0,0.0,0.0,0.0,0.0,0.0,0.0,0.0,0.0,0.0,0.0,0.0,0.0,0.0,0.0,0.0,0.0,0.0,0.0,0.0,0.0,0.0,0.0,0.0,0.0,0.0,0.0,0.0,0.0,0.0,0.0,0.0,0.0,0.0,0.0,0.0,0.0,0.0,0.0,0.0,0.0,0.0,0.0,0.0,0.0,0.0,0.0,0.0,0.0,0.0,0.0,0.0,0.0,0.0,0.0,0.0,0.0,0.0,0.0,0.0,0.0,0.0,0.0,0.0,0.0,0.0,0.0,0.0,0.0,0.0,0.0,0.0,0.0,0.0,0.0,0.0,0.0,0.0,0.0,0.0,0.0,0.0,0.0,0.0,0.0,0.0,0.0,0.0,0.0,0.0,0.0,0.0,0.0,0.0,0.0,0.0,0.0,0.0,0.0,0.0,0.0,0.0,0.0,0.0,0.0,0.0,0.0,0.0,0.0,0.0,0.0,0.0,0.0,0.0,0.0,0.0,0.0,0.0,0.0,0.0,0.0,0.0,0.0,0.0,0.0,0.0,0.0,0.0,0.0,0.0,0.0,0.0,0.0,0.0,0.0,0.0,0.0,0.0,0.0,0.0,0.0,0.0,0.0,0.0,0.0,0.0,0.0,0.0,0.0,0.0,0.0,0.0,0.0,0.0,0.0,-0.0353,0.0,0.0,0.0,0.0,0.0,0.0,0.0,0.0,0.0,0.0,0.0,0.0,0.0,0.0,0.0,0.0,0.0,0.0,0.0,0.0,0.0,0.0,0.0,0.0,0.0,0.0,0.0,0.0,0.0,0.0,0.0,0.0,0.0,0.0,0.0,0.0,0.0,0.0,0.0,0.0,0.0,0.0,0.0,0.0,0.0,0.0,0.0,0.0,0.0,0.0,0.0,0.0,0.0,0.0,0.0,0.0,0.0,0.0,0.0,0.0,0.0,0.0,0.0,0.0,0.0,0.0,0.0,0.0,0.0,0.0,0.0,0.0,0.0,0.0,0.0,0.0,0.0,0.0,0.0,0.0,0.0,0.0,0.0,0.0,0.0,0.0,0.0,0.0,0.0,0.0,0.0,0.0,0.0,0.0,0.0,0.0,0.0,0.0,0.0,0.0,0.0,0.0,0.0,0.0,0.0,0.0,0.0,0.0,0.0,0.0,-0.0353,-0.0202,-0.0202,-0.0303,-0.0404,0.0,0.0,0.0,0.0,0.0,0.0,0.0,0.0,0.0,0.0,0.0,0.0,0.0,0.0,0.0,0.0,0.0,0.0,0.0,0.0,0.0,0.0,0.0,0.0,0.0,0.0,0.0,0.0,0.0,0.0,0.0,0.0,0.0,0.0,0.0,0.0,0.0,0.0,0.0,0.0,0.0,0.0,0.0,0.0,0.0,0.0,0.0,0.0,0.0,0.0,0.0,0.0,0.0,0.0,0.0,0.0,0.0,0.0,0.0,0.0,0.0,0.0,0.0,0.0,0.0,0.0,0.0,0.0,0.0,0.0,0.0,0.0,0.0,0.0,0.0,0.0,0.0,0.0,0.0,0.0,0.0,0.0,0.0,0.0,0.0,0.0,0.0,0.0,0.0,0.0,0.0,0.0,0.0,0.0,0.0,0.0,0.0,0.0,0.0,0.0,0.0,0.0,0.0,0.0,0.0,0.0,0.0,0.0,0.0,0.0,0.0,0.0,-0.0505,-0.0505,-0.0606,0.0,0.0,0.0,0.0,0.0,0.0,0.0,0.0,0.0,0.0,0.0,0.0,0.0,0.0,0.0,0.0,0.0,0.0,0.0,0.0,0.0,0.0,0.0,0.0,0.0,0.0,0.0,0.0,0.0,0.0,0.0,0.0,0.0,0.0,0.0,0.0,0.0,0.0,0.0,0.0,0.0,0.0,0.0,0.0,0.0,0.0,0.0,0.0,0.0,0.0,0.0,0.0,0.0,0.0,0.0,0.0,0.0,0.0,0.0,0.0,0.0,0.0,0.0,0.0,0.0,0.0,0.0,0.0,0.0,0.0,0.0,0.0,0.0,0.0,0.0,0.0,0.0,0.0,0.0,0.0,0.0,0.0,0.0,0.0,0.0,0.0,0.0,0.0,0.0,0.0,0.0,0.0,0.0,0.0,0.0,0.0,0.0,0.0,0.0,0.0,0.0,0.0,0.0,0.0,0.0,0.0,0.0,0.0,0.0,0.0,-0.101,-0.0758,-0.0758,0.0,-0.1111,0.0,0.0,0.0,0.0,0.0,0.0,0.0,0.0,0.0,0.0,0.0,0.0,0.0,0.0,0.0,0.0,0.0,0.0,0.0,0.0,0.0,0.0,0.0,0.0,0.0,0.0,0.0,0.0,0.0,0.0,0.0,0.0,0.0,0.0,0.0,0.0,0.0,0.0,0.0,0.0,0.0,0.0,0.0,0.0,0.0,0.0,0.0,0.0,0.0,0.0,0.0,0.0,0.0,0.0,0.0,0.0,0.0,0.0,0.0,0.0,0.0,0.0,0.0,0.0,0.0,0.0,0.0,0.0,0.0,0.0,0.0,0.0,0.0,0.0,0.0,0.0,0.0,0.0,0.0,0.0,0.0,0.0,0.0,0.0,0.0,0.0,0.0,0.0,0.0,0.0,0.0,0.0,0.0,0.0,0.0,0.0,0.0,0.0,0.0,0.0,0.0,0.0,0.0,0.0,0.0,0.0,0.0,0.0,0.0,0.0,-0.1162,-0.1061,-0.101,-0.1162,0.0,0.0,0.0,0.0,0.0,0.0,0.0,0.0,0.0,0.0,0.0,0.0,0.0,0.0,0.0,0.0,0.0,0.0,0.0,0.0,0.0,0.0,0.0,0.0,0.0,0.0,0.0,0.0,0.0,0.0,0.0,0.0,0.0,0.0,0.0,0.0,0.0,0.0,0.0,0.0,0.0,0.0,0.0,0.0,0.0,0.0,0.0,0.0,0.0,0.0,0.0,0.0,0.0,0.0,0.0,0.0,0.0,0.0,0.0,0.0,0.0,0.0,0.0,0.0,0.0,0.0,0.0,0.0,0.0,0.0,0.0,0.0,0.0,0.0,0.0,0.0,0.0,0.0,0.0,0.0,0.0,0.0,0.0,0.0,0.0,0.0,0.0,0.0,0.0,0.0,0.0,0.0,0.0,0.0,0.0,0.0,0.0,0.0,0.0,0.0,0.0,0.0,0.0,0.0,0.0,0.0,0.0,0.0,0.0,0.0,-0.1415,-0.1313,-0.1313,-0.1313,-0.1414,-0.1566,0.0,0.0,0.0,0.0,0.0,0.0,0.0,0.0,0.0,0.0,0.0,0.0,0.0,0.0,0.0,0.0,0.0,0.0,0.0,0.0,0.0,0.0,0.0,0.0,0.0,0.0,0.0,0.0,0.0,0.0,0.0,0.0,0.0,0.0,0.0,0.0,0.0,0.0,0.0,0.0,0.0,0.0,0.0,0.0,0.0,0.0,0.0,0.0,0.0,0.0,0.0,0.0,0.0,0.0,0.0,0.0,0.0,0.0,0.0,0.0,0.0,0.0,0.0,0.0,0.0,0.0,0.0,0.0,0.0,0.0,0.0,0.0,0.0,0.0,0.0,0.0,0.0,0.0,0.0,0.0,0.0,0.0,0.0,0.0,0.0,0.0,0.0,0.0,0.0,0.0,0.0,0.0,0.0,0.0,0.0,0.0,0.0,0.0,0.0,0.0,0.0,0.0,0.0,0.0,0.0,0.0,0.0,0.0,-0.1566,-0.1566,-0.1566,-0.1566,-0.1566,-0.1566,0.0,0.0,0.0,0.0,0.0,0.0,0.0,0.0,0.0,0.0,0.0,0.0,0.0,0.0,0.0,0.0,0.0,0.0,0.0,0.0,0.0,0.0,0.0,0.0,0.0,0.0,0.0,0.0,0.0,0.0,0.0,0.0,0.0,0.0,0.0,0.0,0.0,0.0,0.0,0.0,0.0,0.0,0.0,0.0,0.0,0.0,0.0,0.0,0.0,0.0,0.0,0.0,0.0,0.0,0.0,0.0,0.0,0.0,0.0,0.0,0.0,0.0,0.0,0.0,0.0,0.0,0.0,0.0,0.0,0.0,0.0,0.0,0.0,0.0,0.0,0.0,0.0,0.0,0.0,0.0,0.0,0.0,0.0,0.0,0.0,0.0,0.0,0.0,0.0,0.0,0.0,0.0,0.0,0.0,0.0,0.0,0.0,0.0,0.0,0.0,0.0,0.0,0.0,0.0,0.0,0.0,0.0,0.0,0.0,-0.1566,-0.1566,-0.1566,-0.1566,-0.1566,-0.1566,0.0,0.0,0.0,0.0,0.0,0.0,0.0,0.0,0.0,0.0,0.0,0.0,0.0,0.0,0.0,0.0,0.0,0.0,0.0,0.0,0.0,0.0,0.0,0.0,0.0,0.0,0.0,0.0,0.0,0.0,0.0,0.0,0.0,0.0,0.0,0.0,0.0,0.0,0.0,0.0,0.0,0.0,0.0,0.0,0.0,0.0,0.0,0.0,0.0,0.0,0.0,0.0,0.0,0.0,0.0,0.0,0.0,0.0,0.0,0.0,0.0,0.0,0.0,0.0,0.0,0.0,0.0,0.0,0.0,0.0,0.0,0.0,0.0,0.0,0.0,0.0,0.0,0.0,0.0,0.0,0.0,0.0,0.0,0.0,0.0,0.0,0.0,0.0,0.0,0.0,0.0,0.0,0.0,0.0,0.0,0.0,0.0,0.0,0.0,0.0,0.0,0.0,0.0,0.0,0.0,0.0,0.0,0.0,0.0,-0.1566,0.0,-0.1566,-0.1566,-0.1566,-0.1566,0.0,0.0,0.0,0.0,0.0,0.0,0.0,0.0,0.0,0.0,0.0,0.0,0.0,0.0,0.0,0.0,0.0,0.0,0.0,0.0,0.0,0.0,0.0,0.0,0.0,0.0,0.0,0.0,0.0,0.0,0.0,0.0,0.0,0.0,0.0,0.0,0.0,0.0,0.0,0.0,0.0,0.0,0.0,0.0,0.0,0.0,0.0,0.0,0.0,0.0,0.0,0.0,0.0,0.0,0.0,0.0,0.0,0.0,0.0,0.0,0.0,0.0,0.0,0.0,0.0,0.0,0.0,0.0,0.0,0.0,0.0,0.0,0.0,0.0,0.0,0.0,0.0,0.0,0.0,0.0,0.0,0.0,0.0,0.0,0.0,0.0,0.0,0.0,0.0,0.0,0.0,0.0,0.0,0.0,0.0,0.0,0.0,0.0,0.0,0.0,0.0,0.0,0.0,0.0,0.0,0.0,0.0,0.0,-0.1566,-0.1566,-0.1566,-0.1566,-0.1566,-0.1566,-0.1566,0.0,0.0,0.0,0.0,0.0,0.0,0.0,0.0,0.0,0.0,0.0,0.0,0.0,0.0,0.0,0.0,0.0,0.0,0.0,0.0,0.0,0.0,0.0,0.0,0.0,0.0,0.0,0.0,0.0,0.0,0.0,0.0,0.0,0.0,0.0,0.0,0.0,0.0,0.0,0.0,0.0,0.0,0.0,0.0,0.0,0.0,0.0,0.0,0.0,0.0,0.0,0.0,0.0,0.0,0.0,0.0,0.0,0.0,0.0,0.0,0.0,0.0,0.0,0.0,0.0,0.0,0.0,0.0,0.0,0.0,0.0,0.0,0.0,0.0,0.0,0.0,0.0,0.0,0.0,0.0,0.0,0.0,0.0,0.0,0.0,0.0,0.0,0.0,0.0,0.0,0.0,0.0,0.0,0.0,0.0,0.0,0.0,0.0,0.0,0.0,0.0,0.0,0.0,0.0,0.0,0.0,0.0,0.0,0.0,-0.1566,-0.1566,-0.1566,-0.1566,-0.1566,-0.1607,0.0,0.0,0.0,0.0,0.0,0.0,0.0,0.0,0.0,0.0,0.0,0.0,0.0,0.0,0.0,0.0,0.0,0.0,0.0,0.0,0.0,0.0,0.0,0.0,0.0,0.0,0.0,0.0,0.0,0.0,0.0,0.0,0.0,0.0,0.0,0.0,0.0,0.0,0.0,0.0,0.0,0.0,0.0,0.0,0.0,0.0,0.0,0.0,0.0,0.0,0.0,0.0,0.0,0.0,0.0,0.0,0.0,0.0,0.0,0.0,0.0,0.0,0.0,0.0,0.0,0.0,0.0,0.0,0.0,0.0,0.0,0.0,0.0,0.0,0.0,0.0,0.0,0.0,0.0,0.0,0.0,0.0,0.0,0.0,0.0,0.0,0.0,0.0,0.0,0.0,0.0,0.0,0.0,0.0,0.0,0.0,0.0,0.0,0.0,0.0,0.0,0.0,0.0,0.0,0.0,0.0,0.0,0.0,0.0,-0.1429,-0.1318,-0.1364,-0.1415,-0.1465,-0.1502,-0.1573,0.0,0.0,0.0,0.0,0.0,0.0,0.0,0.0,0.0,0.0,0.0,0.0,0.0,0.0,0.0,0.0,0.0,0.0,0.0,0.0,0.0,0.0,0.0,0.0,0.0,0.0,0.0,0.0,0.0,0.0,0.0,0.0,0.0,0.0,0.0,0.0,0.0,0.0,0.0,0.0,0.0,0.0,0.0,0.0,0.0,0.0,0.0,0.0,0.0,0.0,0.0,0.0,0.0,0.0,0.0,0.0,0.0,0.0,0.0,0.0,0.0,0.0,0.0,0.0,0.0,0.0,0.0,0.0,0.0,0.0,0.0,0.0,0.0,0.0,0.0,0.0,0.0,0.0,0.0,0.0,0.0,0.0,0.0,0.0,0.0,0.0,0.0,0.0,0.0,0.0,0.0,0.0,0.0,0.0,0.0,0.0,0.0,0.0,0.0,0.0,0.0,0.0,0.0,0.0,0.0,0.0,0.0,0.0,-0.1193,-0.0918,-0.091,-0.1212,-0.1212,-0.13,0.0,0.0,0.0,0.0,0.0,0.0,0.0,0.0,0.0,0.0,0.0,0.0,0.0,0.0,0.0,0.0,0.0,0.0,0.0,0.0,0.0,0.0,0.0,0.0,0.0,0.0,0.0,0.0,0.0,0.0,0.0,0.0,0.0,0.0,0.0,0.0,0.0,0.0,0.0,0.0,0.0,0.0,0.0,0.0,0.0,0.0,0.0,0.0,0.0,0.0,0.0,0.0,0.0,0.0,0.0,0.0,0.0,0.0,0.0,0.0,0.0,0.0,0.0,0.0,0.0,0.0,0.0,0.0,0.0,0.0,0.0,0.0,0.0,0.0,0.0,0.0,0.0,0.0,0.0,0.0,0.0,0.0,0.0,0.0,0.0,0.0,0.0,0.0,0.0,0.0,0.0,0.0,0.0,0.0,0.0,0.0,0.0,0.0,0.0,0.0,0.0,0.0,0.0,0.0,0.0,0.0,0.0,0.0,0.0,-0.0866,-0.0462,-0.0512,-0.1163,-0.1212,-0.1284,0.0,0.0,0.0,0.0,0.0,0.0,0.0,0.0,0.0,0.0,0.0,0.0,0.0,0.0,0.0,0.0,0.0,0.0,0.0,0.0,0.0,0.0,0.0,0.0,0.0,0.0,0.0,0.0,0.0,0.0,0.0,0.0,0.0,0.0,0.0,0.0,0.0,0.0,0.0,0.0,0.0,0.0,0.0,0.0,0.0,0.0,0.0,0.0,0.0,0.0,0.0,0.0,0.0,0.0,0.0,0.0,0.0,0.0,0.0,0.0,0.0,0.0,0.0,0.0,0.0,0.0,0.0,0.0,0.0,0.0,0.0,0.0,0.0,0.0,0.0,0.0,0.0,0.0,0.0,0.0,0.0,0.0,0.0,0.0,0.0,0.0,0.0,0.0,0.0,0.0,0.0,0.0,0.0,0.0,0.0,0.0,0.0,0.0,0.0,0.0,0.0,0.0,0.0,0.0,0.0,0.0,0.0,0.0,-0.0775,-0.0614,-0.0208,-0.031,-0.0999,-0.0998,-0.1171,0.0,0.0,0.0,0.0,0.0,0.0,0.0,0.0,0.0,0.0,0.0,0.0,0.0,0.0,0.0,0.0,0.0,0.0,0.0,0.0,0.0,0.0,0.0,0.0,0.0,0.0,0.0,0.0,0.0,0.0,0.0,0.0,0.0,0.0,0.0,0.0,0.0,0.0,0.0,0.0,0.0,0.0,0.0,0.0,0.0,0.0,0.0,0.0,0.0,0.0,0.0,0.0,0.0,0.0,0.0,0.0,0.0,0.0,0.0,0.0,0.0,0.0,0.0,0.0,0.0,0.0,0.0,0.0,0.0,0.0,0.0,0.0,0.0,0.0,0.0,0.0,0.0,0.0,0.0,0.0,0.0,0.0,0.0,0.0,0.0,0.0,0.0,0.0,0.0,0.0,0.0,0.0,0.0,0.0,0.0,0.0,0.0,0.0,0.0,0.0,0.0,0.0,0.0,0.0,0.0,0.0,0.0,0.0,-0.0672,-0.0413,-0.0158,-0.0207,-0.0687,-0.0785,-0.1011,0.0,0.0,0.0,0.0,0.0,0.0,0.0,0.0,0.0,0.0,0.0,0.0,0.0,0.0,0.0,0.0,0.0,0.0,0.0,0.0,0.0,0.0,0.0,0.0,0.0,0.0,0.0,0.0,0.0,0.0,0.0,0.0,0.0,0.0,0.0,0.0,0.0,0.0,0.0,0.0,0.0,0.0,0.0,0.0,0.0,0.0,0.0,0.0,0.0,0.0,0.0,0.0,0.0,0.0,0.0,0.0,0.0,0.0,0.0,0.0,0.0,0.0,0.0,0.0,0.0,0.0,0.0,0.0,0.0,0.0,0.0,0.0,0.0,0.0,0.0,0.0,0.0,0.0,0.0,0.0,0.0,0.0,0.0,0.0,0.0,0.0,0.0,0.0,0.0,0.0,0.0,0.0,0.0,0.0,0.0,0.0,0.0,0.0,0.0,0.0,0.0,0.0,0.0,0.0,0.0,0.0,0.0,0.0,-0.0656,-0.0398,-0.0152,-0.02,-0.0673,-0.073,-0.0957,0.0,0.0,0.0,0.0,0.0,0.0,0.0,0.0,0.0,0.0,0.0,0.0,0.0,0.0,0.0,0.0,0.0,0.0,0.0,0.0,0.0,0.0,0.0,0.0,0.0,0.0,0.0,0.0,0.0,0.0,0.0,0.0,0.0,0.0,0.0,0.0,0.0,0.0,0.0,0.0,0.0,0.0,0.0,0.0,0.0,0.0,0.0,0.0,-0.8616,0.0,0.0,0.0,0.0,0.0,0.0,0.0,0.0,0.0,0.0,0.0,0.0,0.0,0.0,0.0,0.0,0.0,0.0,0.0,0.0,0.0,0.0,0.0,0.0,0.0,0.0,0.0,0.0,0.0,0.0,0.0,0.0,0.0,0.0,0.0,0.0,0.0,0.0,0.0,0.0,0.0,0.0,0.0,0.0,0.0,0.0,0.0,0.0,0.0,0.0,0.0,0.0,0.0,0.0,0.0,0.0,0.0,0.0,0.0,-0.0595,-0.0246,-0.0198,-0.0343,-0.0707,-0.0807,-0.1031,0.0,0.0,0.0,0.0,0.0,0.0,0.0,0.0,0.0,0.0,0.0,0.0,0.0,0.0,0.0,0.0,0.0,0.0,0.0,0.0,0.0,0.0,0.0,0.0,0.0,0.0,0.0,0.0,0.0,0.0,0.0,0.0,0.0,0.0,0.0,0.0,0.0,0.0,0.0,0.0,0.0,0.0,0.0,0.0,0.0,0.0,0.0,0.0,0.0,0.0,0.0,0.0,0.0,0.0,0.0,0.0,0.0,0.0,0.0,0.0,0.0,0.0,0.0,0.0,0.0,0.0,0.0,0.0,0.0,0.0,0.0,0.0,0.0,0.0,0.0,0.0,0.0,0.0,0.0,0.0,0.0,0.0,0.0,0.0,0.0,0.0,0.0,0.0,0.0,0.0,0.0,0.0,0.0,0.0,0.0,0.0,0.0,0.0,0.0,0.0,0.0,0.0,0.0,0.0,0.0,0.0,0.0,-0.0726,-0.0489,-0.0049,-0.0244,-0.048,-0.0695,-0.0969,-0.1187,-0.1391,0.0,0.0,0.0,0.0,0.0,0.0,0.0,0.0,0.0,0.0,0.0,0.0,0.0,0.0,0.0,0.0,0.0,0.0,0.0,0.0,0.0,0.0,0.0,0.0,0.0,0.0,0.0,0.0,0.0,0.0,0.0,0.0,0.0,0.0,0.0,0.0,0.0,0.0,-0.8616,-0.8616,0.0,0.0,0.0,0.0,0.0,0.0,0.0,0.0,-0.8616,0.0,0.0,0.0,0.0,0.0,0.0,0.0,0.0,0.0,0.0,0.0,0.0,0.0,0.0,0.0,0.0,0.0,0.0,0.0,0.0,0.0,0.0,0.0,0.0,0.0,0.0,0.0,0.0,0.0,0.0,0.0,0.0,0.0,0.0,0.0,0.0,0.0,0.0,0.0,0.0,0.0,0.0,0.0,0.0,0.0,0.0,0.0,0.0,0.0,0.0,0.0,0.0,0.0,0.0,0.0,0.0,-0.0697,-0.0522,-0.0287,0.0,-0.0287,-0.0474,-0.0694,-0.0955,-0.117,-0.1391,0.0,0.0,0.0,0.0,0.0,0.0,0.0,0.0,0.0,0.0,0.0,0.0,0.0,0.0,0.0,0.0,0.0,0.0,0.0,0.0,0.0,0.0,0.0,0.0,0.0,0.0,0.0,0.0,0.0,0.0,0.0,0.0,0.0,0.0,0.0,0.0,0.0,0.0,0.0,-0.8616,-0.8616,0.0,0.0,0.0,0.0,0.0,0.0,0.0,0.0,-0.8616,0.0,0.0,0.0,0.0,0.0,0.0,0.0,0.0,0.0,0.0,0.0,0.0,0.0,0.0,0.0,0.0,0.0,0.0,0.0,0.0,0.0,0.0,0.0,0.0,0.0,0.0,0.0,0.0,0.0,0.0,0.0,0.0,0.0,0.0,0.0,0.0,0.0,0.0,0.0,0.0,0.0,0.0,0.0,0.0,0.0,0.0,0.0,0.0,0.0,0.0,0.0,0.0,0.0,0.0,0.0,-0.0694,-0.0519,-0.0332,-0.0235,-0.0427,-0.0658,-0.0911,-0.1127,-0.1301,0.0,0.0,0.0,0.0,0.0,0.0,0.0,0.0,0.0,0.0,0.0,0.0,0.0,0.0,0.0,0.0,0.0,0.0,0.0,0.0,0.0,0.0,0.0,0.0,0.0,0.0,0.0,0.0,0.0,0.0,0.0,0.0,0.0,0.0,0.0,0.0,0.0,0.0,0.0,0.0,-0.8645,-0.8666,-0.8624,0.0,0.0,0.0,0.0,0.0,0.0,-0.8616,-0.8616,0.0,0.0,0.0,0.0,0.0,0.0,0.0,0.0,0.0,0.0,0.0,0.0,0.0,0.0,0.0,0.0,0.0,0.0,0.0,0.0,0.0,0.0,0.0,0.0,0.0,0.0,0.0,0.0,0.0,0.0,0.0,0.0,0.0,0.0,0.0,0.0,0.0,0.0,0.0,0.0,0.0,0.0,0.0,0.0,0.0,0.0,0.0,0.0,0.0,0.0,0.0,0.0,0.0,0.0,0.0,-0.0651,-0.0424,-0.033,-0.0326,-0.0565,-0.0792,-0.1033,-0.1256,-0.1391,0.0,0.0,0.0,0.0,0.0,0.0,0.0,0.0,0.0,0.0,0.0,0.0,0.0,0.0,0.0,0.0,0.0,0.0,0.0,0.0,0.0,0.0,0.0,0.0,0.0,0.0,0.0,0.0,0.0,0.0,0.0,0.0,0.0,0.0,0.0,0.0,0.0,0.0,0.0,0.0,0.0,-0.8755,-0.8593,-0.8714,0.0,0.0,0.0,0.0,-0.8617,-0.8694,0.0,0.0,0.0,0.0,0.0,0.0,0.0,0.0,0.0,0.0,0.0,0.0,0.0,0.0,0.0,0.0,0.0,0.0,0.0,0.0,0.0,0.0,0.0,0.0,0.0,0.0,0.0,0.0,0.0,0.0,0.0,0.0,0.0,0.0,0.0,0.0,0.0,0.0,0.0,0.0,0.0,0.0,0.0,0.0,0.0,0.0,0.0,0.0,0.0,0.0,0.0,0.0,0.0,0.0,0.0,0.0,-0.0427,-0.0187,-0.0047,-0.0047,-0.0468,-0.0689,-0.0763,-0.1166,-0.1391,0.0,0.0,0.0,0.0,0.0,0.0,0.0,0.0,0.0,0.0,0.0,0.0,0.0,0.0,0.0,0.0,0.0,0.0,0.0,0.0,0.0,0.0,0.0,0.0,0.0,0.0,0.0,0.0,0.0,0.0,0.0,0.0,0.0,0.0,0.0,0.0,0.0,0.0,0.0,0.0,0.0,-0.8759,-0.8633,-0.871,-0.8759,0.0,0.0,-0.8787,-0.8792,-0.893,0.0,0.0,0.0,0.0,0.0,0.0,0.0,0.0,0.0,0.0,0.0,0.0,0.0,0.0,0.0,0.0,0.0,0.0,0.0,0.0,0.0,0.0,0.0,0.0,0.0,0.0,0.0,0.0,0.0,0.0,0.0,0.0,0.0,0.0,0.0,0.0,0.0,0.0,0.0,0.0,0.0,0.0,0.0,0.0,0.0,0.0,0.0,0.0,0.0,0.0,0.0,0.0,0.0,0.0,0.0,-0.0498,-0.0414,-0.0139,-0.0046,-0.023,-0.0416,-0.0687,-0.0898,-0.1122,-0.1301,0.0,0.0,0.0,0.0,0.0,0.0,0.0,0.0,0.0,0.0,0.0,0.0,0.0,0.0,0.0,0.0,0.0,0.0,0.0,0.0,0.0,0.0,0.0,0.0,0.0,0.0,0.0,0.0,0.0,0.0,0.0,0.0,0.0,0.0,0.0,0.0,0.0,0.0,0.0,0.0,0.0,0.0,-0.8735,-0.8946,0.0,0.0,0.0,-0.8978,-0.8974,0.0,0.0,0.0,0.0,0.0,0.0,0.0,0.0,0.0,0.0,0.0,0.0,0.0,0.0,0.0,0.0,0.0,0.0,0.0,0.0,0.0,0.0,0.0,0.0,0.0,0.0,0.0,0.0,0.0,0.0,0.0,0.0,0.0,0.0,0.0,0.0,0.0,0.0,0.0,0.0,0.0,0.0,0.0,0.0,0.0,0.0,0.0,0.0,0.0,0.0,0.0,0.0,0.0,0.0,0.0,0.0,0.0,-0.0271,-0.0091,-0.0091,-0.0271,-0.0365,-0.0592,-0.0987,-0.0987,0.0,0.0,0.0,0.0,0.0,0.0,0.0,0.0,0.0,0.0,0.0,0.0,0.0,0.0,0.0,0.0,0.0,0.0,0.0,0.0,0.0,0.0,0.0,0.0,0.0,0.0,0.0,-0.8616,0.0,0.0,0.0,0.0,0.0,0.0,0.0,0.0,0.0,0.0,0.0,0.0,0.0,0.0,-0.9027,-0.8844,-0.9125,-0.9343,0.0,0.0,-0.9161,-0.9161,-0.9202,-0.9153,0.0,0.0,0.0,0.0,0.0,0.0,0.0,0.0,0.0,0.0,0.0,0.0,0.0,0.0,0.0,0.0,0.0,0.0,0.0,0.0,0.0,0.0,0.0,0.0,0.0,0.0,0.0,0.0,0.0,0.0,0.0,0.0,0.0,0.0,0.0,0.0,0.0,0.0,0.0,0.0,0.0,0.0,0.0,0.0,0.0,0.0,0.0,0.0,0.0,0.0,0.0,0.0,0.0,0.0,0.0,-0.0046,0.0,0.0,0.0,-0.0272,-0.0494,-0.0718,-0.0718,-0.0942,0.0,0.0,0.0,0.0,0.0,0.0,0.0,0.0,0.0,0.0,0.0,0.0,0.0,0.0,0.0,0.0,0.0,0.0,0.0,0.0,0.0,0.0,0.0,0.0,0.0,0.0,0.0,0.0,0.0,0.0,0.0,0.0,0.0,0.0,0.0,0.0,0.0,0.0,0.0,0.0,0.0,-0.9031,-0.8799,-0.9129,-0.9343,0.0,0.0,-0.9388,-0.9384,-0.9482,-0.9474,-0.9133,0.0,0.0,0.0,0.0,0.0,0.0,0.0,0.0,0.0,0.0,0.0,0.0,0.0,0.0,0.0,0.0,0.0,0.0,0.0,0.0,0.0,0.0,0.0,0.0,0.0,0.0,0.0,0.0,0.0,0.0,0.0,0.0,0.0,0.0,0.0,0.0,0.0,0.0,0.0,0.0,0.0,0.0,0.0,0.0,0.0,0.0,0.0,0.0,0.0,0.0,0.0,0.0,0.0,-0.009,0.0,0.0,0.0,0.0,-0.009,-0.0269,-0.0493,-0.0538,-0.0718,0.0,0.0,0.0,0.0,0.0,0.0,0.0,0.0,0.0,0.0,0.0,0.0,0.0,0.0,0.0,0.0,0.0,0.0,0.0,0.0,0.0,0.0,0.0,0.0,0.0,0.0,0.0,0.0,-0.8616,-0.8616,-0.8616,0.0,0.0,0.0,0.0,0.0,0.0,0.0,0.0,0.0,0.0,-0.9068,-0.9003,-0.9295,0.0,0.0,-0.9478,-0.9522,-0.9522,-0.9583,-0.9506,-0.9157,-0.9423,0.0,0.0,0.0,0.0,0.0,0.0,0.0,0.0,0.0,0.0,0.0,0.0,0.0,0.0,0.0,0.0,0.0,0.0,0.0,0.0,0.0,0.0,0.0,0.0,0.0,0.0,0.0,0.0,0.0,0.0,0.0,0.0,0.0,0.0,0.0,0.0,0.0,0.0,0.0,0.0,0.0,0.0,0.0,0.0,0.0,0.0,0.0,0.0,0.0,0.0,0.0,0.0,0.0,0.0,0.0,0.0,0.0,0.0,-0.0135,-0.0404,-0.0314,-0.0494,0.0,0.0,0.0,0.0,0.0,0.0,0.0,0.0,0.0,0.0,0.0,0.0,0.0,0.0,0.0,0.0,0.0,0.0,0.0,0.0,0.0,0.0,0.0,0.0,0.0,0.0,0.0,0.0,-0.8616,-0.8616,-0.8616,0.0,0.0,0.0,0.0,0.0,0.0,0.0,0.0,0.0,0.0,-0.9035,-0.9092,-0.9356,-0.9567,-0.9571,-0.9624,-0.9624,-0.9624,-0.9624,-0.9506,-0.9153,0.0,0.0,0.0,0.0,0.0,0.0,0.0,0.0,0.0,0.0,0.0,0.0,0.0,0.0,0.0,0.0,0.0,0.0,0.0,0.0,0.0,0.0,0.0,0.0,0.0,0.0,0.0,0.0,0.0,0.0,0.0046,0.0,0.0,0.0,0.0,0.0,0.0,0.0,0.0,0.0,0.0,0.0,0.0,0.0,0.0,0.0,0.0,0.0,0.0,0.0,0.0,0.0,0.0,0.0,0.0,0.0,0.0,0.0,0.0,-0.0135,-0.0359,-0.0135,-0.0225,-0.0673,0.0,0.0,0.0,0.0,0.0,0.0,0.0,0.0,0.0,0.0,0.0,0.0,0.0,0.0,0.0,0.0,0.0,0.0,0.0,0.0,0.0,0.0,0.0,0.0,0.0,0.0,-0.8568,-0.8616,-0.8616,0.0,0.0,0.0,0.0,0.0,0.0,0.0,0.0,0.0,0.0,-0.8714,-0.8897,-0.9076,-0.9298,-0.9441,-0.9608,-0.9628,-0.9628,-0.9632,-0.9628,-0.9462,0.0,0.0,0.0,0.0,0.0,0.0,0.0,0.0,0.0,0.0,0.0,0.0,0.0,0.0,0.0,0.0,0.0,0.0,0.0,0.0,0.0,0.0,0.0,0.0,0.0,0.0,0.0,0.0673,0.0535,0.0,0.0,0.0,0.0,0.0,0.0,0.0,0.0,0.0,0.0,0.0,0.0,0.0,0.0,0.0,0.0,0.0,0.0,0.0,0.0,0.0,0.0,0.0,0.0,0.0,0.0,0.0,0.0,0.0,0.0,0.0,-0.0045,-0.0135,-0.0045,-0.0135,-0.0493,0.0,0.0,0.0,0.0,0.0,0.0,0.0,0.0,0.0,0.0,0.0,0.0,0.0,0.0,0.0,0.0,0.0,0.0,0.0,0.0,0.0,0.0,0.0,0.0,0.0,-0.8072,0.0,0.0,0.0,0.0,0.0,0.0,0.0,0.0,0.0,0.0,0.0,-0.8653,-0.8723,-0.8889,-0.9072,-0.929,-0.9421,-0.96,0.0,0.0,0.0,0.0,0.0,0.0,0.0,0.0,0.0,0.0,0.0,0.0,0.0,0.0,-1.2509,-1.1803,-1.1957,-1.2233,-1.2627,0.0,0.0,0.0,0.0,0.0,0.0,0.0,0.0,0.0,0.0,0.0,0.0,0.0,0.0,0.0634,0.0,0.0543,0.0,0.0,0.0,0.0,0.0,0.0,0.0,0.0,0.0,0.0,0.0,0.0,0.0,0.0,0.0,0.0,0.0,0.0,0.0,0.0,0.0,0.0,0.0,0.0,0.0,0.0,0.0,0.0,0.0,0.0,0.0,0.0,0.0,-0.009,-0.0404,-0.0762,-0.0987,0.0,0.0,0.0,0.0,0.0,0.0,0.0,0.0,0.0,0.0,0.0,0.0,0.0,0.0,0.0,0.0,0.0,0.0,0.0,0.0,0.0,0.0,0.0,-0.8025,0.0,0.0,0.0,0.0,0.0,0.0,0.0,0.0,0.0,-0.862,-0.8621,-0.8698,-0.8808,-0.8982,-0.9161,-0.938,0.0,0.0,0.0,0.0,0.0,0.0,0.0,-0.9665,-0.9765,-0.9979,-1.0109,-1.0189,-1.0729,-1.1331,-1.176,0.0,0.0,-1.2292,-1.2553,-1.2924,-1.3331,-1.4097,-1.4854,-1.5129,-1.5754,-1.6286,0.0,0.0,0.0,0.0,0.0,0.0,0.0,0.0,0.0573,0.0852,0.0,0.0617,0.0,0.0,0.0,0.0,0.0,0.0,0.0,0.0,0.0,0.0,0.0,0.0,0.0,0.0,0.0,0.0,0.0,0.0,0.0,0.0,0.0,0.0,0.0,0.0,0.0,0.0,0.0,0.0,0.0,0.0,0.0,0.0,0.0,-0.0135,-0.0359,-0.0583,-0.0807,-0.1076,-0.1301,0.0,0.0,0.0,0.0,0.0,0.0,0.0,0.0,0.0,0.0,0.0,0.0,0.0,0.0,0.0,0.0,0.0,0.0,0.0,0.0,-0.7896,0.0,0.0,0.0,0.0,0.0,0.0,0.0,0.0,0.0,0.0,-0.8661,-0.8731,-0.8832,-0.8844,0.0,0.0,0.0,0.0,-0.9482,-0.9616,-0.9632,-0.9677,-0.9933,-0.978,-0.9665,-0.9826,0.0,0.0,-1.0957,-1.138,-1.1809,-1.2099,-1.2358,-1.2608,-1.3106,-1.3713,-1.4224,-1.4495,-1.4727,-1.5145,-1.5593,-1.5899,-1.6185,0.5426,0.0,0.0,0.0,0.0,0.2277,0.2464,0.2726,0.2429,0.2076,0.1674,0.1336,0.0,0.0,0.0,0.0,0.0,0.0,0.0,0.0,0.0,0.0,0.0,0.0,0.0,0.0,0.0,0.0,0.0,0.0,0.0,0.0,0.0,0.0,0.0,0.0,0.0,0.0,0.0,0.0,0.0,0.0,0.0,0.0,0.0,-0.0045,-0.009,-0.0359,-0.0538,-0.0583,-0.0987,0.0,0.0,0.0,0.0,0.0,0.0,0.0,0.0,0.0,0.0,0.0,0.0,0.0,0.0,0.0,0.0,0.0,0.0,0.0,-0.7459,-0.7808,-0.8025,0.0,0.0,0.0,0.0,0.0,0.0,0.0,0.0,0.0,-0.8938,-0.8986,-0.9064,0.0,0.0,-0.9348,-0.9522,-0.9551,-0.9612,-0.9786,-0.9705,0.0,0.0,-1.0054,-1.0248,-1.0485,-1.0909,-1.1371,-1.1895,-1.194,-1.2078,-1.2517,-1.3091,-1.3519,-1.3642,-1.355,-1.3502,-1.3579,-1.415,-1.4961,-1.5693,-1.6289,-1.6925,0.5695,0.4676,0.4549,0.3799,0.2768,0.3219,0.3414,0.3327,0.3354,0.2757,0.1766,0.1728,0.1099,0.0145,0.0049,0.0,0.0,0.0,0.0,0.0,0.0,0.0,0.0,0.0,0.0,0.0,0.0,0.0,0.0,0.0,0.0,0.0,0.0,0.0,0.0,0.0,0.0,0.0,0.0,0.0,0.0,0.0,0.0,0.0,0.0,0.0,0.0,-0.0269,-0.0448,-0.0538,-0.0897,-0.1122,0.0,0.0,0.0,0.0,0.0,0.0,0.0,0.0,0.0,0.0,0.0,-0.3052,-0.3578,0.0,0.0,0.0,-0.634,-0.6877,-0.7459,-0.7724,0.0,0.0,0.0,0.0,0.0,0.0,0.0,-0.8767,-0.8942,-0.9072,-0.9185,-0.9259,-0.9319,-0.94,-0.9417,-0.9502,-0.9562,0.0,-0.9615,-0.977,-0.9842,-1.0007,-1.0212,-1.0533,-1.085,-1.1194,-1.1536,-1.1927,-1.2473,-1.2487,-1.255,-1.2904,-1.3609,-1.4164,-1.4164,-1.4144,-1.4257,-1.4511,-1.5045,-1.5834,-1.6687,-1.72,-1.7704,0.5128,0.4013,0.3983,0.327,0.2233,0.3265,0.3644,0.3587,0.3581,0.2975,0.1979,0.1856,0.1274,0.0346,0.0102,0.0,0.0,0.0,0.0,0.0,0.0,0.0,0.0,0.0,0.0,0.0,0.0,0.0,0.0,0.0,0.0,0.0,0.0,0.0,0.0,0.0,0.0,0.0,0.0,0.0,0.0,0.0,0.0,0.0,0.0,0.0,0.0,-0.0225,-0.045,-0.0629,-0.09,-0.1171,-0.1349,0.0,0.0,0.0,0.0,0.0,0.0,0.0,0.0,0.0,0.0,0.0,0.0,0.0,0.0,0.0,-0.647,0.0,-0.7507,-0.7768,0.0,0.0,0.0,-0.8589,-0.8629,-0.8739,-0.8848,-0.8861,0.0,0.0,-0.942,-0.9522,-0.9567,-0.9445,-0.9527,-0.9624,-0.9624,-0.9694,-0.9698,-0.9768,-1.0147,-1.0583,-1.0811,-1.1075,-1.1443,-1.1927,-1.2073,-1.2273,-1.2673,-1.2915,-1.3055,-1.305,-1.3853,-1.4494,-1.4562,-1.5081,-1.5976,-1.6446,-1.6724,-1.7155,-1.786,-1.8145,-1.8238,0.4634,0.3045,0.3168,0.3062,0.2941,0.3206,0.3313,0.331,0.3298,0.2698,0.1683,0.1638,0.1098,0.0103,0.0052,0.0,0.0,0.0,0.0,0.0,0.0,0.0,0.0,0.0,0.0,0.0,0.0,0.0,0.0,0.0,0.0,0.0,0.0,0.0,0.0,0.0,0.0,0.0,0.0,0.0,0.0,0.0,0.0,0.0,0.0,0.0,0.0,-0.0046,-0.0138,-0.0184,-0.0606,-0.0887,-0.0873,-0.1258,0.0,0.0,0.0,0.0,0.0,0.0,0.0,0.0,0.0,-0.3136,-0.3715,0.0,-0.4746,0.0,-0.6653,-0.7272,-0.7768,-0.7856,0.0,0.0,-0.8637,-0.8759,-0.8763,-0.8922,-0.908,-0.9261,-0.9351,-0.9453,-0.9543,-0.955,-0.9562,-0.9567,-0.96,-0.9624,-0.9628,-1.0141,-1.0532,-1.0519,-1.0911,-1.127,-1.1352,-1.1589,-1.198,-1.2516,-1.2619,-1.2667,-1.2759,-1.2856,-1.2845,-1.2894,-1.3507,-1.3992,-1.4058,-1.4839,-1.5744,-1.6501,-1.6567,-1.667,-1.7486,-1.7907,-1.8295,0.426,0.263,0.2037,0.1788,0.1849,0.2966,0.3172,0.2685,0.3144,0.2434,0.0895,0.0895,0.0576,0.0,0.0,0.0,0.0,0.0,0.0,0.0,0.0,0.0,0.0,0.0,0.0,0.0,0.0,0.0,0.0,0.0,0.0,0.0,0.0,0.0,0.0,0.0,0.0,0.0,0.0,0.0,0.0,0.0,0.0,0.0,0.0,0.0,0.0,0.0,-0.0094,-0.0328,-0.0663,-0.0854,-0.1032,-0.1327,-0.1519,0.0,0.0,0.0,0.0,0.0,0.0,0.0,0.0,0.0,0.0,0.0,-0.5144,-0.6305,-0.6925,-0.7484,-0.7957,-0.8102,-0.8352,-0.875,-0.8885,-0.8946,-0.8942,-0.9104,-0.9246,-0.9392,-0.9425,-0.9514,-0.9612,-0.9624,-0.9624,-0.9624,-0.9624,-0.9624,-0.9682,-1.0207,-1.0616,-1.0666,-1.1264,-1.1806,-1.2058,-1.2203,-1.2467,-1.271,-1.2807,-1.2807,-1.2807,-1.2807,-1.2807,-1.2861,-1.3383,-1.3902,-1.3908,-1.4642,-1.5432,-1.578,-1.5927,-1.6447,-1.7738,-1.8247,-1.8558,0.4209,0.2861,0.118,0.0337,0.0224,0.2368,0.2679,0.1799,0.273,0.195,0.0,0.0,0.0,0.0,0.0,0.0,0.0,0.0,0.0,0.0,0.0,0.0,0.0,0.0,0.0,0.0,0.0,0.0,0.0,0.0,0.0,0.0,0.0,0.0,0.0,0.0,0.0,0.0,0.0,0.0,0.0,0.0,0.0,0.0,0.0,0.0,0.0,0.0,-0.0239,-0.0718,-0.0816,-0.1006,-0.1431,-0.1482,-0.1528,0.0,-0.1476,0.0,0.0,0.0,0.0,0.0,0.0,0.0,0.0,-0.477,-0.5723,-0.6758,-0.7296,-0.771,-0.8075,-0.8364,-0.8651,-0.908,-0.9116,-0.9129,-0.9137,-0.9283,-0.9437,-0.9441,-0.9531,-0.9624,-0.9624,-0.9624,-0.9624,-0.9624,-0.9624,-0.9624,-0.9677,-1.0102,-1.0528,-1.0493,-1.1477,-1.2307,-1.2651,-1.277,-1.2759,-1.2759,-1.2807,-1.2807,-1.2807,-1.2807,-1.2807,-1.2856,-1.3377,-1.3854,-1.3902,-1.4621,-1.5255,-1.5363,-1.566,-1.6373,-1.786,-1.8419,-1.8731,0.5192,0.4503,0.1885,0.0625,0.0448,0.0614,0.0609,0.0383,0.0591,0.0426,0.0,0.0,0.0,0.0,0.0,0.0,0.0,0.0,0.0,0.0,0.0,0.0,0.0,0.0,0.0,0.0,0.0,0.0,0.0,0.0,0.0,0.0,0.0,0.0,0.0,0.0,0.0,0.0,0.0,0.0,0.0,0.0,0.0,0.0,0.0,0.0,0.0,0.0,-0.0146,-0.0439,-0.0694,0.0,0.0,0.0,0.0,0.0,0.0,0.0,0.0,0.0,0.0,0.0,-0.3996,-0.4342,-0.441,-0.5858,-0.6901,-0.7131,-0.7602,-0.7984,-0.8245,-0.8525,-0.8773,-0.9049,-0.9222,-0.9355,-0.9359,-0.9466,-0.9575,-0.9526,-0.9608,-0.9624,-0.9624,-0.9624,-0.9628,-0.9628,-0.9628,-0.9624,-0.9624,-1.0233,-1.0829,-1.1284,-1.2153,-1.281,-1.2791,-1.2807,-1.2807,-1.2807,-1.2807,-1.2807,-1.2807,-1.2807,-1.2807,-1.2813,-1.3383,-1.3854,-1.3902,-1.4997,-1.5859,-1.5947,-1.6475,-1.7001,-1.7086,-1.7315,-1.7781,0.5313,0.0,0.2033,0.0637,0.0,0.0057,0.0,0.0,0.0,0.0,0.0,0.0,0.0,0.0,0.0,0.0,0.0,0.0,0.0,0.0,0.0,0.0,0.0,0.0,0.0,0.0,0.0,0.0,0.0,0.0,0.0,0.0,0.0,0.0,0.0,0.0,0.0,0.0,0.0,0.0,0.0,0.0,0.0,0.0,0.0,0.0,0.0,0.0,0.0,0.0,0.0,0.0,0.0,0.0,0.0,-0.1576,-0.1554,-0.1564,-0.155,-0.1694,-0.2263,-0.338,-0.4699,-0.5591,-0.5808,-0.6795,-0.7406,-0.7406,-0.7735,-0.8045,-0.8219,-0.8606,-0.8926,-0.9112,-0.934,-0.949,-0.9498,-0.9571,-0.9624,-0.9624,-0.9624,-0.9624,-0.9624,-0.9705,-0.9713,-0.9648,-0.9701,-0.9717,-0.9698,-1.0149,-1.0852,-1.1593,-1.2142,-1.2599,-1.2743,-1.2807,-1.2807,-1.2807,-1.2807,-1.2807,-1.2807,-1.2807,-1.2807,-1.2813,-1.3098,-1.3426,-1.3854,-1.4573,-1.5188,-1.5568,-1.5954,-1.6326,-1.6409,-1.7002,-1.7717,0.5558,0.4672,0.2313,0.0832,0.0178,0.0059,0.0,0.0,0.0,0.0,0.0,0.0,0.0,0.0,0.0,0.0,0.0,0.0,0.0,0.0,0.0,0.0,0.0,0.0,0.0,0.0,0.0,0.0,0.0,0.0,0.0,0.0,0.0,0.0,0.0,0.0,0.0,0.0,0.0,0.0,0.0,0.0,0.0,0.0,0.0,0.0,0.0,0.0,-0.0238,-0.0715,-0.0763,-0.0999,-0.1377,-0.1542,-0.1601,-0.1597,-0.157,-0.1574,-0.155,-0.1552,-0.2125,-0.3282,-0.535,-0.6819,-0.73,-0.7516,-0.7678,-0.7678,-0.7861,-0.806,-0.8236,-0.8732,-0.9077,-0.9221,-0.943,-0.9624,-0.9624,-0.9624,-0.9624,-0.9628,-0.9657,-0.9661,-0.964,-0.977,-0.9819,-0.9693,-0.9766,-0.9843,-0.9755,-1.0102,-1.0677,-1.1409,-1.1859,-1.2181,-1.2516,-1.2764,-1.2764,-1.2807,-1.2807,-1.2807,-1.2807,-1.2807,-1.2807,-1.2807,-1.2807,-1.3141,-1.3715,-1.4142,-1.4382,-1.514,-1.5432,-1.5669,-1.6305,-1.7111,-1.7775,0.6831,0.5553,0.3547,0.2022,0.0797,0.0245,0.0,0.0,0.0,0.0,0.0,0.0,0.0,0.0,0.0,0.0,0.0,0.0,0.0,0.0,0.0,0.0,0.0,0.0,0.0,0.0,0.0,0.0,0.0,0.0,0.0,0.0,0.0,0.0,0.0,0.0,0.0,0.0,0.0,0.0,0.0,0.0,0.0,0.0,0.0,0.0,0.0,0.0,-0.0143,-0.0429,-0.0668,-0.0899,-0.1163,-0.1398,-0.1482,-0.1412,-0.1413,-0.1413,-0.1411,-0.1478,-0.2346,-0.4271,-0.6283,-0.7526,-0.7677,-0.7853,-0.7928,-0.7974,-0.8143,-0.8326,-0.84,-0.8837,-0.914,-0.9171,-0.943,-0.9624,-0.9636,-0.9636,-0.9644,-0.9657,-0.9762,-0.9791,-0.9697,-0.9803,-0.9847,-0.9705,-0.9766,-0.9864,-0.9857,-1.0166,-1.0426,-1.0708,-1.1394,-1.1932,-1.2175,-1.2516,-1.271,-1.2807,-1.2807,-1.2807,-1.2807,-1.2807,-1.2807,-1.2807,-1.2807,-1.3093,-1.3763,-1.4478,-1.5003,-1.5717,-1.6237,-1.6756,-1.6904,-1.7156,-1.7421,0.6326,0.5349,0.2956,0.1481,0.0679,0.0185,0.0,0.0,0.0,0.0,0.0,0.0,0.0,0.0,0.0,0.0,0.0,0.0,0.0,0.0,0.0,0.0,0.0,0.0,0.0,0.0,0.0,0.0,0.0,0.0,0.0,0.0,0.0,0.0,0.0,0.0,0.0,0.0,0.0,0.0,0.0,0.0,0.0,0.0,0.0,0.0,0.0,0.0,-0.0188,-0.0563,-0.0696,-0.0919,-0.123,-0.1426,-0.1474,-0.1461,-0.1429,-0.1438,-0.1438,-0.2523,-0.3814,-0.5263,-0.6741,-0.7628,-0.7689,-0.776,-0.7801,-0.7801,-0.7894,-0.7942,-0.7994,-0.8504,-0.8852,-0.8848,-0.9322,-0.9615,-0.975,-0.9766,-0.9807,-0.9904,-0.9985,-1.0006,-0.9925,-1.0075,-1.0067,-0.9835,-0.9778,-0.975,-0.975,-0.9884,-1.0072,-1.0359,-1.0855,-1.1394,-1.1883,-1.2175,-1.2467,-1.271,-1.2807,-1.2807,-1.2807,-1.2807,-1.2807,-1.2807,-1.2807,-1.3098,-1.3763,-1.419,-1.4758,-1.5432,-1.5812,-1.6096,-1.6143,-1.6379,-1.6964,0.6265,0.5287,0.2895,0.1295,0.037,0.0124,0.0,0.0,0.0,0.0,0.0,0.0,0.0,0.0,0.0,0.0,0.0,0.0,0.0,0.0,0.0,0.0,0.0,0.0,0.0,0.0,0.0,0.0,0.0,0.0,0.0,0.0,0.0,0.0,0.0,0.0,0.0,0.0,0.0,0.0,0.0,0.0,0.0,0.0,0.0,0.0,0.0,0.0,-0.0186,-0.0605,-0.0688,-0.0911,-0.1328,-0.1429,-0.1484,-0.1491,-0.15,-0.16,-0.1881,-0.3519,-0.4966,-0.5851,-0.6886,-0.7509,-0.7543,-0.755,-0.7563,-0.759,-0.7611,-0.7607,-0.7773,-0.8218,-0.8638,-0.8698,-0.9225,-0.9669,-0.9799,-0.9827,-0.9876,-1.0018,-1.0159,-1.02,-1.014,-1.0257,-1.0221,-0.9929,-0.9738,-0.9595,-0.9673,-0.9661,-0.9776,-1.0117,-1.0314,-1.0708,-1.1536,-1.1883,-1.2175,-1.2565,-1.2716,-1.2764,-1.2807,-1.2807,-1.2807,-1.2807,-1.2807,-1.3098,-1.3715,-1.3902,-1.4286,-1.4956,-1.5242,-1.5194,-1.5242,-1.5575,-1.6347,0.7983,0.5898,0.4795,0.277,0.0,0.0,0.0,0.0,0.0,0.0,0.0,0.0,0.0,0.0,0.0,0.0,0.0,0.0,0.0,0.0,0.0,0.0,0.0,0.0,0.0,0.0,0.0,0.0,0.0,0.0,0.0,0.0,0.0,0.0,0.0,0.0,0.0,0.0,0.0,0.0,0.0,0.0,0.0,0.0,0.0,0.0,0.0,0.0,-0.0143,-0.0428,-0.0664,-0.0908,-0.121,-0.1416,-0.1493,-0.1518,-0.1428,-0.1804,-0.2708,-0.3733,-0.4694,-0.5662,-0.6601,-0.724,-0.74,-0.745,-0.7458,-0.7563,-0.7597,-0.7691,-0.7886,-0.8302,-0.8687,-0.8887,-0.9327,-0.9632,-0.9669,-0.9652,-0.9611,-0.9669,-0.9994,-1.0103,-1.0057,-1.0159,-1.0115,-0.9945,-0.977,-0.9701,-0.9795,-0.9709,-0.9628,-0.9776,-1.0068,-1.0408,-1.0703,-1.1438,-1.1834,-1.2078,-1.2467,-1.2667,-1.2716,-1.2759,-1.2807,-1.2807,-1.2807,-1.305,-1.3528,-1.3902,-1.41,-1.4532,-1.4813,-1.5003,-1.5099,-1.5146,-1.5703,0.7588,0.5598,0.4258,0.2278,0.0,0.0,0.0,0.0,0.0,0.0,0.0,0.0,0.0,0.0,0.0,0.0,0.0,0.0,0.0,0.0,0.0,0.0,0.0,0.0,0.0,0.0,0.0,0.0,0.0,0.0,0.0,0.0,0.0,0.0,0.0,0.0,0.0,0.0,0.0,0.0,0.0,0.0,0.0,0.0,0.0,0.0,0.0,0.0,-0.0197,-0.0591,-0.0724,-0.0968,-0.1396,-0.1509,-0.154,-0.1549,-0.1513,-0.1916,-0.2879,-0.3305,-0.4267,-0.5942,-0.6379,-0.6902,-0.7537,-0.7631,-0.7631,-0.7597,-0.76,-0.7644,-0.7752,-0.8255,-0.8638,-0.8806,-0.9278,-0.9665,-0.9774,-0.9774,-0.9811,-0.9929,-1.0118,-1.0188,-1.0126,-1.0167,-1.018,-1.0038,-0.9888,-0.9807,-0.9864,-0.9742,-0.964,-0.9628,-0.9821,-1.0072,-1.0364,-1.0703,-1.1149,-1.1536,-1.198,-1.2322,-1.237,-1.2619,-1.2807,-1.2759,-1.2807,-1.2856,-1.3147,-1.3244,-1.3389,-1.3817,-1.3817,-1.3865,-1.4292,-1.4382,-1.4902,0.7564,0.5519,0.3345,0.148,0.0,0.0,0.0,0.0,0.0,0.0,0.0,0.0,0.0,0.0,0.0,0.0,0.0,0.0,0.0,0.0,0.0,0.0,0.0,0.0,0.0,0.0,0.0,0.0,0.0,0.0,0.0,0.0,0.0,0.0,0.0,0.0,0.0,0.0,0.0,0.0,0.0,0.0,0.0,0.0,0.0,0.0,0.0,0.0,-0.0256,-0.0769,-0.0849,-0.1099,-0.1596,-0.1609,-0.1577,-0.1562,-0.1555,-0.1943,-0.2937,-0.2986,-0.3936,-0.5921,-0.621,-0.6657,-0.7537,-0.7814,-0.779,-0.775,-0.7719,-0.7757,-0.7849,-0.8302,-0.8635,-0.8839,-0.9323,-0.9681,-0.9786,-0.9815,-0.9847,-0.9989,-1.0018,-1.0135,-1.0139,-1.0126,-1.005,-0.9977,-0.9884,-0.9843,-0.986,-0.9786,-0.9721,-0.9762,-0.9778,-0.9879,-1.0147,-1.0364,-1.0609,-1.0904,-1.1443,-1.178,-1.1829,-1.2224,-1.2565,-1.2419,-1.2613,-1.2807,-1.2905,-1.2861,-1.2861,-1.2813,-1.2905,-1.3098,-1.3528,-1.357,-1.3806,0.8592,0.5714,0.2481,0.068,0.0,0.0,0.0,0.0,0.0,0.0,0.0,0.0,0.0,0.0,0.0,0.0,0.0,0.0,0.0,0.0,0.0,0.0,0.0,0.0,0.0,0.0,0.0,0.0,0.0,0.0,0.0,0.0,0.0,0.0,0.0,0.0,0.0,0.0,0.0,0.0,0.0,0.0,0.0,0.0,0.0,0.0,0.0,0.0,-0.0266,-0.0851,-0.09,-0.1174,-0.1678,-0.1663,-0.1594,-0.155,-0.1584,-0.2,-0.2761,-0.2904,-0.3839,-0.5589,-0.5945,-0.6542,-0.7699,-0.7858,-0.7892,-0.7948,-0.7934,-0.8032,-0.82,-0.8435,-0.8802,-0.9244,-0.9474,-0.9624,-0.9644,-0.9665,-0.964,-0.9697,-0.9815,-0.9888,-0.9896,-0.9947,-0.9851,-0.9758,-0.9619,-0.9713,-0.9843,-0.9864,-0.9896,-1.0002,-1.009,-1.0061,-0.9763,-1.0058,-1.0384,-1.0564,-1.0937,-1.1276,-1.1448,-1.1639,-1.1849,-1.2142,-1.2466,-1.2661,-1.2727,-1.2807,-1.2856,-1.2905,-1.2953,-1.3093,-1.3141,-1.2905,-1.3093,0.8523,0.5218,0.2014,0.0376,0.0,0.0,0.0,0.0,0.0,0.0,0.0,0.0,0.0,0.0,0.0,0.0,0.0,0.0,0.0,0.0,0.0,0.0,0.0,0.0,0.0,0.0,0.0,0.0,0.0,0.0,0.0,0.0,0.0,0.0,0.0,0.0,0.0,0.0,0.0,0.0,0.0,0.0,0.0,0.0,0.0,0.0,0.0,0.0,-0.0271,-0.0867,-0.0859,-0.1189,-0.1712,-0.173,-0.1746,-0.1672,-0.1671,-0.1832,-0.2152,-0.2185,-0.3116,-0.5129,-0.5417,-0.6242,-0.7704,-0.8102,-0.8092,-0.8005,-0.7988,-0.8118,-0.8363,-0.8563,-0.889,-0.9196,-0.9485,-0.9624,-0.9624,-0.9624,-0.9624,-0.9636,-0.9693,-0.9717,-0.9754,-0.9815,-0.9855,-0.9811,-0.9791,-0.9811,-0.9835,-0.9799,-0.977,-0.9803,-0.9823,-0.9819,-0.9839,-1.0061,-1.031,-1.0336,-1.0508,-1.081,-1.1043,-1.1391,-1.1721,-1.1939,-1.2267,-1.2646,-1.2778,-1.3402,-1.3342,-1.3034,-1.3077,-1.319,-1.2905,-1.2905,-1.2856,0.7749,0.5006,0.1919,0.0382,0.0,0.0,0.0,0.0,0.0,0.0,0.0,0.0,0.0,0.0,0.0,0.0,0.0,0.0,0.0,0.0,0.0,0.0,0.0,0.0,0.0,0.0,0.0,0.0,0.0,0.0,0.0,0.0,0.0,0.0,0.0,0.0,0.0,0.0,0.0,0.0,0.0,0.0,0.0,0.0,0.0,0.0,0.0,0.0,-0.0276,-0.0825,-0.0873,-0.1148,-0.172,-0.1826,-0.1809,-0.1791,-0.1735,-0.1737,-0.1799,-0.1731,-0.2695,-0.4839,-0.5118,-0.5962,-0.7965,-0.8225,-0.8143,-0.8015,-0.7988,-0.8137,-0.8482,-0.8722,-0.8928,-0.9187,-0.943,-0.9628,-0.9624,-0.9624,-0.9624,-0.9624,-0.9632,-0.9632,-0.9636,-0.973,-0.9778,-0.9799,-0.9803,-0.9815,-0.9847,-0.9795,-0.9746,-0.9791,-0.9847,-0.9908,-0.9945,-1.0145,-1.0164,-1.0141,-1.0167,-1.0408,-1.0625,-1.1108,-1.1452,-1.1738,-1.2133,-1.2515,-1.3089,-1.3803,-1.38,-1.3442,-1.3471,-1.3667,-1.3383,-1.3098,-1.305,0.6301,0.5199,0.228,0.0581,0.0,0.0,0.0,0.0,0.0,0.0,0.0,0.0,0.0,0.0,0.0,0.0,0.0,0.0,0.0,0.0,0.0,0.0,0.0,0.0,0.0,0.0,0.0,0.0,0.0,0.0,0.0,0.0,0.0,0.0,0.0,0.0,0.0,0.0,0.0,0.0,0.0,0.0,0.0,0.0,0.0,0.0,0.0,0.0,-0.028,-0.0784,-0.0895,-0.1168,-0.1708,-0.1778,-0.1769,-0.1733,-0.1762,-0.1776,-0.181,-0.1803,-0.2724,-0.4671,-0.4968,-0.5864,-0.7795,-0.8157,-0.8029,-0.8022,-0.8048,-0.8191,-0.8641,-0.8801,-0.8947,-0.9187,-0.9496,-0.9657,-0.9632,-0.9624,-0.9624,-0.9624,-0.9624,-0.9624,-0.9624,-0.9648,-0.9665,-0.9665,-0.9665,-0.9705,-0.9811,-0.9811,-0.9937,-1.0038,-0.9985,-0.9925,-1.0094,-1.0192,-1.0086,-0.9992,-0.9988,-1.0094,-1.0154,-1.0497,-1.0892,-1.1295,-1.2496,-1.2932,-1.3413,-1.4144,-1.4741,-1.4558,-1.4437,-1.4112,-1.3811,-1.3528,-1.3286,0.6238,0.529,0.2339,0.066,0.0,0.0,0.0,0.0,0.0,0.0,0.0,0.0,0.0,0.0,0.0,0.0,0.0,0.0,0.0,0.0,0.0,0.0,0.0,0.0,0.0,0.0,0.0,0.0,0.0,0.0,0.0,0.0,0.0,0.0,0.0,0.0,0.0,0.0,0.0,0.0,0.0,0.0,0.0,0.0,0.0,0.0,0.0,0.0,0.0,-0.0841,-0.0897,-0.1175,-0.1673,-0.179,-0.1786,-0.1772,-0.1782,-0.1792,-0.178,-0.1871,-0.2732,-0.4563,-0.5067,-0.6128,-0.7923,-0.8228,-0.8191,-0.818,-0.8109,-0.8172,-0.8618,-0.8899,-0.911,-0.9446,-0.9684,-0.9754,-0.9661,-0.9636,-0.9624,-0.9624,-0.9624,-0.9624,-0.9624,-0.9624,-0.9624,-0.9624,-0.9624,-0.9665,-0.9697,-0.9726,-0.9713,-0.9786,-0.9803,-0.9876,-0.9937,-0.9973,-0.992,-0.99,-0.9925,-0.9888,-0.9902,-1.0057,-1.0437,-1.1138,-1.235,-1.3247,-1.378,-1.4527,-1.5195,-1.5346,-1.4988,-1.4653,-1.4262,-1.3908,-1.3522,0.6856,0.5404,0.3001,0.1147,0.0,0.0,0.0,0.0,0.0,0.0,0.0,0.0,0.0,0.0,0.0,0.0,0.0,0.0,0.0,0.0,0.0,0.0,0.0,0.0,0.0,0.0,0.0,0.0,0.0,0.0,0.0,0.0,0.0,0.0,0.0,0.0,0.0,0.0,0.0,0.0,0.0,0.0,0.0,0.0,0.0,0.0,0.0,0.0,-0.028,-0.0841,-0.1065,-0.1402,-0.1739,-0.1795,-0.1795,-0.1795,-0.1795,-0.1795,-0.1793,-0.1833,-0.2812,-0.4666,-0.5144,-0.6085,-0.7854,-0.8364,-0.8323,-0.8252,-0.8187,-0.8268,-0.8656,-0.8991,-0.932,-0.9595,-0.9874,-0.9904,-0.9766,-0.9721,-0.9681,-0.9657,-0.9624,-0.9624,-0.9624,-0.9624,-0.9624,-0.9624,-0.9624,-0.9624,-0.9624,-0.9632,-0.9632,-0.9632,-0.9669,-0.9734,-0.9778,-0.9791,-0.9791,-0.9839,-0.99,-0.9839,-0.9782,-0.9967,-1.0304,-1.1034,-1.2108,-1.292,-1.3532,-1.5016,-1.594,-1.5677,-1.5303,-1.523,-1.4813,-1.3956,-1.357,0.7832,0.5679,0.4023,0.1989,0.0,0.0,0.0,0.0,0.0,0.0,0.0,0.0,0.0,0.0,0.0,0.0,0.0,0.0,0.0,0.0,0.0,0.0,0.0,0.0,0.0,0.0,0.0,0.0,0.0,0.0,0.0,0.0,0.0,0.0,0.0,0.0,0.0,0.0,0.0,0.0,0.0,0.0,0.0,0.0,0.0,0.0,0.0,0.0,-0.0336,-0.0897,-0.1402,-0.1739,-0.1795,-0.1795,-0.1795,-0.1795,-0.1795,-0.1795,-0.1795,-0.1791,-0.2738,-0.4732,-0.5174,-0.6049,-0.7946,-0.8367,-0.8405,-0.8347,-0.8354,-0.8446,-0.8749,-0.9101,-0.9436,-0.9717,-1.0048,-1.0063,-0.998,-0.9892,-0.9791,-0.9665,-0.9624,-0.9636,-0.9657,-0.9665,-0.9661,-0.9669,-0.9681,-0.9713,-0.9636,-0.964,-0.964,-0.9632,-0.9628,-0.9648,-0.9709,-0.9709,-0.9709,-0.9738,-0.9803,-0.977,-0.9746,-0.988,-1.0045,-1.0831,-1.1611,-1.248,-1.3386,-1.4646,-1.5452,-1.5273,-1.5244,-1.5504,-1.4997,-1.3998,-1.3431,0.7898,0.5687,0.413,0.2145,0.0,0.0,0.0,0.0,0.0,0.0,0.0,0.0,0.0,0.0,0.0,0.0,0.0,0.0,0.0,0.0,0.0,0.0,0.0,0.0,0.0,0.0,0.0,0.0,0.0,0.0,0.0,0.0,0.0,0.0,0.0,0.0,0.0,0.0,0.0,0.0,0.0,0.0,0.0,0.0,0.0,0.0,0.0,-0.0448,-0.0729,-0.0897,-0.1514,-0.1795,-0.1795,-0.1795,-0.1795,-0.1795,-0.1795,-0.1795,-0.1795,-0.1795,-0.2576,-0.3914,-0.4893,-0.5905,-0.7191,-0.8157,-0.8488,-0.8574,-0.8559,-0.8573,-0.8934,-0.9317,-0.9766,-1.0278,-1.0286,-1.0216,-1.0126,-0.9961,-0.9819,-0.9665,-0.9632,-0.9705,-0.977,-0.9815,-0.9815,-0.9839,-0.9876,-0.9896,-0.9746,-0.9705,-0.9721,-0.9648,-0.9624,-0.9624,-0.9636,-0.9636,-0.964,-0.9648,-0.9677,-0.9685,-0.9705,-0.9799,-0.9931,-1.0251,-1.1123,-1.2008,-1.2597,-1.3518,-1.3964,-1.4416,-1.4376,-1.4334,-1.4142,-1.3474,-1.3141,0.8817,0.6876,0.5207,0.3201,0.1244,0.0339,0.0,0.0,0.0,0.0,0.0,0.0,0.0,0.0,0.0,0.0,0.0,0.0,0.0,0.0,0.0,0.0,0.0,0.0,0.0,0.0,0.0,0.0,0.0,0.0,0.0,0.0,0.0,0.0,0.0,0.0,0.0,0.0,0.0,0.0,0.0,0.0,0.0,0.0,0.0,0.0,0.0,-0.0561,-0.0897,-0.1009,-0.1458,-0.1795,-0.1795,-0.1795,-0.1795,-0.1795,-0.1795,-0.1795,-0.1795,-0.1795,-0.2353,-0.3525,-0.4695,-0.5837,-0.6939,-0.8046,-0.8713,-0.8689,-0.8618,-0.8685,-0.8961,-0.9356,-0.9926,-1.0358,-1.0451,-1.0322,-1.0193,-1.0144,-0.9953,-0.9778,-0.9758,-0.9839,-0.99,-0.9945,-1.0041,-1.0049,-0.9981,-0.9912,-0.9799,-0.9803,-0.9766,-0.9673,-0.9624,-0.9624,-0.9624,-0.9624,-0.9624,-0.9628,-0.9628,-0.9628,-0.9661,-0.9726,-0.975,-1.0012,-1.0786,-1.1364,-1.1884,-1.2311,-1.2708,-1.304,-1.3055,-1.3136,-1.3039,-1.3184,-1.2899,1.0155,0.8522,0.6768,0.4814,0.271,0.102,0.0,0.0,0.0,0.0,0.0,0.0,0.0,0.0,0.0,0.0,0.0,0.0,0.0,0.0,0.0,0.0,0.0,0.0,0.0,0.0,0.0,0.0,0.0,0.0,0.0,0.0,0.0,0.0,0.0,0.0,0.0,0.0,0.0,0.0,0.0,0.0,0.0,0.0,0.0,0.0,0.0,-0.0561,-0.0897,-0.0897,-0.1458,-0.1739,-0.1795,-0.1795,-0.1795,-0.1795,-0.1795,-0.1795,-0.1795,-0.1851,-0.2186,-0.3246,-0.4414,-0.5697,-0.6677,-0.7716,-0.8432,-0.8706,-0.8737,-0.8743,-0.8926,-0.9406,-0.9845,-1.0249,-1.0507,-1.0471,-1.0318,-1.0335,-1.0233,-0.9786,-0.9989,-1.0038,-1.0026,-1.011,-1.0224,-1.0006,-1.0018,-0.9998,-0.9868,-0.9786,-0.9734,-0.9648,-0.9624,-0.9624,-0.9624,-0.9624,-0.9624,-0.9628,-0.9628,-0.9624,-0.9624,-0.9657,-0.9644,-0.9871,-1.03,-1.0599,-1.0879,-1.1266,-1.159,-1.1834,-1.2014,-1.2111,-1.2257,-1.2597,-1.2554,1.0317,0.8485,0.7792,0.5688,0.2886,0.1964,0.1009,0.0,0.0,0.0,0.0,0.0,0.0,0.0,0.0,0.0,0.0,0.0,0.0,0.0,0.0,0.0,0.0,0.0,0.0,0.0,0.0,0.0,0.0,0.0,0.0,0.0,0.0,0.0,0.0,0.0,0.0,0.0,0.0,0.0,0.0,0.0,0.0,0.0,0.0,0.0,0.0,-0.0561,-0.0897,-0.1009,-0.1458,-0.1795,-0.1795,-0.1795,-0.1795,-0.1795,-0.1795,-0.1795,-0.1795,-0.1795,-0.1907,-0.2353,-0.3469,-0.4472,-0.5641,-0.6848,-0.7883,-0.8553,-0.8889,-0.8927,-0.915,-0.935,-0.9706,-1.0091,-1.0359,-1.0397,-1.0387,-1.0358,-1.0306,-1.0136,-1.0103,-1.02,-1.0167,-1.0249,-1.0241,-1.0059,-1.0022,-1.0011,-0.9945,-0.9786,-0.9705,-0.9632,-0.9624,-0.9624,-0.9624,-0.9624,-0.9624,-0.9624,-0.9624,-0.9624,-0.9624,-0.9624,-0.9624,-0.9624,-0.969,-0.9965,-1.0306,-1.0162,-1.0462,-1.0748,-1.1037,-1.1189,-1.1482,-1.1922,-1.236,1.0733,0.9803,0.8697,0.6992,0.506,0.3847,0.2485,0.1211,0.1009,0.0605,0.0,0.0,0.0,0.0,0.0,0.0,0.0,0.0,0.0,0.0,0.0,0.0,0.0,0.0,0.0,0.0,0.0,0.0,0.0,0.0,0.0,0.0,0.0,0.0,0.0,0.0,0.0,0.0,0.0,0.0,0.0,0.0,0.0,0.0,0.0,0.0,0.0,-0.0563,-0.0842,-0.1065,-0.1458,-0.1795,-0.1795,-0.1795,-0.1795,-0.1795,-0.1795,-0.1795,-0.1795,-0.1795,-0.1795,-0.1851,-0.2912,-0.4137,-0.5306,-0.6422,-0.7598,-0.8546,-0.8933,-0.8992,-0.9161,-0.9379,-0.9599,-0.9816,-1.0147,-1.0268,-1.0361,-1.0446,-1.0444,-1.0339,-1.0363,-1.0339,-1.0379,-1.0412,-1.0379,-1.0225,-0.9961,-0.9981,-0.992,-0.9774,-0.9701,-0.9595,-0.9632,-0.9624,-0.9624,-0.9624,-0.9624,-0.9624,-0.9624,-0.9624,-0.9624,-0.9624,-0.9624,-0.9624,-0.9624,-0.9624,-0.9821,-0.9628,-0.9628,-0.9965,-1.031,-1.0413,-1.0654,-1.1091,-1.1629,1.1209,1.1201,0.9512,0.8354,0.7428,0.5792,0.4091,0.2553,0.2151,0.1345,0.0,0.0135,0.0,0.0,0.0,0.0,0.0,0.0,0.0,0.0,0.0,0.0,0.0,0.0,0.0,0.0,0.0,0.0,0.0,0.0,0.0,0.0,0.0,0.0,0.0,0.0,0.0,0.0,0.0,0.0,0.0,0.0,0.0,0.0,0.0,0.0,0.0,-0.0511,-0.09,-0.0954,-0.1458,-0.1739,-0.1795,-0.1795,-0.1795,-0.1795,-0.1795,-0.1795,-0.1795,-0.1795,-0.1795,-0.1851,-0.2632,-0.3804,-0.4918,-0.6031,-0.7152,-0.8159,-0.866,-0.8937,-0.8937,-0.9103,-0.9323,-0.9485,-0.9926,-1.0147,-1.0257,-1.0468,-1.0421,-1.0445,-1.0448,-1.0513,-1.0477,-1.0469,-1.0387,-1.031,-1.0091,-0.9888,-0.9831,-0.9766,-0.9635,-0.9595,-0.9632,-0.9624,-0.9624,-0.9624,-0.9624,-0.9624,-0.9624,-0.9624,-0.9624,-0.9624,-0.9624,-0.9624,-0.9624,-0.9624,-0.9624,-0.9628,-0.9628,-0.9624,-0.9723,-0.9969,-1.0167,-1.031,-1.0949,1.1271,1.1189,1.0418,0.912,0.7603,0.6909,0.5631,0.3892,0.2754,0.2016,0.1614,0.0,0.0,0.0,0.0,0.0,0.0,0.0,0.0,0.0,0.0,0.0,0.0,0.0,0.0,0.0,0.0,0.0,0.0,0.0,0.0,0.0,0.0,0.0,0.0,0.0,0.0,0.0,0.0,0.0,0.0,0.0,0.0,0.0,0.0,0.0,0.0,-0.0516,-0.091,-0.0955,-0.1458,-0.1739,-0.1795,-0.1795,-0.1795,-0.1795,-0.1795,-0.1795,-0.1795,-0.1795,-0.1795,-0.1851,-0.2074,-0.2745,-0.3916,-0.5029,-0.6202,-0.7432,-0.838,-0.8937,-0.8937,-0.8992,-0.9103,-0.9323,-0.9485,-0.9706,-0.9871,-1.0135,-1.0398,-1.0399,-1.051,-1.0651,-1.0578,-1.0435,-1.0362,-1.0269,-1.0059,-0.9912,-0.9811,-0.9688,-0.9603,-0.9583,-0.9628,-0.9624,-0.9624,-0.9624,-0.9624,-0.9624,-0.9624,-0.9624,-0.9624,-0.9624,-0.9624,-0.9624,-0.9624,-0.9624,-0.9624,-0.9624,-0.9624,-0.9624,-0.9628,-0.9628,-0.9821,-1.0068,-1.0609,1.1185,1.1046,1.0768,0.9976,0.8926,0.8512,0.7376,0.57,0.4698,0.3425,0.2285,0.1345,0.0606,0.0,0.0,0.0,0.0,0.0,0.0,0.0,0.0,0.0,0.0,0.0,0.0,0.0,0.0,0.0,0.0,0.0,0.0,0.0,0.0,0.0,0.0,0.0,0.0,0.0,0.0,0.0,0.0,0.0,0.0,0.0,0.0,0.0,0.0,-0.0347,-0.0688,-0.0909,-0.1296,-0.1628,-0.1739,-0.1795,-0.1795,-0.1795,-0.1795,-0.1795,-0.1795,-0.1795,-0.1795,-0.1795,-0.1795,-0.2409,-0.3302,-0.4249,-0.531,-0.6871,-0.8156,-0.8937,-0.8937,-0.8937,-0.8992,-0.9106,-0.9268,-0.9434,-0.9599,-0.9871,-1.0091,-1.0257,-1.0359,-1.0445,-1.0564,-1.0467,-1.0293,-1.0152,-0.9948,-0.9851,-0.9756,-0.956,-0.9381,-0.948,-0.9476,-0.948,-0.948,-0.9529,-0.9575,-0.9624,-0.9624,-0.9624,-0.9624,-0.9624,-0.9624,-0.9624,-0.9624,-0.9624,-0.9624,-0.9624,-0.9624,-0.9624,-0.9628,-0.9628,-0.9677,-0.9875,-1.0364,1.1053,1.088,1.0847,1.0632,1.0199,0.9864,0.8853,0.751,0.6575,0.5101,0.309,0.2285,0.1412,0.0,0.0,0.0,0.0,0.0,0.0,0.0,0.0,0.0,0.0,0.0,0.0,0.0,0.0,0.0,0.0,0.0,0.0,0.0,0.0,0.0,0.0,0.0,0.0,0.0,0.0,0.0,0.0,0.0,0.0,0.0,0.0,0.0,0.0,-0.0413,-0.0638,-0.0919,-0.125,-0.1521,-0.174,-0.1795,-0.1795,-0.1795,-0.1795,-0.1795,-0.1795,-0.1795,-0.1795,-0.1795,-0.1795,-0.2353,-0.3079,-0.386,-0.4973,-0.6816,-0.8159,-0.8881,-0.8937,-0.8937,-0.8937,-0.894,-0.9161,-0.9327,-0.9379,-0.9485,-0.9706,-0.9871,-1.0036,-1.0131,-1.0261,-1.0201,-0.9976,-0.9855,-0.9707,-0.9544,-0.9408,-0.9245,-0.913,-0.9278,-0.9331,-0.9282,-0.9331,-0.9381,-0.9476,-0.9575,-0.9624,-0.9624,-0.9624,-0.9624,-0.9624,-0.9624,-0.9624,-0.9624,-0.9624,-0.9624,-0.9624,-0.9624,-0.9624,-0.9628,-0.9628,-0.9727,-1.0068,1.0894,1.0867,1.0739,1.0538,1.0193,0.9861,0.9389,0.8648,0.7176,0.6307,0.5369,0.3358,0.2218,0.148,0.0404,0.0,0.0,0.0,0.0,0.0,0.0,0.0,0.0,0.0,0.0,0.0,0.0,0.0,0.0,0.0,0.0,0.0,0.0,0.0,0.0,0.0,0.0,0.0,0.0,0.0,0.0,0.0,0.0,0.0,0.0,0.0,0.0,-0.0419,-0.0769,-0.0925,-0.1437,-0.1707,-0.1801,-0.1795,-0.1795,-0.1795,-0.1795,-0.1795,-0.1795,-0.1795,-0.1795,-0.1795,-0.1795,-0.1907,-0.2521,-0.3914,-0.5363,-0.6874,-0.8103,-0.883,-0.8881,-0.8937,-0.8937,-0.8937,-0.8992,-0.9047,-0.9047,-0.9213,-0.9375,-0.9434,-0.9599,-0.9706,-0.9801,-0.9725,-0.9651,-0.9534,-0.9406,-0.9292,-0.9152,-0.8988,-0.8832,-0.8981,-0.913,-0.908,-0.9183,-0.9232,-0.943,-0.9525,-0.9579,-0.9628,-0.9624,-0.9624,-0.9624,-0.9624,-0.9624,-0.9624,-0.9624,-0.9624,-0.9624,-0.9624,-0.9624,-0.9624,-0.9624,-0.9723,-0.9821,1.0819,1.0812,1.0681,1.0588,1.0392,0.9927,0.9594,0.9189,0.8184,0.7181,0.6374,0.5235,0.3694,0.2083,0.0606,0.0,0.0,0.0,0.0,0.0,0.0,0.0,0.0,0.0,0.0,0.0,0.0,0.0,0.0,0.0,0.0,0.0,0.0,0.0,0.0,0.0,0.0,0.0,0.0,0.0,0.0,0.0,0.0,0.0,0.0,0.0,0.0,-0.0182,-0.0601,-0.0825,-0.1224,-0.1491,-0.1706,-0.1806,-0.1795,-0.1795,-0.1795,-0.1795,-0.1795,-0.1795,-0.1795,-0.1795,-0.1795,-0.1851,-0.2185,-0.3357,-0.4916,-0.6033,-0.7207,-0.8103,-0.8716,-0.8881,-0.8937,-0.8937,-0.8937,-0.8937,-0.8937,-0.8992,-0.9103,-0.9103,-0.9106,-0.9268,-0.9398,-0.937,-0.9343,-0.9271,-0.9127,-0.8958,-0.8898,-0.8862,-0.873,-0.8581,-0.873,-0.8878,-0.8981,-0.908,-0.9331,-0.948,-0.9579,-0.9579,-0.9628,-0.9624,-0.9624,-0.9624,-0.9624,-0.9624,-0.9624,-0.9624,-0.9624,-0.9624,-0.9624,-0.9624,-0.9624,-0.9628,-0.9821,1.0721,1.0721,1.0721,1.0721,1.0654,1.006,0.9794,0.9594,0.8989,0.8051,0.6978,0.604,0.4297,0.2218,0.0,0.0,0.0,0.0,0.0,0.0,0.0,0.0,0.0,0.0,0.0,0.0,0.0,0.0,0.0,0.0,0.0,0.0,0.0,0.0,0.0,0.0,0.0,0.0,0.0,0.0,0.0,0.0,0.0,0.0,0.0,0.0,0.0,-0.0122,-0.0425,-0.0779,-0.1064,-0.14,-0.1736,-0.1827,-0.1812,-0.1808,-0.1804,-0.1795,-0.1795,-0.1795,-0.1795,-0.1795,-0.1795,-0.1795,-0.1963,-0.2912,-0.3858,-0.4916,-0.648,-0.7487,-0.8269,-0.8605,-0.8937,-0.8937,-0.8937,-0.8937,-0.8937,-0.8992,-0.8992,-0.8992,-0.8992,-0.8992,-0.904,-0.9007,-0.9037,-0.9014,-0.8859,-0.8632,-0.8603,-0.8634,-0.8531,-0.8333,-0.8382,-0.8581,-0.873,-0.8931,-0.9183,-0.943,-0.9533,-0.9583,-0.9579,-0.9628,-0.9624,-0.9624,-0.9624,-0.9624,-0.9624,-0.9624,-0.9624,-0.9624,-0.9624,-0.9624,-0.9624,-0.9624,-0.9772,1.0721,1.0721,1.0721,1.0721,1.0651,1.0326,0.9994,0.9661,0.9253,0.8784,0.7915,0.5769,0.3759,0.2151,0.0,0.0,0.0,0.0,0.0,0.0,0.0,0.0,0.0,0.0,0.0,0.0,0.0,0.0,0.0,0.0,0.0,0.0,0.0,0.0,0.0,0.0,0.0,0.0,0.0,0.0,0.0,0.0,0.0,0.0,0.0,0.0,0.0,-0.0246,-0.0551,-0.0908,-0.1139,-0.1427,-0.1763,-0.1848,-0.1774,-0.1825,-0.1806,-0.1797,-0.1795,-0.1795,-0.1795,-0.1795,-0.1795,-0.1795,-0.1851,-0.2856,-0.358,-0.397,-0.5532,-0.676,-0.7487,-0.8103,-0.8546,-0.8937,-0.8937,-0.8937,-0.8937,-0.8937,-0.8937,-0.8937,-0.8937,-0.8937,-0.8845,-0.8814,-0.8757,-0.8793,-0.8514,-0.8292,-0.8232,-0.8233,-0.8187,-0.8088,-0.8088,-0.8237,-0.8432,-0.8684,-0.908,-0.9331,-0.943,-0.9533,-0.9583,-0.9579,-0.9628,-0.9624,-0.9624,-0.9624,-0.9624,-0.9624,-0.9624,-0.9624,-0.9624,-0.9624,-0.9624,-0.9624,-0.9821,1.0721,1.0721,1.0721,1.0721,1.0651,1.0326,0.9994,0.9661,0.9253,0.892,0.8451,0.5633,0.4026,0.2955,0.0,0.0,0.0,0.0,0.0,0.0,0.0,0.0,0.0,0.0,0.0,0.0,0.0,0.0,0.0,0.0,0.0,0.0,0.0,0.0,0.0,0.0,0.0,0.0,0.0,0.0,0.0,0.0,0.0,0.0,0.0,0.0,0.0,0.0,-0.0615,-0.0978,-0.1213,-0.1565,-0.1847,-0.1809,-0.1788,-0.178,-0.1811,-0.1797,-0.1795,-0.1795,-0.1795,-0.1795,-0.1795,-0.1795,-0.1795,-0.2297,-0.2968,-0.3636,-0.4418,-0.5477,-0.7041,-0.7543,-0.7934,-0.8602,-0.8937,-0.8937,-0.8937,-0.8937,-0.8937,-0.8937,-0.8937,-0.8937,-0.8811,-0.8672,-0.8627,-0.8514,-0.8225,-0.7988,-0.7988,-0.7988,-0.7988,-0.8038,-0.8088,-0.8237,-0.8482,-0.873,-0.8981,-0.9183,-0.9381,-0.948,-0.9579,-0.9579,-0.9624,-0.9624,-0.9624,-0.9624,-0.9624,-0.9624,-0.9624,-0.9624,-0.9624,-0.9624,-0.9624,-0.9624,-0.9772,1.0721,1.0721,1.0721,1.0721,1.0654,1.0459,1.0057,0.9728,0.9389,0.8984,0.8451,0.6036,0.4899,0.4093,0.0,0.0,0.0,0.0,0.0,0.0,0.0,0.0,0.0,0.0,0.0,0.0,0.0,0.0,0.0,0.0,0.0,0.0,0.0,0.0,0.0,0.0,0.0,0.0,0.0,0.0,0.0,0.0,0.0,0.0,0.0,0.0,0.0,-0.0309,-0.0679,-0.0984,-0.1284,-0.1577,-0.1737,-0.1828,-0.1855,-0.1834,-0.1815,-0.1796,-0.1795,-0.1795,-0.1795,-0.1795,-0.1795,-0.1795,-0.1795,-0.1795,-0.2353,-0.28,-0.3357,-0.4305,-0.6202,-0.6591,-0.7318,-0.8045,-0.8771,-0.8937,-0.8937,-0.8937,-0.8937,-0.8937,-0.8937,-0.8933,-0.8821,-0.8672,-0.8452,-0.835,-0.8177,-0.7988,-0.7988,-0.7988,-0.7988,-0.8038,-0.8088,-0.8333,-0.8627,-0.868,-0.8832,-0.9183,-0.9331,-0.948,-0.9529,-0.9579,-0.9624,-0.9624,-0.9624,-0.9624,-0.9624,-0.9624,-0.9624,-0.9624,-0.9624,-0.9624,-0.9624,-0.9624,-0.9624,1.0721,1.0721,1.0721,1.0721,1.0721,1.0717,1.0323,0.9728,0.9594,0.9189,0.8454,0.6842,0.6174,0.557,0.3156,0.2151,0.1748,0.0807,0.0,0.0,0.0,0.0,0.0,0.0,0.0,0.0,0.0,0.0,0.0,0.0,0.0,0.0,0.0,0.0,0.0,0.0,0.0,0.0,0.0,0.0,0.0,0.0,0.0,0.0,0.0,0.0,0.0,0.0,-0.0677,-0.0986,-0.129,-0.1584,-0.1867,-0.1899,-0.1868,-0.1783,-0.1814,-0.1799,-0.1795,-0.1795,-0.1795,-0.1795,-0.1795,-0.1795,-0.1795,-0.1851,-0.1851,-0.2353,-0.28,-0.3413,-0.4528,-0.5477,-0.6424,-0.7318,-0.8042,-0.8546,-0.8491,-0.8937,-0.8937,-0.8937,-0.8937,-0.892,-0.8821,-0.8672,-0.8384,-0.8211,-0.8039,-0.7988,-0.7988,-0.7988,-0.7988,-0.8038,-0.8137,-0.8283,-0.8478,-0.8528,-0.868,-0.9031,-0.9331,-0.948,-0.9579,-0.9579,-0.9624,-0.9624,-0.9624,-0.9624,-0.9624,-0.9624,-0.9624,-0.9624,-0.9624,-0.9624,-0.9624,-0.9624,-0.9624,1.0721,1.0721,1.0721,1.0721,1.0721,1.0721,1.0323,0.9661,0.9192,0.8856,0.832,0.7047,0.6376,0.5705,0.4698,0.3557,0.329,0.2083,0.1412,0.1277,0.0538,0.0,0.0,0.0,0.0,0.0,0.0,0.0,0.0,0.0,0.0,0.0,0.0,0.0,0.0,0.0,0.0,0.0,0.0,0.0,0.0,0.0,0.0,0.0,0.0,0.0,0.0,0.0,-0.0674,-0.0985,-0.129,-0.1581,-0.1808,-0.1903,-0.1874,-0.1791,-0.1825,-0.1814,-0.1802,-0.1795,-0.1795,-0.1795,-0.1795,-0.1795,-0.1795,-0.1795,-0.1795,-0.1795,-0.2241,-0.2856,-0.3748,-0.4139,-0.492,-0.5975,-0.6755,-0.7374,-0.7709,-0.8546,-0.8937,-0.8937,-0.8937,-0.8876,-0.8791,-0.8696,-0.8448,-0.8252,-0.8147,-0.8012,-0.7992,-0.7988,-0.7988,-0.8088,-0.8187,-0.8283,-0.8382,-0.8482,-0.8684,-0.9084,-0.9331,-0.9529,-0.9628,-0.9624,-0.9624,-0.9624,-0.9624,-0.9624,-0.9624,-0.9624,-0.9624,-0.9624,-0.9624,-0.9624,-0.9624,-0.9624,-0.9624,1.0721,1.0721,1.0721,1.0721,1.0721,1.0721,1.0323,0.9658,0.9056,0.872,0.8387,0.7581,0.7181,0.6775,0.5769,0.5031,0.483,0.3557,0.2285,0.2151,0.1211,0.0,0.0,0.0,0.0,0.0,0.0,0.0,0.0,0.0,0.0,0.0,0.0,0.0,0.0,0.0,0.0,0.0,0.0,0.0,0.0,0.0,0.0,0.0,0.0,0.0,0.0,-0.0368,-0.0733,-0.1043,-0.1346,-0.1637,-0.1867,-0.1911,-0.1885,-0.1866,-0.1785,-0.1826,-0.1803,-0.1795,-0.1795,-0.1795,-0.1795,-0.1795,-0.1795,-0.1795,-0.1795,-0.1795,-0.1795,-0.2186,-0.2856,-0.3079,-0.3916,-0.5027,-0.5641,-0.6255,-0.6758,-0.7482,-0.8211,-0.8322,-0.8816,-0.8801,-0.8737,-0.8665,-0.8523,-0.8367,-0.8221,-0.8133,-0.7998,-0.7992,-0.7988,-0.8038,-0.8137,-0.8237,-0.8382,-0.8531,-0.8783,-0.9137,-0.9331,-0.9529,-0.9624,-0.9624,-0.9624,-0.9624,-0.9624,-0.9624,-0.9624,-0.9624,-0.9624,-0.9624,-0.9624,-0.9624,-0.9624,-0.9624,-0.9624,1.0721,1.0721,1.0721,1.0721,1.0721,1.0721,1.0323,0.9661,0.9253,0.8917,0.8587,0.852,0.832,0.8184,0.7045,0.6508,0.6174,0.4964,0.3827,0.2687,0.2083,0.1277,0.0471,0.0,0.0,0.0,0.0,0.0,0.0,0.0,0.0,0.0,0.0,0.0,0.0,0.0,0.0,0.0,0.0,0.0,0.0,0.0,0.0,0.0,0.0,0.0,0.0,-0.0492,-0.0861,-0.1171,-0.154,-0.177,-0.194,-0.187,-0.191,-0.1884,-0.1852,-0.1827,-0.1802,-0.1795,-0.1795,-0.1795,-0.1795,-0.1795,-0.1795,-0.1795,-0.1795,-0.1795,-0.1795,-0.1795,-0.1962,-0.2632,-0.3358,-0.4081,-0.4693,-0.514,-0.5475,-0.6144,-0.6927,-0.7598,-0.8436,-0.8734,-0.8821,-0.8767,-0.8495,-0.8445,-0.8289,-0.8157,-0.8032,-0.7992,-0.7988,-0.7988,-0.8088,-0.8137,-0.8287,-0.8485,-0.873,-0.8981,-0.9183,-0.9331,-0.948,-0.9624,-0.9624,-0.9624,-0.9624,-0.9624,-0.9624,-0.9624,-0.9624,-0.9624,-0.9624,-0.9624,-0.9624,-0.9624,-0.9624,1.0721,1.0721,1.0721,1.0721,1.0721,1.0721,1.0326,0.9728,0.9253,0.8917,0.8587,0.8587,0.8587,0.852,0.8117,0.7915,0.7379,0.6642,0.5837,0.4699,0.3224,0.2218,0.1345,0.0,0.0,0.0,0.0,0.0,0.0,0.0,0.0,0.0,0.0,0.0,0.0,0.0,0.0,0.0,0.0,0.0,0.0,0.0,0.0,0.0,0.0,0.0,0.0,0.0,-0.0735,-0.1048,-0.1344,-0.1634,-0.1874,-0.1911,-0.1885,-0.18,-0.1784,-0.1827,-0.1802,-0.1795,-0.1799,-0.1802,-0.1801,-0.1795,-0.1795,-0.1799,-0.18,-0.1801,-0.1802,-0.1803,-0.18,-0.2247,-0.2635,-0.2967,-0.358,-0.3971,-0.436,-0.5085,-0.5866,-0.6927,-0.782,-0.8149,-0.83,-0.8555,-0.8344,-0.8404,-0.8364,-0.8177,-0.8113,-0.8019,-0.7988,-0.7988,-0.7988,-0.8088,-0.8137,-0.8287,-0.8581,-0.8825,-0.9031,-0.9232,-0.948,-0.9624,-0.9624,-0.9624,-0.9624,-0.9624,-0.9624,-0.9624,-0.9624,-0.9624,-0.9624,-0.9624,-0.9624,-0.9624,-0.9624,1.0721,1.0721,1.0721,1.0721,1.0721,1.0721,1.0326,0.9728,0.9458,0.9056,0.8653,0.8587,0.8587,0.8587,0.852,0.852,0.8384,0.7715,0.6911,0.5705,0.4497,0.3759,0.2754,0.1614,0.0,0.074,0.0,0.0,0.0,0.0,0.0,0.0,0.0,0.0,0.0,0.0,0.0,0.0,0.0,0.0,0.0,0.0,0.0,0.0,0.0,0.0,0.0,0.0,-0.0797,-0.1048,-0.1343,-0.1706,-0.1949,-0.1931,-0.1898,-0.1878,-0.1817,-0.1796,-0.1829,-0.183,-0.1829,-0.183,-0.1829,-0.1833,-0.1827,-0.1828,-0.1822,-0.1817,-0.1815,-0.1813,-0.1808,-0.1804,-0.1855,-0.1907,-0.2353,-0.28,-0.3414,-0.4083,-0.5085,-0.62,-0.6813,-0.7146,-0.7506,-0.7834,-0.7982,-0.7751,-0.7784,-0.7911,-0.7937,-0.8089,-0.8005,-0.7988,-0.7988,-0.8038,-0.8088,-0.8187,-0.8432,-0.8676,-0.8878,-0.913,-0.9476,-0.9624,-0.9624,-0.9624,-0.9624,-0.9624,-0.9624,-0.9624,-0.9624,-0.9636,-0.9648,-0.9648,-0.9644,-0.9624,-0.9624,1.0721,1.0721,1.0721,1.0721,1.0721,1.0721,1.0323,0.9728,0.9664,0.9325,0.872,0.8587,0.8587,0.8587,0.8587,0.8587,0.8587,0.832,0.7717,0.6577,0.5973,0.5235,0.4229,0.3089,0.2418,0.1815,0.0,0.0,0.0,0.0,0.0,0.0,0.0,0.0,0.0,0.0,0.0,0.0,0.0,0.0,0.0,0.0,0.0,0.0,0.0,0.0,0.0,-0.0555,-0.0988,-0.1235,-0.1543,-0.1912,-0.1964,-0.1967,-0.1934,-0.1912,-0.1905,-0.1827,-0.1805,-0.186,-0.1871,-0.1877,-0.1884,-0.1874,-0.1862,-0.1853,-0.1846,-0.184,-0.1838,-0.183,-0.1825,-0.1806,-0.1796,-0.1795,-0.2074,-0.2298,-0.2577,-0.3302,-0.4305,-0.5308,-0.5864,-0.6197,-0.6362,-0.6704,-0.6879,-0.6797,-0.6824,-0.7078,-0.7231,-0.742,-0.7701,-0.7669,-0.7593,-0.7593,-0.7988,-0.8137,-0.8336,-0.8531,-0.873,-0.908,-0.948,-0.9579,-0.9624,-0.9624,-0.9624,-0.9624,-0.9624,-0.9628,-0.9652,-0.9701,-0.9705,-0.9685,-0.9681,-0.9713,-0.9652,1.0721,1.0721,1.0721,1.0721,1.0721,1.0721,1.0326,0.9731,0.9731,0.9253,0.8723,0.8587,0.8587,0.8587,0.8587,0.8587,0.8587,0.8587,0.8387,0.7648,0.7047,0.6577,0.5704,0.4495,0.3892,0.3289,0.2418,0.1008,0.0,0.0,0.0,0.0,0.0,0.0,0.0,0.0,0.0,0.0,0.0,0.0,0.0,0.0,0.0,0.0,0.0,0.0,0.0,-0.0618,-0.0926,-0.1112,-0.1668,-0.1903,-0.1943,-0.1965,-0.1943,-0.1906,-0.1917,-0.1908,-0.1894,-0.1887,-0.1895,-0.1892,-0.189,-0.1887,-0.1882,-0.1878,-0.1873,-0.1868,-0.1859,-0.1849,-0.1778,-0.1814,-0.1795,-0.1795,-0.1795,-0.1795,-0.1795,-0.2688,-0.3636,-0.4193,-0.4804,-0.5027,-0.5194,-0.5454,-0.5586,-0.5654,-0.556,-0.56,-0.558,-0.5808,-0.6683,-0.6737,-0.6818,-0.6954,-0.7403,-0.7869,-0.7982,-0.8404,-0.8691,-0.9088,-0.9533,-0.9579,-0.9624,-0.9624,-0.9624,-0.9624,-0.9628,-0.9636,-0.9669,-0.9746,-0.9835,-0.9847,-0.9929,-0.9973,-0.9827,1.0721,1.0721,1.0721,1.0721,1.0721,1.0721,1.0392,0.9981,0.9663,0.9306,0.8789,0.8626,0.8584,0.8584,0.8587,0.8576,0.8576,0.8587,0.852,0.8184,0.7833,0.7648,0.6775,0.5899,0.5434,0.4763,0.2954,0.1543,0.0866,0.0,0.0,0.0,0.0,0.0,0.0,0.0,0.0,0.0,0.0,0.0,0.0,0.0,0.0,0.0,0.0,0.0,0.0,-0.0618,-0.0926,-0.1173,-0.1668,-0.1911,-0.1962,-0.197,-0.1952,-0.1931,-0.193,-0.1939,-0.1919,-0.1915,-0.1921,-0.1921,-0.1984,-0.1932,-0.1934,-0.193,-0.1917,-0.1909,-0.188,-0.1867,-0.1851,-0.1831,-0.1805,-0.1795,-0.1795,-0.1795,-0.1795,-0.2186,-0.2633,-0.2856,-0.3191,-0.3301,-0.358,-0.4193,-0.4391,-0.4543,-0.4457,-0.4749,-0.464,-0.4231,-0.5101,-0.5665,-0.5625,-0.5775,-0.6073,-0.6737,-0.7399,-0.7918,-0.8389,-0.9057,-0.9458,-0.9537,-0.9624,-0.9669,-0.9673,-0.9624,-0.9628,-0.9697,-0.9746,-0.9823,-0.9933,-1.0082,-1.018,-1.0253,-1.0075,1.0721,1.0721,1.0721,1.0704,1.0694,1.069,1.0472,1.0109,0.9677,0.9237,0.8858,0.8618,0.8538,0.8543,0.8543,0.8543,0.8527,0.8481,0.8508,0.8513,0.8445,0.818,0.7798,0.7284,0.6608,0.5606,0.4074,0.2782,0.1772,0.0,0.0,0.0,0.0,0.0,0.0,0.0,0.0,0.0,0.0,0.0,0.0,0.0,0.0,0.0,0.0,0.0,0.0,-0.0556,-0.0926,-0.1235,-0.1606,-0.1851,-0.1973,-0.1974,-0.1963,-0.1949,-0.1955,-0.1955,-0.1947,-0.1954,-0.1964,-0.2034,-0.2038,-0.2038,-0.1973,-0.1967,-0.1954,-0.1938,-0.1908,-0.1883,-0.1867,-0.1843,-0.1817,-0.1795,-0.1795,-0.1795,-0.1851,-0.1851,-0.1851,-0.1907,-0.1963,-0.2018,-0.2409,-0.3024,-0.3187,-0.3344,-0.3606,-0.3963,-0.4043,-0.3375,-0.3448,-0.3909,-0.4056,-0.433,-0.4946,-0.5599,-0.6478,-0.703,-0.7565,-0.86,-0.936,-0.9384,-0.9509,-0.977,-0.9758,-0.977,-0.9799,-0.9868,-0.9904,-0.9961,-1.0083,-1.0221,-1.0314,-1.0363,-1.0359,1.0721,1.0721,1.0717,1.0646,1.0544,1.0538,1.0272,0.9784,0.9499,0.9099,0.8785,0.8408,0.8237,0.8237,0.8301,0.832,0.8359,0.8342,0.8312,0.8299,0.8348,0.8388,0.8293,0.7853,0.7259,0.6335,0.5336,0.4251,0.3041,0.2048,0.0,0.0,0.0,0.0,0.0,0.0,0.0,0.0,0.0,0.0,0.0,0.0,0.0,0.0,0.0,0.0,0.0,0.0,-0.0926,-0.1173,-0.1606,-0.1915,-0.2038,-0.2038,-0.197,-0.1967,-0.1973,-0.1971,-0.1969,-0.1971,-0.2038,-0.2038,-0.2038,-0.2038,-0.1975,-0.1975,-0.1967,-0.1964,-0.1936,-0.1907,-0.1885,-0.1853,-0.1825,-0.1804,-0.1795,-0.1795,-0.1795,-0.1795,-0.1851,-0.1851,-0.1851,-0.1851,-0.1962,-0.2297,-0.2297,-0.2405,-0.2405,-0.2777,-0.2884,-0.2377,-0.1982,-0.2363,-0.2796,-0.3625,-0.4574,-0.4708,-0.5385,-0.6003,-0.6818,-0.7895,-0.8717,-0.9061,-0.9268,-0.9544,-0.9883,-1.003,-1.011,-1.003,-1.0144,-1.0213,-1.0302,-1.0412,-1.0497,-1.053,-1.0473]}]]